[[{"header":{"parameterUnit":"m.s-1","parameterCategory":1,"la1":31.0,"la2":29.5877,"lo1":-88.7671,"lo2":-86.6584,"dy":0.0162,"dx":0.0185,"nx":115,"ny":88,"refTime":"2023-08-16T00:00:00:Z","depth":0,"parameterNumber":2,"parameterNumberName":"U-component_of_WINDS"},"data":[0.0,0.0,0.0,0.0,0.0,0.0,0.0,0.0,0.0,0.0,0.0,0.0,0.0,0.0,0.0,0.0,0.0,0.0,0.0,0.0,0.0,0.0,0.0,0.0,0.0,0.0,0.0,0.0,0.0,0.0,0.0,0.0,0.0,0.0,0.0,0.0,0.0,0.0,0.0,0.0,0.0,0.0,0.0,0.0,0.0,0.0,0.0,0.0,0.0,0.0,0.0,0.0,0.0,0.0,0.0,0.0,0.0,0.0,0.0,0.0,0.0,0.0,0.0,0.0,0.0,0.0,0.0,0.0,0.0,0.0,0.0,0.0,0.0,0.0,0.0,0.0,0.0,0.0,0.0,0.0,0.0,0.0,0.0,0.0,0.0,0.0,0.0,0.0,0.0,0.0,0.0,0.0,0.0,0.0,0.0,0.0,0.0,0.0,0.0,0.0,0.0,0.0,0.0,0.0,0.0,0.0,0.0,0.0,0.0,0.0,0.0,0.0,0.0,0.0,0.0,0.0,0.0,0.0,0.0,0.0,0.0,0.0,0.0,0.0,0.0,0.0,0.0,0.0,0.0,0.0,0.0,0.0,0.0,0.0,0.0,0.0,0.0,0.0,0.0,0.0,0.0,0.0,0.0,0.0,0.0,0.0,0.0,0.0,0.0,0.0,0.0,0.0,0.0,0.0,0.0,0.0,0.0,0.0,0.0,0.0,0.0,0.0,0.0,0.0,0.0,0.0,0.0,0.0,0.0,0.0,0.0,0.0,0.0,0.0,0.0,0.0,0.0,0.0,0.0,0.0,0.0,0.0,0.0,0.0,0.0,0.0,0.0,0.0,0.0,0.0,0.0,0.0,0.0,0.0,0.0,0.0,0.0,0.0,0.0,0.0,0.0,0.0,0.0,0.0,0.0,0.0,0.0,0.0,0.0,0.0,0.0,0.0,0.0,0.0,0.0,0.0,0.0,0.0,0.0,0.0,0.0,0.0,0.0,0.0,0.0,0.0,0.0,0.0,0.0,0.0,0.0,0.0,0.0,0.0,0.0,0.0,0.0,0.0,0.0,0.0,0.0,0.0,0.0,0.0,0.0,0.0,0.0,0.0,0.0,0.0,0.0,0.0,0.0,0.0,0.0,0.0,0.0,0.0,0.0,0.0,0.0,0.0,0.0,0.0,0.0,0.0,0.0,0.0,0.0,0.0,0.0,0.0,0.0,0.0,0.0,0.0,0.0,0.0,0.0,0.0,0.0,0.0,0.0,0.0,0.0,0.0,0.0,0.0,0.0,0.0,0.0,0.0,0.0,0.0,0.0,0.0,0.0,0.0,0.0,0.0,0.0,0.0,0.0,0.0,0.0,0.0,0.0,0.0,0.0,0.0,0.0,0.0,0.0,0.0,0.0,0.0,0.0,0.0,0.0,0.0,0.0,0.0,0.0,0.0,0.0,0.0,0.0,0.0,0.0,0.0,0.0,0.0,0.0,0.0,0.0,0.0,0.0,0.0,0.0,0.0,0.0,0.0,0.0,0.0,0.0,0.0,0.0,0.0,0.0,0.0,0.0,0.0,0.0,0.0,0.0,0.0,0.0,0.0,0.0,0.0,0.0,0.0,0.0,0.0,0.0,0.0,0.0,0.0,0.0,0.0,0.0,0.0,0.0,0.0,0.0,0.0,0.0,0.0,0.0,0.0,0.0,0.0,0.0,0.0,0.0,0.0,0.0,0.0,0.0,0.0,0.0,0.0,0.0,0.0,0.0,0.0,0.0,0.0,0.0,0.0,0.0,0.0,0.0,0.0,0.0,0.0,0.0,0.0,0.0,0.0,0.0,0.0,0.0,0.0,0.0,0.0,0.0,0.0,0.0,0.0,0.0,0.0,0.0,0.0,0.0,0.0,0.0,0.0,0.0,0.0,0.0,0.0,0.0,0.0,0.0,0.0,0.0,0.0,0.0,0.0,0.0,0.0,0.0,0.0,0.0,0.0,0.0,0.0,0.0,0.0,0.0,0.0,0.0,0.0,0.0,0.0,0.0,0.0,0.0,0.0,0.0,0.0,0.0,0.0,0.0,0.0,0.0,0.0,0.0,0.0,0.0,0.0,0.0,0.0,0.0,0.0,0.0,0.0,0.0,0.0,0.0,0.0,0.0,0.0,0.0,0.0,0.0,0.0,0.0,0.0,0.0,0.0,0.0,0.0,0.0,0.0,0.0,0.0,0.0,0.0,0.0,0.0,0.0,0.0,0.0,0.0,0.0,0.0,0.0,0.0,0.0,0.0,0.0,0.0,0.0,0.0,0.0,0.0,0.0,0.0,0.0,0.0,0.0,0.0,0.0,0.0,0.0,0.0,0.0,0.0,0.0,0.0,0.0,0.0,0.0,0.0,0.0,0.0,0.0,0.0,0.0,0.0,0.0,0.0,0.0,0.0,0.0,0.0,0.0,0.0,0.0,0.0,0.0,0.0,0.0,0.0,0.0,0.0,0.0,0.0,0.0,0.0,0.0,0.0,0.0,0.0,0.0,0.0,0.0,0.0,0.0,0.0,0.0,0.0,0.0,0.0,0.0,0.0,0.0,0.0,0.0,0.0,0.0,0.0,0.0,0.0,0.0,0.0,0.0,0.0,0.0,0.0,0.0,0.0,0.0,0.0,0.0,0.0,0.0,0.0,0.0,0.0,0.0,0.0,0.0,0.0,0.0,0.0,0.0,0.0,0.0,0.0,0.0,0.0,0.0,0.0,0.0,0.0,0.0,0.0,0.0,0.0,0.0,0.0,0.0,0.0,0.0,0.0,0.0,0.0,0.0,0.0,0.0,0.0,0.0,0.0,0.0,0.0,0.0,0.0,0.0,0.0,0.0,0.0,0.0,0.0,0.0,0.0,0.0,0.0,0.0,0.0,0.0,0.0,0.0,0.0,0.0,0.0,0.0,0.0,0.0,0.0,0.0,0.0,0.0,0.0,0.0,0.0,0.0,0.0,0.0,0.0,0.0,0.0,0.0,0.0,0.0,0.0,0.0,0.0,0.0,0.0,0.0,0.0,0.0,0.0,0.0,0.0,0.0,0.0,0.0,0.0,0.0,0.0,0.0,0.0,0.0,0.0,0.0,0.0,0.0,0.0,0.0,0.0,0.0,0.0,0.0,0.0,0.0,0.0,0.0,0.0,0.0,0.0,0.0,0.0,0.0,0.0,0.0,0.0,0.0,0.0,0.0,0.0,0.0,0.0,0.0,0.0,0.0,0.0,0.0,0.0,0.0,0.0,0.0,0.0,0.0,0.0,0.0,0.0,0.0,0.0,0.0,0.0,0.0,0.0,0.0,0.0,0.0,0.0,0.0,0.0,0.0,0.0,0.0,0.0,0.0,0.0,0.0,0.0,0.0,0.0,0.0,0.0,0.0,0.0,0.0,0.0,0.0,0.0,0.0,0.0,0.0,0.0,0.0,0.0,0.0,0.0,0.0,0.0,0.0,0.0,0.0,0.0,0.0,0.0,0.0,0.0,0.0,0.0,0.0,0.0,0.0,0.0,0.0,0.0,0.0,0.0,0.0,0.0,0.0,0.0,0.0,0.0,0.0,0.0,0.0,0.0,0.0,0.0,0.0,0.0,0.0,0.0,0.0,0.0,0.0,0.0,0.0,0.0,0.0,0.0,0.0,0.0,0.0,0.0,0.0,0.0,0.0,0.0,0.0,0.0,0.0,0.0,0.0,0.0,0.0,0.0,0.0,0.0,0.0,0.0,0.0,0.0,0.0,0.0,0.0,0.0,0.0,0.0,0.0,0.0,0.0,0.0,0.0,0.0,0.0,0.0,0.0,0.0,0.0,0.0,0.0,0.0,0.0,0.0,0.0,0.0,0.0,0.0,0.0,0.0,0.0,0.0,0.0,0.0,0.0,0.0,0.0,0.0,0.0,0.0,0.0,0.0,0.0,0.0,0.0,0.0,0.0,0.0,0.0,0.0,0.0,0.0,0.0,0.0,0.0,0.0,0.0,0.0,0.0,0.0,0.0,0.0,0.0,0.0,0.0,0.0,0.0,0.0,0.0,0.0,0.0,0.0,0.0,0.0,0.0,0.0,0.0,0.0,0.0,0.0,0.0,0.0,0.0,0.0,0.0,0.0,0.0,0.0,0.0,0.0,0.0,0.0,0.0,0.0,0.0,0.0,0.0,0.0,0.0,0.0,0.0,0.0,0.0,0.0,0.0,0.0,0.0,0.0,0.0,0.0,0.0,0.0,0.0,0.0,0.0,0.0,0.0,0.0,0.0,0.0,0.0,0.0,0.0,0.0,0.3188,0.0,0.0,0.0,0.0,0.0,0.0,0.0,0.0,0.0,0.0,0.0,0.0,0.0,0.0,0.0,0.0,0.0,0.0,0.0,0.0,0.0,0.0,0.0,0.0,0.0,0.0,0.0,0.0,0.0,0.0,0.0,0.0,0.0,0.0,0.0,0.0,0.0,0.0,0.0,0.0,0.0,0.0,0.0,0.0,0.0,0.0,0.0,0.0,0.0,0.0,0.0,0.0,0.0,0.0,0.0,0.0,0.0,0.0,0.0,0.0,0.0,0.0,0.0,0.0,0.0,0.0,0.0,0.0,0.0,0.0,0.0,0.0,0.0,0.0,0.0,0.0,0.0,0.0,0.0,0.0,0.0,0.0,0.0,0.0,0.0,0.0,0.0,0.0,0.0,0.0,0.0,0.0,0.0,0.0,0.0,0.0,0.0,0.0,0.0,0.0,0.0,0.0,0.0,0.0,0.0,0.0,0.0,0.0,0.0,0.0,0.3183,0.2625,0.2963,0.3019,0.2798,0.0,0.0,0.0,0.0,0.0,0.0,0.0,0.0,0.0,0.0,0.0,0.0,0.0,0.0,0.0,0.0,0.0,0.0,0.0,0.0,0.0,0.0,0.0,0.0,0.0,0.0,0.0,0.0,0.0,0.0,0.0,0.0,0.0,0.0,0.0,0.0,0.0,0.0,0.0,0.0,0.0,0.0,0.0,0.0,0.0,0.0,0.0,0.0,0.0,0.0,0.0,0.0,0.0,0.0,0.0,0.0,0.0,0.0,0.0,0.0,0.0,0.0,0.0,0.0,0.0,0.0,0.0,0.0,0.0,0.0,0.0,0.0,0.0,0.0,0.0,0.0,0.0,0.0,0.0,0.0,0.0,0.0,0.0,0.0,0.0,0.0,0.0,0.0,0.0,0.0,0.0,0.0,0.0,0.0,0.0,0.0,0.0,0.0,0.0,0.0,0.0,0.0,0.0,0.0,0.0,0.0,0.0,0.0,0.0,0.0,0.0,0.0,0.2514,0.2629,0.2465,0.0,0.0,0.0,0.0,0.0,0.0,0.0,0.0,0.0,0.0,0.0,0.0,0.0,0.0,0.0,0.0,0.0,0.0,0.0,0.0,0.0,0.0,0.0,0.0,0.0,0.0,0.0,0.0,0.0,0.0,0.0,0.0,0.0,0.0,0.0,0.0,0.0,0.0,0.0,0.0,0.0,0.0,0.0,0.0,0.0,0.0,0.0,0.0,0.0,0.0,0.0,0.0,0.0,0.0,0.0,0.0,0.0,0.0,0.0,0.0,0.0,0.0,0.0,0.0,0.0,0.0,0.0,0.0,0.0,0.0,0.0,0.0,0.0,0.0,0.0,0.0,0.0,0.0,0.0,0.0,0.0,0.0,0.0,0.0,0.0,0.0,0.0,0.0,0.0,0.0,0.0,0.0,0.0,0.0,0.0,0.0,0.0,0.0,0.0,0.0,0.0,0.0,0.0,0.0,0.0,0.0,0.0,0.0,0.0,0.0,0.2747,0.2238,0.2181,0.0,0.224,0.0,0.0,0.0,0.0,0.0,0.0,0.0,0.0,0.0,0.0,0.0,0.0,0.0,0.0,0.0,0.0,0.0,0.0,0.0,0.0,0.0,0.0,0.0,0.0,0.0,0.0,0.0,0.0,0.0,0.0,0.0,0.0,0.0,0.0,0.0,0.0,0.0,0.0,0.0,0.0,0.0,0.0,0.0,0.0,0.0,0.0,0.0,0.0,0.0,0.0,0.0,0.0,0.0,0.0,0.0,0.0,0.0,0.0,0.0,0.0,0.0,0.0,0.0,0.0,0.0,0.0,0.0,0.0,0.0,0.0,0.0,0.0,0.0,0.0,0.0,0.0,0.0,0.0,0.0,0.0,0.0,0.0,0.0,0.0,0.0,0.0,0.0,0.0,0.0,0.0,0.0,0.0,0.0,0.0,0.0,0.0,0.0,0.0,0.0,0.0,0.0,0.0,0.0,0.0,0.0,0.0,0.0,0.0,0.0,0.0,0.2354,0.1682,0.1625,0.1625,0.0,0.0,0.0,0.0,0.0,0.0,0.0,0.0,0.0,0.0,0.0,0.0,0.0,0.0,0.0,0.0,0.0,0.0,0.0,0.0,0.0,0.0,0.0,0.0,0.0,0.0,0.0,0.0,0.0,0.0,0.0,0.0,0.0,0.0,0.0,0.0,0.0,0.0,0.0,0.0,0.0,0.0,0.0,0.0,0.0,0.0,0.0,0.0,0.0,0.0,0.0,0.0,0.0,0.0,0.0,0.0,0.0,0.0,0.0,0.0,0.0,0.0,0.0,0.0,0.0,0.0,0.0,0.0,0.0,0.0,0.0,0.0,0.0,0.0,0.0,0.0,0.0,0.0,0.0,0.0,0.0,0.0,0.0,0.0,0.0,0.0,0.0,0.0,0.0,0.0,0.0,0.0,0.0,0.0,0.0,0.0,0.0,0.0,0.0,0.0,0.0,0.0,0.0,0.0,0.0,0.0,0.0,0.0,0.0,0.0,0.2523,0.1964,0.1234,0.1234,0.129,0.129,0.0,0.0,0.0,0.0,0.0,0.0,0.0,0.0,0.0,0.0,0.0,0.0,0.0,0.0,0.0,0.0,0.0,0.0,0.0,0.0,0.0,0.0,0.0,0.0,0.0,0.0,0.0,0.0,0.0,0.0,0.0,0.0,0.0,0.0,0.0,0.0,0.0,0.0,0.0,0.0,0.0,0.0,0.0,0.0,0.0,0.0,0.0,0.0,0.0,0.0,0.0,0.0,0.0,0.0,0.0,0.0,0.0,0.0,0.0,0.0,0.0,0.0,0.0,0.0,0.0,0.0,0.0,0.0,0.0,0.0,0.0,0.0,0.0,0.0,0.0,0.0,0.0,0.0,0.0,0.0,0.0,0.0,0.0,0.0,0.0,0.0,0.0,0.0,0.0,0.0,0.0,0.0,0.0,0.0,0.0,0.0,0.0,0.0,0.0,0.0,0.0,0.0,0.0,0.0,0.0,0.0,0.0,0.0,0.2184,0.2189,0.1797,0.0954,0.1066,0.1234,0.0,0.0,0.0,0.0,0.0,0.0,0.0,0.0,0.0,0.0,0.0,0.0,0.0,0.0,0.0,0.0,0.0,0.0,0.0,0.0,0.0,0.0,0.0,0.0,0.0,0.0,0.0,0.0,0.0,0.0,0.0,0.0,0.0,0.0,0.0,0.0,0.0,0.0,0.0,0.0,0.0,0.0,0.0,0.0,0.0,0.0,0.0,0.0,0.0,0.0,0.0,0.0,0.0,0.0,0.0,0.0,0.0,0.0,0.0,0.0,0.0,0.0,0.0,0.0,0.0,0.0,0.0,0.0,0.0,0.0,0.0,0.0,0.0,0.0,0.0,0.0,0.0,0.0,0.0,0.0,0.0,0.0,0.0,0.0,0.0,0.0,0.0,0.0,0.0,0.0,0.0,0.0,0.0,0.0,0.0,0.0,0.0,0.0,0.0,0.0,0.0,0.0,0.0,0.0,0.0,0.0,0.0,0.0,0.0,0.1908,0.1572,0.1122,0.0617,0.0841,0.101,0.0,0.0,0.0,0.0,0.0,0.0,0.0,0.0,0.0,0.0,0.0,0.0,0.0,0.0,0.0,0.0,0.0,0.0,0.0,0.0,0.0,0.0,0.0,0.0,0.0,0.0,0.0,0.0,0.0,0.0,0.0,0.0,0.0,0.0,0.0,0.0,0.0,0.0,0.0,0.0,0.0,0.0,0.0,0.0,0.0,0.0,0.0,0.0,0.0,0.0,0.0,0.0,0.0,0.0,0.0,0.0,0.0,0.0,0.0,0.0,0.0,0.0,0.0,0.0,0.0,0.0,0.0,0.0,0.0,0.0,0.0,0.0,0.0,0.0,0.0,0.0,0.0,0.0,0.0,0.0,0.0,0.0,0.0,0.0,0.0,0.0,0.0,0.0,0.0,0.0,0.0,0.0,0.0,0.0,0.0,0.0,0.0,0.0,0.0,0.0,0.0,0.0,0.0,0.0,0.0,0.0,0.0,0.0,0.0,0.1572,0.0,0.0841,0.0617,0.0785,0.0897,0.0,0.0,0.0,0.0,0.0,0.0,0.0,0.0,0.0,0.0,0.0,0.0,0.0,0.0,0.0,0.0,0.0,0.0,0.0,0.0,0.0,0.0,0.0,0.0,0.0,0.0,0.0,0.0,0.0,0.0,0.0,0.0,0.0,0.0,0.0,0.0,0.0,0.0,0.0,0.0,0.0,0.0,0.0,0.0,0.0,0.0,0.0,0.0,0.0,0.0,0.0,0.0,0.0,0.0,0.0,0.0,0.0,0.0,0.0,0.0,0.0,0.0,0.0,0.0,0.0,0.0,0.0,0.0,0.0,0.0,0.0,0.0,0.0,0.0,0.0,0.0,0.0,0.0,0.0,0.0,0.0,0.0,0.0,0.0,0.0,0.0,0.0,0.0,0.0,0.0,0.0,0.0,0.0,0.0,0.0,0.0,0.0,0.0,0.0,0.0,0.0,0.0,0.0,0.0,0.0,0.0,0.0,0.0,0.1572,0.1234,0.1178,0.1122,0.0898,0.0897,0.0785,0.0,0.0,0.0,0.0,0.0,0.0,0.0,0.0,0.0,0.0,0.0,0.0,0.0,0.0,0.0,0.0,0.0,0.0,0.0,0.0,0.0,0.0,0.0,0.0,0.0,0.0,0.0,0.0,0.0,0.0,0.0,0.0,0.0,0.0,0.0,0.0,0.0,0.0,0.0,0.0,0.0,0.0,0.0,0.0,0.0,0.0,0.0,0.0,0.0,0.0,0.0,0.0,0.0,0.0,0.0,0.0,0.0,0.0,0.0,0.0,0.0,0.0,0.0,0.0,0.0,0.0,0.0,0.0,0.0,0.0,0.0,0.0,0.0,0.0,0.0,0.0,0.0,0.0,0.0,0.0,0.0,0.0,0.0,0.0,0.0,0.0,0.0,0.0,0.0,0.0,0.0,0.0,0.0,0.0,0.0,0.0,0.0,0.0,0.0,0.0,0.0,0.0,0.0,0.0,0.0,0.0,0.0,0.0,0.0,0.1178,0.1234,0.129,0.129,0.0898,0.0729,0.0,0.0,0.0,0.0,0.0,0.0,0.0,0.0,0.0,0.0,0.0,0.0,0.0,0.0,0.0,0.0,0.0,0.0,0.0,0.0,0.0,0.0,0.0,0.0,0.0,0.0,0.0,0.0,0.0,0.0,0.0,0.0,0.0,0.0,0.0,0.0,0.0,0.0,0.0,0.0,0.0,0.0,0.0,0.0,0.0,0.0,0.0,0.0,0.0,0.0,0.0,0.0,0.0,0.0,0.0,0.0,0.0,0.0,0.0,0.0,0.0,0.0,0.0,0.0,0.0,0.0,0.0,0.0,0.0,0.0,0.0,0.0,0.0,0.0,0.0,0.0,0.0,0.0,0.0,0.0,0.0,0.0,0.0,0.0,0.0,0.0,0.0,0.0,0.0,0.0,0.0,0.0,0.0,0.0,0.0,0.0,0.0,0.0,0.0,0.0,0.0,0.0,0.0,0.0,0.0,0.0,0.0,0.0,0.0,0.1234,0.129,0.1347,0.1515,0.1122,0.0897,0.101,0.0,0.0,0.0,0.0,0.0,0.0,0.0,0.0,0.0,0.0,0.0,0.0,0.0,0.0,0.0,0.0,0.0,0.0,0.0,0.0,0.0,0.0,0.0,0.0,0.0,0.0,0.0,0.0,0.0,0.0,0.0,0.0,0.0,0.0,0.0,0.0,0.0,0.0,0.0,0.0,0.0,0.0,0.0,0.0,0.0,0.0,0.0,0.0,0.0,0.0,0.0,0.0,0.0,0.0,0.0,0.0,0.0,0.0,0.0,0.0,0.0,0.0,0.0,0.0,0.0,0.0,0.0,0.0,0.0,0.0,0.0,0.0,0.0,0.0,0.0,0.0,0.0,0.0,0.0,0.0,0.0,0.0,0.0,0.0,0.0,0.0,0.0,0.0,0.0,0.0,0.0,0.0,0.0,0.0,0.0,0.0,0.0,0.0,0.0,0.0,0.0,0.0,0.0,0.0,0.0,0.0,0.0,0.0,0.129,0.1346,0.1403,0.1515,0.1403,0.129,0.0,0.0,0.0,0.0,0.0,0.0,0.0,0.0,0.0,0.0,0.0,0.0,0.0,0.0,0.0,0.0,0.0,0.0,0.0,0.0,0.0,0.0,0.0,0.0,0.0,0.0,0.0,0.0,0.0,0.0,0.0,0.0,0.0,0.0,0.0,0.0,0.0,0.0,0.0,0.0,0.0,0.0,0.0,0.0,0.0,0.0,0.0,0.0,0.0,0.0,0.0,0.0,0.0,0.0,0.0,0.0,0.0,0.0,0.0,0.0,0.0,0.0,0.0,0.0,0.0,0.0,0.0,0.0,0.0,0.0,0.0,0.0,0.0,0.0,0.0,0.0,0.0,0.0,0.0,0.0,0.0,0.0,0.0,0.0,0.0,0.0,0.0,0.0,0.0,0.0,0.0,0.0,0.0,0.0,0.0,0.0,0.0,0.0,0.0,0.0,0.0,0.0,0.0,0.0,0.0,0.0,0.0,0.0,0.0,0.1515,0.1628,0.1685,0.1741,0.1572,0.1459,0.0,0.0,0.0,0.0,0.0,0.0,0.0,0.0,0.0,0.0,0.0,0.0,0.0,0.0,0.0,0.0,0.0,0.0,0.0,0.0,0.0,0.0,0.0,0.0,0.0,0.0,0.0,0.0,0.0,0.0,0.0,0.0,0.0,0.0,0.0,0.0,0.0,0.0,0.0,0.0,0.0,0.0,0.0,0.0,0.0,0.0,0.0,0.0,0.0,0.0,0.0,0.0,0.0,0.0,0.0,0.0,0.0,0.0,0.0,0.0,0.0,0.0,0.0,0.0,0.0,0.0,0.0,0.0,0.0,0.0,0.0,0.0,0.0,0.0,0.0,0.0,0.0,0.0,0.0,0.0,0.0,0.0,0.0,0.0,0.0,0.0,0.0,0.0,0.0,0.0,0.0,0.0,0.0,0.0,0.0,0.0,0.0,0.0,0.0,0.0,0.0,0.0,0.0,0.0,0.0,0.0,0.0,0.0,0.129,0.1459,0.1628,0.1741,0.1797,0.1741,0.1628,0.0,0.0,0.0,0.0,0.0,0.0,0.0,0.0,0.0,0.0,0.0,0.0,0.0,0.0,0.0,0.0,0.0,0.0,0.0,0.0,0.0,0.0,0.0,0.0,0.0,0.0,0.0,0.0,0.0,0.0,0.0,0.0,0.0,0.0,0.0,0.0,0.0,0.0,0.0,0.0,0.0,0.0,0.0,0.0,0.0,0.0,0.0,0.0,0.0,0.0,0.0,0.0,0.0,0.0,0.0,0.0,0.0,0.0,0.0,0.0,0.0,0.0,0.0,0.0,0.0,0.0,0.0,0.0,0.0,0.0,0.0,0.0,0.0,0.0,0.0,0.0,0.0,0.0,0.0,0.0,0.0,0.0,0.0,0.0,0.0,0.0,0.0,0.0,0.0,0.0,0.0,0.0,0.0,0.0,0.0,0.0,0.0,0.0,0.0,0.0,0.0,0.0,0.0,0.0,0.0,0.0,0.0,0.0,0.1178,0.129,0.1515,0.1684,0.1797,0.1797,0.1628,0.0,0.0,0.0,0.0,0.0,0.0,0.0,0.0,0.0,0.0,0.0,0.0,0.0,0.0,0.0,0.0,0.0,0.0,0.0,0.0,0.0,0.0,0.0,0.0,0.0,0.0,0.0,0.0,0.0,0.0,0.0,0.0,0.0,0.0,0.0,0.0,0.0,0.0,0.0,0.0,0.0,0.0,0.0,0.0,0.0,0.0,0.0,0.0,0.0,0.0,0.0,0.0,0.0,0.0,0.0,0.0,0.0,0.0,0.0,0.0,0.0,0.0,0.0,0.0,0.0,0.0,0.0,0.0,0.0,0.0,0.0,0.0,0.0,0.0,0.0,0.0,0.0,0.0,0.0,0.0,0.0,0.0,0.0,0.0,0.0,0.0,0.0,0.0,0.0,0.0,0.0,0.0,0.0,0.0,0.0,0.0,0.0,0.0,0.0,0.0,0.0,0.0,0.0,0.0,0.0,0.0,0.0,0.0,0.1178,0.129,0.1515,0.1684,0.1797,0.1797,0.1741,0.0,0.0,0.0,0.0,0.0,0.0,0.0,0.0,0.0,0.0,0.0,0.0,0.0,0.0,0.0,0.0,0.0,0.0,0.0,0.0,0.0,0.0,0.0,0.0,0.0,0.0,0.0,0.0,0.0,0.0,0.0,0.0,0.0,0.0,0.0,0.0,0.0,0.0,0.0,0.0,0.0,0.0,0.0,0.0,0.0,0.0,0.0,0.0,0.233,0.0,0.0,0.0,0.0,0.0,0.0,0.0,0.0,0.0,0.0,0.0,0.0,0.0,0.0,0.0,0.0,0.0,0.0,0.0,0.0,0.0,0.0,0.0,0.0,0.0,0.0,0.0,0.0,0.0,0.0,0.0,0.0,0.0,0.0,0.0,0.0,0.0,0.0,0.0,0.0,0.0,0.0,0.0,0.0,0.0,0.0,0.0,0.0,0.0,0.0,0.0,0.0,0.0,0.0,0.0,0.0,0.0,0.0,0.0,0.1347,0.1459,0.1628,0.1741,0.1797,0.1797,0.1741,0.0,0.0,0.0,0.0,0.0,0.0,0.0,0.0,0.0,0.0,0.0,0.0,0.0,0.0,0.0,0.0,0.0,0.0,0.0,0.0,0.0,0.0,0.0,0.0,0.0,0.0,0.0,0.0,0.0,0.0,0.0,0.0,0.0,0.0,0.0,0.0,0.0,0.0,0.0,0.0,0.0,0.0,0.0,0.0,0.0,0.0,0.0,0.0,0.0,0.0,0.0,0.0,0.0,0.0,0.0,0.0,0.0,0.0,0.0,0.0,0.0,0.0,0.0,0.0,0.0,0.0,0.0,0.0,0.0,0.0,0.0,0.0,0.0,0.0,0.0,0.0,0.0,0.0,0.0,0.0,0.0,0.0,0.0,0.0,0.0,0.0,0.0,0.0,0.0,0.0,0.0,0.0,0.0,0.0,0.0,0.0,0.0,0.0,0.0,0.0,0.0,0.0,0.0,0.0,0.0,0.0,0.0,0.1459,0.1572,0.1572,0.1741,0.1797,0.1797,0.1797,0.1741,0.1628,0.0,0.0,0.0,0.0,0.0,0.0,0.0,0.0,0.0,0.0,0.0,0.0,0.0,0.0,0.0,0.0,0.0,0.0,0.0,0.0,0.0,0.0,0.0,0.0,0.0,0.0,0.0,0.0,0.0,0.0,0.0,0.0,0.0,0.0,0.0,0.0,0.0,0.0,0.3077,0.297,0.0,0.0,0.0,0.0,0.0,0.0,0.0,0.0,0.2803,0.0,0.0,0.0,0.0,0.0,0.0,0.0,0.0,0.0,0.0,0.0,0.0,0.0,0.0,0.0,0.0,0.0,0.0,0.0,0.0,0.0,0.0,0.0,0.0,0.0,0.0,0.0,0.0,0.0,0.0,0.0,0.0,0.0,0.0,0.0,0.0,0.0,0.0,0.0,0.0,0.0,0.0,0.0,0.0,0.0,0.0,0.0,0.0,0.0,0.0,0.0,0.0,0.0,0.0,0.0,0.0,0.1122,0.129,0.1403,0.1572,0.1628,0.1685,0.1797,0.1797,0.1797,0.1741,0.0,0.0,0.0,0.0,0.0,0.0,0.0,0.0,0.0,0.0,0.0,0.0,0.0,0.0,0.0,0.0,0.0,0.0,0.0,0.0,0.0,0.0,0.0,0.0,0.0,0.0,0.0,0.0,0.0,0.0,0.0,0.0,0.0,0.0,0.0,0.0,0.0,0.0,0.0,0.2916,0.2805,0.0,0.0,0.0,0.0,0.0,0.0,0.0,0.0,0.265,0.0,0.0,0.0,0.0,0.0,0.0,0.0,0.0,0.0,0.0,0.0,0.0,0.0,0.0,0.0,0.0,0.0,0.0,0.0,0.0,0.0,0.0,0.0,0.0,0.0,0.0,0.0,0.0,0.0,0.0,0.0,0.0,0.0,0.0,0.0,0.0,0.0,0.0,0.0,0.0,0.0,0.0,0.0,0.0,0.0,0.0,0.0,0.0,0.0,0.0,0.0,0.0,0.0,0.0,0.0,0.1347,0.1515,0.1628,0.1685,0.1741,0.1741,0.1797,0.1797,0.1797,0.0,0.0,0.0,0.0,0.0,0.0,0.0,0.0,0.0,0.0,0.0,0.0,0.0,0.0,0.0,0.0,0.0,0.0,0.0,0.0,0.0,0.0,0.0,0.0,0.0,0.0,0.0,0.0,0.0,0.0,0.0,0.0,0.0,0.0,0.0,0.0,0.0,0.0,0.0,0.0,0.2805,0.2749,0.2635,0.0,0.0,0.0,0.0,0.0,0.0,0.2797,0.2753,0.0,0.0,0.0,0.0,0.0,0.0,0.0,0.0,0.0,0.0,0.0,0.0,0.0,0.0,0.0,0.0,0.0,0.0,0.0,0.0,0.0,0.0,0.0,0.0,0.0,0.0,0.0,0.0,0.0,0.0,0.0,0.0,0.0,0.0,0.0,0.0,0.0,0.0,0.0,0.0,0.0,0.0,0.0,0.0,0.0,0.0,0.0,0.0,0.0,0.0,0.0,0.0,0.0,0.0,0.0,0.1628,0.1741,0.1797,0.1797,0.1797,0.1797,0.1797,0.1797,0.1797,0.0,0.0,0.0,0.0,0.0,0.0,0.0,0.0,0.0,0.0,0.0,0.0,0.0,0.0,0.0,0.0,0.0,0.0,0.0,0.0,0.0,0.0,0.0,0.0,0.0,0.0,0.0,0.0,0.0,0.0,0.0,0.0,0.0,0.0,0.0,0.0,0.0,0.0,0.0,0.0,0.0,0.2689,0.2687,0.2585,0.0,0.0,0.0,0.0,0.296,0.2891,0.0,0.0,0.0,0.0,0.0,0.0,0.0,0.0,0.0,0.0,0.0,0.0,0.0,0.0,0.0,0.0,0.0,0.0,0.0,0.0,0.0,0.0,0.0,0.0,0.0,0.0,0.0,0.0,0.0,0.0,0.0,0.0,0.0,0.0,0.0,0.0,0.0,0.0,0.0,0.0,0.0,0.0,0.0,0.0,0.0,0.0,0.0,0.0,0.0,0.0,0.0,0.0,0.0,0.0,0.0,0.0,0.1628,0.1741,0.1797,0.1797,0.1797,0.1797,0.1797,0.1797,0.1852,0.0,0.0,0.0,0.0,0.0,0.0,0.0,0.0,0.0,0.0,0.0,0.0,0.0,0.0,0.0,0.0,0.0,0.0,0.0,0.0,0.0,0.0,0.0,0.0,0.0,0.0,0.0,0.0,0.0,0.0,0.0,0.0,0.0,0.0,0.0,0.0,0.0,0.0,0.0,0.0,0.0,0.2686,0.2565,0.2577,0.2569,0.0,0.0,0.2288,0.2288,0.2288,0.0,0.0,0.0,0.0,0.0,0.0,0.0,0.0,0.0,0.0,0.0,0.0,0.0,0.0,0.0,0.0,0.0,0.0,0.0,0.0,0.0,0.0,0.0,0.0,0.0,0.0,0.0,0.0,0.0,0.0,0.0,0.0,0.0,0.0,0.0,0.0,0.0,0.0,0.0,0.0,0.0,0.0,0.0,0.0,0.0,0.0,0.0,0.0,0.0,0.0,0.0,0.0,0.0,0.0,0.0,0.1459,0.1685,0.1797,0.1797,0.1797,0.1797,0.1852,0.1905,0.1905,0.1961,0.0,0.0,0.0,0.0,0.0,0.0,0.0,0.0,0.0,0.0,0.0,0.0,0.0,0.0,0.0,0.0,0.0,0.0,0.0,0.0,0.0,0.0,0.0,0.0,0.0,0.0,0.0,0.0,0.0,0.0,0.0,0.0,0.0,0.0,0.0,0.0,0.0,0.0,0.0,0.0,0.0,0.0,0.2403,0.253,0.0,0.0,0.0,0.2532,0.2493,0.0,0.0,0.0,0.0,0.0,0.0,0.0,0.0,0.0,0.0,0.0,0.0,0.0,0.0,0.0,0.0,0.0,0.0,0.0,0.0,0.0,0.0,0.0,0.0,0.0,0.0,0.0,0.0,0.0,0.0,0.0,0.0,0.0,0.0,0.0,0.0,0.0,0.0,0.0,0.0,0.0,0.0,0.0,0.0,0.0,0.0,0.0,0.0,0.0,0.0,0.0,0.0,0.0,0.0,0.0,0.0,0.0,0.1797,0.1853,0.1852,0.1852,0.1908,0.1962,0.2127,0.2071,0.0,0.0,0.0,0.0,0.0,0.0,0.0,0.0,0.0,0.0,0.0,0.0,0.0,0.0,0.0,0.0,0.0,0.0,0.0,0.0,0.0,0.0,0.0,0.0,0.0,0.0,0.0,0.3852,0.0,0.0,0.0,0.0,0.0,0.0,0.0,0.0,0.0,0.0,0.0,0.0,0.0,0.0,0.2564,0.2414,0.2534,0.249,0.0,0.0,0.2572,0.2589,0.2504,0.2388,0.0,0.0,0.0,0.0,0.0,0.0,0.0,0.0,0.0,0.0,0.0,0.0,0.0,0.0,0.0,0.0,0.0,0.0,0.0,0.0,0.0,0.0,0.0,0.0,0.0,0.0,0.0,0.0,0.0,0.0,0.0,0.0,0.0,0.0,0.0,0.0,0.0,0.0,0.0,0.0,0.0,0.0,0.0,0.0,0.0,0.0,0.0,0.0,0.0,0.0,0.0,0.0,0.0,0.0,0.1629,0.1797,0.1905,0.2017,0.1959,0.2127,0.224,0.2465,0.2296,0.2352,0.0,0.0,0.0,0.0,0.0,0.0,0.0,0.0,0.0,0.0,0.0,0.0,0.0,0.0,0.0,0.0,0.0,0.0,0.0,0.0,0.0,0.0,0.0,0.0,0.0,0.0,0.0,0.0,0.0,0.0,0.0,0.0,0.0,0.0,0.0,0.0,0.0,0.0,0.0,0.0,0.0,0.2558,0.269,0.2403,0.2286,0.0,0.2202,0.2103,0.2238,0.229,0.2237,0.2038,0.0,0.0,0.0,0.0,0.0,0.0,0.0,0.0,0.0,0.0,0.0,0.0,0.0,0.0,0.0,0.0,0.0,0.0,0.0,0.0,0.0,0.0,0.0,0.0,0.0,0.0,0.0,0.0,0.0,0.0,0.0,0.0,0.0,0.0,0.0,0.0,0.0,0.0,0.0,0.0,0.0,0.0,0.0,0.0,0.0,0.0,0.0,0.0,0.0,0.0,0.0,0.0,0.0,0.1757,0.2023,0.2078,0.2158,0.2197,0.2334,0.2483,0.26,0.2603,0.274,0.0,0.0,0.0,0.0,0.0,0.0,0.0,0.0,0.0,0.0,0.0,0.0,0.0,0.0,0.0,0.0,0.0,0.0,0.0,0.0,0.0,0.0,0.0,0.0,0.0,0.0,0.0,0.0,0.4201,0.4059,0.3814,0.0,0.0,0.0,0.0,0.0,0.0,0.0,0.0,0.0,0.0,0.2574,0.2616,0.2494,0.0,0.0,0.2237,0.2216,0.2181,0.2324,0.2294,0.2237,0.2228,0.0,0.0,0.0,0.0,0.0,0.0,0.0,0.0,0.0,0.0,0.0,0.0,0.0,0.0,0.0,0.0,0.0,0.0,0.0,0.0,0.0,0.0,0.0,0.0,0.0,0.0,0.0,0.0,0.0,0.0,0.0,0.0,0.0,0.0,0.0,0.0,0.0,0.0,0.0,0.0,0.0,0.0,0.0,0.0,0.0,0.0,0.0,0.0,0.0,0.0,0.0,0.0,0.1928,0.2206,0.2329,0.2352,0.2402,0.2594,0.2745,0.2922,0.3033,0.3095,0.0,0.0,0.0,0.0,0.0,0.0,0.0,0.0,0.0,0.0,0.0,0.0,0.0,0.0,0.0,0.0,0.0,0.0,0.0,0.0,0.0,0.0,0.0,0.0,0.0,0.0,0.0,0.0,0.4225,0.4016,0.3585,0.0,0.0,0.0,0.0,0.0,0.0,0.0,0.0,0.0,0.0,0.2643,0.2623,0.2566,0.2395,0.2222,0.2224,0.2274,0.2232,0.2382,0.2351,0.2297,0.0,0.0,0.0,0.0,0.0,0.0,0.0,0.0,0.0,0.0,0.0,0.0,0.0,0.0,0.0,0.0,0.0,0.0,0.0,0.0,0.0,0.0,0.0,0.0,0.0,0.0,0.0,0.1046,0.0,0.0,0.0999,0.0,0.0,0.0,0.0,0.0,0.0,0.0,0.0,0.0,0.0,0.0,0.0,0.0,0.0,0.0,0.0,0.0,0.0,0.0,0.0,0.0,0.0,0.2153,0.2217,0.2526,0.2651,0.2586,0.2768,0.3073,0.3498,0.3503,0.3515,0.347,0.0,0.0,0.0,0.0,0.0,0.0,0.0,0.0,0.0,0.0,0.0,0.0,0.0,0.0,0.0,0.0,0.0,0.0,0.0,0.0,0.0,0.0,0.0,0.0,0.0,0.0,0.4549,0.4363,0.3997,0.0,0.0,0.0,0.0,0.0,0.0,0.0,0.0,0.0,0.0,0.2783,0.2697,0.2633,0.2383,0.2248,0.2265,0.2233,0.227,0.2413,0.2466,0.2411,0.0,0.0,0.0,0.0,0.0,0.0,0.0,0.0,0.0,0.0,0.0,0.0,0.0,0.0,0.0,0.0,0.0,0.0,0.0,0.0,0.0,0.0,0.0,0.0,0.0,0.0,0.0,-0.0,0.037,0.0,0.0,0.0,0.0,0.0,0.0,0.0,0.0,0.0,0.0,0.0,0.2954,0.2833,0.0,0.0,0.0,0.0,0.0,0.0,0.0,0.0,0.0,0.0,0.0,0.0,0.2365,0.2661,0.2854,0.2947,0.3,0.3266,0.3612,0.3993,0.3918,0.3859,0.3821,0.0,0.0,0.0,0.0,0.0,0.0,0.0,0.0,0.0,0.0,0.0,0.0,0.0,0.0,0.0,0.0,0.0,0.0,0.0,0.0,0.0,0.0,0.0,0.0,0.0,0.4373,0.0,0.0,0.0,0.0,0.0,0.0,0.0,0.0,0.0,0.0,0.0,0.274,0.3156,0.292,0.2714,0.2842,0.2558,0.2326,0.0,0.0,0.0,0.0,0.0,0.0,0.0,0.0,0.0,0.0,0.0,0.0,0.0,0.0,0.2639,0.218,0.2138,0.2257,0.2404,0.0,0.0,0.0,0.0,0.0,0.0,0.0,0.0,0.0,0.0,0.0,0.0,0.0,0.0,0.0263,0.0,0.095,0.0,0.0,0.0,0.0,0.0,0.0,0.0,0.0,0.337,0.3492,0.3364,0.3301,0.3301,0.0,0.3177,0.2987,0.0,0.0,0.0,0.0,0.0,0.0,0.0,0.0,0.2708,0.3047,0.3218,0.3361,0.342,0.3626,0.3916,0.431,0.4256,0.419,0.4125,0.4268,0.4241,0.0,0.0,0.0,0.0,0.0,0.0,0.0,0.0,0.0,0.0,0.0,0.0,0.0,0.0,0.0,0.0,0.0,0.0,0.0,0.0,0.0,0.0,0.0,0.444,0.0,0.0,0.0,0.0,0.0,0.0,0.0,0.0,0.0,0.2594,0.2747,0.2989,0.3317,0.3049,0.2836,0.2913,0.0,0.0,0.0,0.0,0.0,0.0,0.0,0.2603,0.2884,0.2893,0.2988,0.3275,0.3366,0.3346,0.3299,0.0,0.0,0.262,0.2572,0.2691,0.2767,0.2956,0.3067,0.2991,0.3066,0.3067,0.0,0.0,0.0,0.0,0.0,0.0,0.0,0.0,0.0421,0.0771,0.0,0.133,0.0,0.0,0.0,0.0,0.2654,0.3135,0.0,0.0,0.3842,0.3907,0.3971,0.3837,0.3835,0.3835,0.3768,0.3768,0.3758,0.3185,0.0,0.0,0.0,0.0,0.0,0.0,0.3279,0.3428,0.3687,0.3832,0.3832,0.3828,0.3964,0.4298,0.4384,0.4385,0.4443,0.4513,0.4497,0.4494,0.4189,0.0,0.0,0.0,0.0,0.0,0.0,0.0,0.0,0.0,0.0,0.0,0.0,0.0,0.0,0.0,0.0,0.0,0.0,0.0,0.0,0.4689,0.0,0.0,0.0,0.0,0.0,0.0,0.0,0.0,0.0,0.0,0.281,0.3154,0.341,0.3334,0.0,0.0,0.0,0.0,0.2508,0.2508,0.251,0.251,0.2508,0.251,0.2591,0.275,0.0,0.0,0.3071,0.3383,0.3465,0.3222,0.3229,0.3142,0.3139,0.3134,0.3132,0.3134,0.3212,0.3139,0.3139,0.321,0.3212,-0.0901,0.0,0.0,0.0,0.0,0.069,0.1138,0.1334,0.1334,0.1395,0.1585,0.1634,0.0,0.0,0.0,0.0,0.0,0.0,0.3914,0.3848,0.4205,0.4275,0.4058,0.4055,0.3987,0.3985,0.3987,0.3985,0.3982,0.399,0.3717,0.3381,0.0,0.0,0.0,0.0,0.3788,0.3884,0.4141,0.4087,0.3802,0.4074,0.4311,0.4634,0.4662,0.4772,0.4898,0.4925,0.4903,0.4903,0.4747,0.0,0.0,0.0,0.0,0.0,0.0,0.0,0.0,0.0,0.0,0.0,0.0,0.0,0.0,0.0,0.0,0.0,0.0,0.0,0.4891,0.5001,0.4891,0.0,0.0,0.0,0.0,0.0,0.0,0.0,0.0,0.0,0.3185,0.33,0.3429,0.0,0.0,0.3061,0.3061,0.2746,0.251,0.251,0.251,0.0,0.251,0.2588,0.284,0.3127,0.3426,0.371,0.3952,0.4035,0.4095,0.4112,0.4099,0.4077,0.401,0.3763,0.3686,0.3919,0.3995,0.3997,0.3997,0.3995,0.3997,-0.016,-0.0161,0.0157,0.0465,0.0698,0.133,0.1705,0.1818,0.1743,0.1802,0.2071,0.205,0.2198,0.2516,0.2663,0.0,0.0,0.0,0.4103,0.393,0.4433,0.4502,0.437,0.4367,0.4364,0.4295,0.4364,0.4364,0.4367,0.4434,0.4424,0.4183,0.0,0.0,0.4059,0.4094,0.4167,0.4279,0.4455,0.4472,0.4336,0.4705,0.4965,0.5243,0.516,0.5156,0.5286,0.5355,0.5422,0.5418,0.527,0.5094,0.0,0.0,0.0,0.0,0.0,0.0,0.0,0.0,0.0,0.0,0.0,0.3686,0.4001,0.0,0.0,0.0,0.4705,0.4888,0.5158,0.511,0.0,0.0,0.0,0.0,0.0,0.0,0.0,0.3467,0.345,0.3421,0.3526,0.3532,0.3629,0.3756,0.345,0.3295,0.3295,0.0,0.2588,0.2588,0.2588,0.2588,0.2588,0.2824,0.3076,0.3436,0.3808,0.4087,0.4329,0.4329,0.4389,0.4416,0.448,0.4458,0.4628,0.446,0.4307,0.4384,0.4384,0.4384,0.4384,0.4384,0.4384,0.1091,0.1417,0.1015,0.1218,0.1761,0.2032,0.2026,0.1911,0.1911,0.2138,0.2589,0.253,0.2762,0.3282,0.3436,0.0,0.362,0.4079,0.422,0.4186,0.4549,0.4762,0.4756,0.4683,0.4753,0.4756,0.4753,0.4753,0.4756,0.4756,0.4817,0.4855,0.4672,0.4454,0.4402,0.4454,0.4522,0.4551,0.4678,0.4907,0.5258,0.5607,0.5802,0.5933,0.5763,0.5617,0.5617,0.5822,0.5892,0.5892,0.5752,0.5617,0.5613,0.0,0.0,0.0,0.0,0.0,0.0,0.0,0.0,0.0,0.0,0.0,0.0,0.0,0.0,0.0,0.5036,0.0,0.5221,0.5111,0.0,0.0,0.0,0.4321,0.4019,0.3739,0.3683,0.3854,0.0,0.0,0.3752,0.3841,0.3841,0.3841,0.3604,0.3526,0.3526,0.3137,0.2824,0.2824,0.2824,0.2824,0.2902,0.3061,0.3376,0.3771,0.3999,0.4166,0.4399,0.4474,0.4465,0.4545,0.4462,0.4621,0.5007,0.5007,0.4927,0.4616,0.454,0.454,0.454,0.454,0.4621,0.1707,0.1676,0.2195,0.2304,0.2133,0.2188,0.2355,0.2464,0.2707,0.2953,0.3197,0.3424,0.3672,0.41,0.4179,0.4252,0.4396,0.474,0.4854,0.4755,0.4983,0.5012,0.4931,0.4931,0.4928,0.4931,0.5078,0.5155,0.5155,0.531,0.5375,0.534,0.5466,0.5387,0.502,0.4993,0.5072,0.5263,0.5317,0.5517,0.6064,0.6157,0.6272,0.6298,0.5959,0.5822,0.5822,0.5888,0.5892,0.5892,0.6017,0.6079,0.6079,0.5975,0.0,0.0,0.0,0.0,0.0,0.0,0.0,0.0,0.0,0.4417,0.4644,0.0,0.5145,0.0,0.5396,0.548,0.5517,0.5265,0.0,0.0,0.4778,0.453,0.4367,0.418,0.4011,0.4031,0.3812,0.374,0.3761,0.3841,0.3841,0.3763,0.3604,0.3526,0.3526,0.3215,0.3061,0.3061,0.3061,0.3139,0.3292,0.3606,0.3921,0.4231,0.4309,0.4384,0.4621,0.4774,0.4927,0.5085,0.5243,0.5323,0.5479,0.5482,0.5401,0.5323,0.5326,0.5326,0.5323,0.5326,0.5323,0.2132,0.2186,0.2724,0.2931,0.2854,0.2789,0.2782,0.2982,0.3262,0.3528,0.3697,0.4032,0.4283,0.4534,0.4699,0.4758,0.4799,0.5123,0.5222,0.5116,0.5272,0.5314,0.5251,0.5249,0.5249,0.5251,0.5401,0.5404,0.5482,0.5562,0.5596,0.5589,0.5665,0.5695,0.5505,0.5508,0.5592,0.5672,0.5778,0.6038,0.6424,0.668,0.6718,0.6704,0.6595,0.6497,0.6354,0.6354,0.6346,0.6478,0.6675,0.6802,0.6736,0.6802,0.6811,0.0,0.0,0.0,0.0,0.0,0.0,0.0,0.0,0.0,0.0,0.0,0.544,0.5566,0.5633,0.5641,0.563,0.5419,0.5243,0.517,0.4927,0.4745,0.468,0.45,0.4404,0.4382,0.4155,0.3921,0.3921,0.3841,0.3841,0.3921,0.3841,0.3763,0.3763,0.3528,0.3452,0.3532,0.353,0.3608,0.3839,0.4073,0.4307,0.4616,0.4693,0.4774,0.5012,0.5168,0.5323,0.5401,0.5634,0.5789,0.587,0.6025,0.6099,0.6177,0.6173,0.6096,0.5789,0.5786,0.5864,0.2531,0.2769,0.2964,0.3304,0.3692,0.3548,0.3433,0.3428,0.3748,0.4034,0.4204,0.462,0.4787,0.487,0.5032,0.5146,0.5057,0.5378,0.5468,0.5347,0.5584,0.5652,0.5562,0.5562,0.5562,0.5559,0.5637,0.5637,0.5637,0.5715,0.5724,0.5662,0.5662,0.5808,0.5928,0.6,0.5993,0.5987,0.6254,0.6499,0.6723,0.706,0.7173,0.719,0.7278,0.7252,0.7021,0.7012,0.7073,0.7269,0.7456,0.7587,0.7591,0.7727,0.7746,0.0,0.7673,0.0,0.0,0.0,0.0,0.0,0.0,0.0,0.0,0.5522,0.5597,0.583,0.583,0.5808,0.5712,0.552,0.5382,0.5156,0.5104,0.4974,0.4801,0.4719,0.4701,0.4701,0.4389,0.4155,0.4155,0.3997,0.3919,0.4077,0.4155,0.4155,0.4155,0.3997,0.3919,0.4077,0.4235,0.4233,0.4462,0.454,0.4696,0.5007,0.5085,0.5237,0.5556,0.5637,0.5715,0.5715,0.5941,0.6096,0.6335,0.6567,0.6718,0.6865,0.6942,0.6784,0.6328,0.6244,0.6398,0.2906,0.3275,0.3682,0.4018,0.4287,0.4518,0.4413,0.4172,0.4441,0.462,0.4789,0.4873,0.5124,0.5541,0.5541,0.5693,0.5747,0.5915,0.584,0.571,0.5713,0.5738,0.5565,0.5562,0.5562,0.5637,0.5789,0.5864,0.5864,0.6025,0.6087,0.6032,0.6192,0.6347,0.6558,0.0,0.0,0.0,0.6634,0.687,0.7084,0.7146,0.7315,0.7578,0.7474,0.0,0.7536,0.7461,0.7461,0.7601,0.7792,0.0,0.0,0.0,0.0,0.0,0.0,0.0,0.0,0.0,0.0,0.0,0.6695,0.6343,0.56,0.5663,0.5781,0.5973,0.5986,0.5996,0.5952,0.5686,0.552,0.552,0.5237,0.5007,0.4985,0.4768,0.4701,0.4701,0.4465,0.4307,0.4387,0.4307,0.4307,0.4387,0.4307,0.4384,0.4545,0.4387,0.4307,0.4384,0.4618,0.4851,0.4927,0.5162,0.5323,0.5482,0.5482,0.5556,0.5786,0.6022,0.6257,0.6331,0.6556,0.6707,0.6788,0.6949,0.7103,0.718,0.7403,0.748,0.7026,0.7022,0.7103,0.3652,0.3946,0.4285,0.4534,0.0,0.4927,0.492,0.4875,0.4981,0.5203,0.5545,0.5488,0.563,0.5966,0.5987,0.6001,0.6018,0.6179,0.6183,0.6054,0.6054,0.6015,0.5951,0.5951,0.5951,0.5951,0.6025,0.6099,0.6099,0.6257,0.6298,0.6363,0.6523,0.6641,0.6791,0.7036,0.6991,0.6674,0.6983,0.7167,0.7236,0.7655,0.7947,0.7938,0.8196,0.0,0.0,0.0,0.0,0.0,0.0,0.0,0.0,0.9013,0.0,0.9086,0.9136,0.9038,0.8509,0.8544,0.8286,0.7568,0.7279,0.6862,0.6254,0.6247,0.6353,0.6432,0.6439,0.6439,0.6442,0.6133,0.5951,0.5948,0.5559,0.5329,0.5326,0.5249,0.5168,0.5093,0.4932,0.4851,0.4851,0.4771,0.4771,0.4851,0.4774,0.4771,0.501,0.4776,0.4621,0.4854,0.5087,0.5243,0.5323,0.5482,0.5715,0.5873,0.5951,0.6103,0.6325,0.6483,0.6637,0.671,0.7019,0.7173,0.7246,0.7407,0.7642,0.7642,0.7791,0.8016,0.794,0.7795,0.7718,0.4335,0.4587,0.4756,0.5009,0.5257,0.526,0.5428,0.5526,0.0,0.0,0.0,0.5987,0.6025,0.6196,0.6254,0.6305,0.6199,0.6431,0.6451,0.6339,0.6335,0.6339,0.6339,0.6414,0.6417,0.6417,0.6496,0.6499,0.6496,0.6496,0.6649,0.6802,0.6772,0.6898,0.7099,0.7484,0.748,0.7246,0.748,0.7475,0.7459,0.8187,0.8537,0.8367,0.8965,0.9177,0.8874,0.8994,0.9103,0.9105,0.9219,0.9443,0.9647,0.9805,0.9929,0.9974,1.0182,1.0019,0.9474,0.9579,0.9241,0.8331,0.7718,0.7253,0.6942,0.6942,0.6865,0.6865,0.6865,0.6865,0.6865,0.6563,0.6338,0.6338,0.587,0.5634,0.5637,0.5562,0.5562,0.5562,0.5404,0.5323,0.5323,0.5243,0.516,0.5321,0.524,0.5237,0.5553,0.5246,0.5012,0.5246,0.5556,0.5718,0.5715,0.5867,0.6022,0.6335,0.6412,0.6563,0.6865,0.7015,0.7019,0.7173,0.7407,0.7561,0.7638,0.7872,0.8178,0.8178,0.8255,0.8403,0.8632,0.8556,0.8408,0.4884,0.5235,0.5323,0.5588,0.594,0.594,0.6113,0.6183,0.584,0.5843,0.6092,0.6074,0.6145,0.6392,0.637,0.6433,0.6585,0.6668,0.6654,0.6641,0.6637,0.6637,0.6637,0.6884,0.6962,0.7044,0.7133,0.7219,0.7215,0.7215,0.7383,0.7601,0.7388,0.7477,0.7885,0.8174,0.8322,0.8475,0.8012,0.7921,0.819,0.8277,0.8689,0.9287,0.9395,0.9595,0.9869,0.9939,0.999,1.0161,1.0361,1.0517,1.0685,1.0685,1.0666,1.0569,1.0635,1.0458,1.0077,0.9976,0.9539,0.8932,0.8475,0.7944,0.7257,0.7022,0.6865,0.6865,0.6942,0.6865,0.6865,0.671,0.6486,0.6338,0.6025,0.5786,0.5634,0.564,0.564,0.5637,0.5562,0.5559,0.5559,0.5559,0.5631,0.5786,0.5864,0.586,0.6015,0.5786,0.5559,0.5637,0.5951,0.6183,0.6257,0.6486,0.671,0.6788,0.6788,0.6945,0.7326,0.7403,0.7484,0.7872,0.7944,0.8025,0.8025,0.8178,0.8408,0.8556,0.8713,0.8941,0.9165,0.9165,0.917,0.5371,0.5816,0.5816,0.5991,0.6257,0.6438,0.6612,0.6773,0.6737,0.6599,0.6506,0.6521,0.6652,0.6894,0.6899,0.695,0.712,0.7116,0.7033,0.7033,0.7116,0.7116,0.712,0.7195,0.7281,0.7281,0.7368,0.745,0.7612,0.7612,0.7777,0.8094,0.8256,0.8365,0.842,0.8801,0.8981,0.9018,0.878,0.868,0.87,0.9099,0.949,0.9839,1.0174,1.0473,1.055,1.0685,1.0759,1.0685,1.0754,1.0887,1.1096,1.1109,1.1158,1.1205,1.123,1.1058,1.0732,1.0293,0.9922,0.9533,0.916,0.8708,0.8241,0.771,0.7411,0.7411,0.7326,0.7249,0.7173,0.7022,0.6872,0.6795,0.656,0.6328,0.6177,0.6177,0.6103,0.6025,0.6099,0.6099,0.6177,0.6251,0.6328,0.6479,0.6483,0.6637,0.663,0.6637,0.6486,0.6254,0.6409,0.6637,0.6637,0.6788,0.6942,0.7173,0.7246,0.7403,0.7718,0.7868,0.7949,0.8025,0.8178,0.8327,0.8403,0.8556,0.8789,0.8941,0.9094,0.9251,0.9549,0.9771,0.9846,0.5816,0.6086,0.6171,0.6435,0.6694,0.6969,0.7146,0.7312,0.745,0.7372,0.7037,0.7114,0.7235,0.7479,0.7535,0.748,0.7476,0.748,0.7476,0.748,0.7563,0.748,0.748,0.756,0.756,0.756,0.7731,0.7811,0.8062,0.8062,0.8284,0.8661,0.9073,0.9213,0.9086,0.9488,0.9698,0.9566,0.9703,0.9664,0.9364,0.9969,1.0347,1.0487,1.0929,1.1169,1.1178,1.1389,1.1358,1.116,1.1204,1.1307,1.1513,1.1533,1.1629,1.1755,1.1781,1.1558,1.1111,1.0669,1.0293,1.0067,0.9695,0.9468,0.9231,0.8556,0.8106,0.7953,0.7795,0.7638,0.7638,0.7488,0.7411,0.7334,0.7176,0.7019,0.6868,0.6791,0.6641,0.6567,0.6641,0.6641,0.6714,0.6788,0.6938,0.7019,0.7253,0.733,0.7249,0.7484,0.7407,0.7176,0.7096,0.7173,0.7173,0.7249,0.7403,0.771,0.7787,0.794,0.825,0.8327,0.8403,0.8484,0.8632,0.878,0.8932,0.9089,0.9322,0.9473,0.962,0.9776,1.0143,1.0443,1.0519,0.6083,0.6171,0.6529,0.6966,0.7397,0.7669,0.7757,0.7822,0.7692,0.7711,0.7738,0.7837,0.7822,0.783,0.7891,0.788,0.788,0.7807,0.7888,0.7884,0.7811,0.7895,0.788,0.8059,0.8154,0.8142,0.8491,0.874,0.8736,0.9009,0.928,0.947,0.9784,1.0015,1.0146,1.0449,1.0572,1.05,1.1033,1.0977,1.0426,1.0426,1.0726,1.1304,1.1316,1.1471,1.1656,1.1816,1.1877,1.1931,1.2058,1.2151,1.2178,1.2184,1.2124,1.2003,1.2009,1.1706,1.1186,1.1037,1.0812,1.0519,1.0218,1.0067,1.0067,0.9468,0.8941,0.8479,0.8178,0.8025,0.8025,0.8034,0.7889,0.7735,0.7739,0.7633,0.7431,0.7253,0.7184,0.7107,0.7064,0.6868,0.6979,0.6968,0.7107,0.7431,0.7723,0.7949,0.7944,0.8025,0.8102,0.8097,0.794,0.7783,0.7944,0.8178,0.8246,0.847,0.8546,0.8699,0.878,0.8927,0.9003,0.9165,0.9392,0.9468,0.962,0.9771,0.9841,1.0073,1.0218,1.0513,1.0887,1.1111,1.1117,0.6612,0.67,0.7054,0.7348,0.7534,0.7793,0.7826,0.7808,0.7827,0.7915,0.7978,0.7981,0.8006,0.8113,0.8208,0.8296,0.83,0.83,0.83,0.8296,0.8304,0.83,0.83,0.8384,0.8472,0.8644,0.8819,0.9087,0.9345,0.9689,0.9904,1.0091,1.0434,1.0662,1.0699,1.0925,1.0983,1.1008,1.1301,1.1401,1.1222,1.1186,1.1409,1.1706,1.1781,1.1929,1.2224,1.2305,1.2378,1.2526,1.2592,1.2673,1.2673,1.2526,1.2452,1.2378,1.2157,1.1929,1.1632,1.1558,1.126,1.0881,1.0812,1.0663,1.0368,1.0067,0.9695,0.9463,0.8703,0.825,0.834,0.8276,0.8264,0.8199,0.8286,0.8272,0.8032,0.7953,0.7881,0.7801,0.7797,0.7784,0.7776,0.7778,0.7882,0.8013,0.8185,0.8349,0.8408,0.856,0.8718,0.8865,0.8784,0.8627,0.8551,0.8556,0.8699,0.8851,0.9013,0.9165,0.9316,0.9463,0.9614,0.9765,0.9765,0.9922,0.9997,1.0218,1.0288,1.0513,1.0812,1.1111,1.1409,1.1632,1.1632,0.693,0.7104,0.7451,0.764,0.7705,0.7877,0.7891,0.7773,0.7963,0.8049,0.8094,0.818,0.8271,0.8364,0.8483,0.8578,0.8582,0.8632,0.874,0.874,0.8828,0.8744,0.8828,0.8828,0.8911,0.9087,0.917,0.9432,0.9951,1.0294,1.0549,1.0641,1.0997,1.1257,1.1433,1.1578,1.1623,1.1629,1.1835,1.1966,1.2009,1.2048,1.2083,1.2083,1.215,1.2305,1.2599,1.268,1.2746,1.2893,1.29,1.29,1.29,1.2746,1.2673,1.2599,1.2298,1.2077,1.2003,1.1861,1.1632,1.1335,1.126,1.1111,1.0887,1.0588,1.0443,1.0368,0.9539,0.8946,0.8807,0.8769,0.8792,0.8861,0.9009,0.9005,0.891,0.8832,0.8737,0.8591,0.8633,0.8664,0.8647,0.8788,0.8861,0.8918,0.8973,0.899,0.911,0.9259,0.9402,0.9565,0.9549,0.9392,0.9008,0.9008,0.9079,0.9306,0.9539,0.9695,0.9846,0.9997,1.0143,1.0218,1.0143,1.0293,1.0594,1.0738,1.0887,1.118,1.1484,1.1781,1.2009,1.2231,1.2378,0.6961,0.7051,0.7462,0.78,0.7946,0.8024,0.802,0.7967,0.8083,0.8184,0.8328,0.8513,0.8704,0.8798,0.8483,0.8389,0.8589,0.8835,0.8999,0.917,0.9262,0.9262,0.9262,0.9262,0.9345,0.9515,0.9777,1.0125,1.0554,1.0814,1.1068,1.1235,1.1505,1.1923,1.2237,1.2492,1.2632,1.2568,1.2914,1.2955,1.2802,1.2824,1.2613,1.2378,1.2452,1.2599,1.2673,1.2826,1.29,1.29,1.2973,1.2973,1.2893,1.2893,1.2826,1.2673,1.2432,1.2211,1.2077,1.2003,1.1929,1.1706,1.1706,1.1632,1.1552,1.126,1.1043,1.1031,1.0443,1.0068,0.9963,0.9698,0.9647,0.9822,0.9897,0.9922,0.9922,0.9712,0.9658,0.9596,0.9466,0.948,0.9442,0.9725,0.9958,1.0034,1.0337,1.0402,1.0142,1.0178,1.0169,1.016,1.017,1.0073,0.9695,0.969,0.9916,1.0067,1.0212,1.0443,1.0438,1.0513,1.0588,1.0743,1.0818,1.0968,1.126,1.1484,1.1706,1.1929,1.215,1.2378,1.2673,1.2973,1.3193,0.7522,0.7683,0.7851,0.7951,0.8091,0.8091,0.8024,0.8077,0.8207,0.8343,0.8426,0.8625,0.8721,0.8787,0.8742,0.8862,0.907,0.9144,0.9174,0.9262,0.9349,0.9349,0.9349,0.9349,0.9519,0.9864,0.9951,1.0299,1.0809,1.1068,1.1322,1.1585,1.1929,1.2277,1.2619,1.2796,1.3006,1.3092,1.3365,1.3333,1.3105,1.3257,1.3259,1.2907,1.2973,1.3046,1.32,1.3346,1.3564,1.363,1.3695,1.3695,1.3622,1.3397,1.3258,1.3112,1.2792,1.2638,1.2746,1.2666,1.2452,1.2157,1.2077,1.2009,1.1706,1.1558,1.1484,1.1409,1.1186,1.1006,1.0981,1.05,1.0063,1.0089,1.0264,1.0424,1.0393,1.0312,1.0314,1.0314,1.0398,1.0488,1.0511,1.0695,1.0693,1.0672,1.0719,1.0761,1.0776,1.0748,1.0818,1.0844,1.0841,1.0783,1.0594,1.0513,1.0513,1.0663,1.0812,1.0962,1.1037,1.1186,1.126,1.126,1.1341,1.1564,1.1781,1.2083,1.2305,1.2673,1.282,1.3039,1.3419,1.3564,1.3783,0.7849,0.8006,0.8006,0.8095,0.8155,0.8203,0.8155,0.822,0.8475,0.864,0.8676,0.885,0.9022,0.9054,0.9221,0.9379,0.951,0.9432,0.9432,0.9519,0.9519,0.9519,0.9515,0.9519,0.9777,1.0212,1.0386,1.0733,1.1165,1.1419,1.1671,1.1935,1.2363,1.2711,1.296,1.3137,1.3374,1.3533,1.3769,1.3707,1.3495,1.3722,1.3672,1.3477,1.3484,1.3484,1.3572,1.379,1.3928,1.4057,1.4137,1.4137,1.4057,1.3912,1.3695,1.3572,1.3251,1.3098,1.3266,1.32,1.2973,1.2599,1.2606,1.2452,1.215,1.2003,1.1929,1.1861,1.1713,1.1652,1.1563,1.1071,1.0672,1.0751,1.0913,1.1024,1.0952,1.0993,1.0932,1.0985,1.108,1.1225,1.1477,1.1442,1.1455,1.1433,1.1355,1.1419,1.1502,1.156,1.156,1.163,1.157,1.1532,1.1438,1.1283,1.1055,1.1111,1.118,1.1403,1.1558,1.1706,1.1781,1.1861,1.1935,1.2157,1.2378,1.2606,1.29,1.3273,1.3484,1.3622,1.3855,1.408,1.4289,0.7893,0.806,0.8111,0.8159,0.8181,0.8339,0.8392,0.8493,0.8833,0.9005,0.9114,0.9387,0.9564,0.9686,0.9833,1.0028,0.9946,0.9777,0.9777,0.9951,0.9951,0.9956,1.0038,1.0038,1.0294,1.0727,1.1084,1.1435,1.1699,1.1952,1.2118,1.2448,1.2881,1.3222,1.3398,1.3646,1.3886,1.4045,1.4282,1.4321,1.4323,1.4172,1.4007,1.3842,1.3992,1.3992,1.3863,1.4,1.4129,1.4129,1.4137,1.4137,1.4137,1.4217,1.416,1.3863,1.3878,1.3725,1.3572,1.3492,1.3411,1.3193,1.3193,1.3053,1.282,1.2673,1.2526,1.2378,1.215,1.2022,1.1806,1.1751,1.1614,1.1781,1.1626,1.1668,1.1674,1.1605,1.1537,1.1586,1.1643,1.1758,1.1935,1.2167,1.2277,1.2277,1.2433,1.2504,1.2468,1.2512,1.2563,1.2479,1.2291,1.2165,1.2157,1.2074,1.1802,1.1632,1.1626,1.1774,1.1848,1.2003,1.215,1.215,1.2452,1.2599,1.29,1.3119,1.3411,1.371,1.392,1.4129,1.4353,1.4649,1.4856,0.8111,0.8119,0.8247,0.8373,0.8562,0.8742,0.8905,0.9009,0.9289,0.9545,0.9755,0.9937,1.0196,1.0292,1.0443,1.0467,1.0467,1.0381,1.0299,1.0294,1.0381,1.0472,1.0467,1.0467,1.0722,1.116,1.1602,1.1946,1.2283,1.2454,1.2705,1.3052,1.3392,1.3652,1.3828,1.4068,1.4398,1.4727,1.4823,1.477,1.4602,1.4665,1.4569,1.4286,1.4353,1.4425,1.4361,1.4425,1.4418,1.4425,1.4425,1.4425,1.4425,1.4497,1.4433,1.4361,1.4209,1.4209,1.4145,1.3992,1.3848,1.3637,1.3572,1.3499,1.3346,1.3119,1.2973,1.29,1.2746,1.2599,1.2526,1.2526,1.233,1.1803,1.176,1.1805,1.1817,1.1708,1.1858,1.2017,1.2041,1.2089,1.2312,1.2512,1.2707,1.2707,1.2864,1.2975,1.2985,1.3011,1.2975,1.2855,1.2779,1.2779,1.2795,1.2714,1.2512,1.2311,1.2264,1.2231,1.2298,1.2445,1.2519,1.2666,1.2966,1.3193,1.3484,1.3702,1.3992,1.4209,1.4425,1.4633,1.4919,1.5133,1.5417,0.8494,0.8557,0.8679,0.8813,0.8921,0.9278,0.9445,0.9557,0.9921,1.0098,1.0298,1.0408,1.0549,1.0641,1.0733,1.0733,1.0733,1.0824,1.0738,1.0559,1.0641,1.0733,1.0733,1.0895,1.1068,1.1327,1.1774,1.2203,1.2619,1.2699,1.2881,1.3222,1.3652,1.3913,1.4088,1.4412,1.4741,1.4999,1.5151,1.502,1.4747,1.4909,1.482,1.447,1.4497,1.4649,1.4713,1.4784,1.4776,1.4713,1.4784,1.4848,1.4848,1.4784,1.4721,1.4713,1.4569,1.4425,1.4433,1.4353,1.4209,1.4072,1.4008,1.3928,1.3775,1.3557,1.3484,1.3419,1.3273,1.3193,1.3127,1.3119,1.29,1.2452,1.2247,1.2056,1.1936,1.1979,1.2058,1.2198,1.2327,1.2523,1.2692,1.2803,1.2883,1.2969,1.3134,1.336,1.338,1.3474,1.3552,1.3523,1.3601,1.3512,1.3432,1.3376,1.3236,1.3028,1.2843,1.2788,1.2746,1.3046,1.3193,1.3477,1.3702,1.392,1.4137,1.4418,1.4633,1.4776,1.4999,1.5346,1.563,1.5771,1.6053,0.8997,0.9318,0.9337,0.9341,0.9452,0.9819,1.0001,1.0114,1.0449,1.0621,1.0717,1.0722,1.0727,1.0727,1.0819,1.0819,1.0733,1.0916,1.1008,1.1003,1.0911,1.0819,1.0819,1.116,1.1419,1.1419,1.186,1.2203,1.2534,1.2705,1.2875,1.3222,1.3737,1.4082,1.425,1.458,1.4824,1.5075,1.5242,1.5087,1.4643,1.4909,1.4903,1.4472,1.4497,1.4641,1.4864,1.507,1.5141,1.5007,1.5062,1.5133,1.5125,1.4999,1.4935,1.4856,1.4705,1.4633,1.4641,1.4641,1.4641,1.4497,1.4433,1.4361,1.4209,1.4129,1.3992,1.3863,1.379,1.3717,1.3572,1.3564,1.3492,1.3419,1.2942,1.2506,1.2164,1.2271,1.2423,1.2451,1.2586,1.2806,1.2955,1.3066,1.3073,1.312,1.336,1.3614,1.3849,1.4072,1.4455,1.4419,1.4308,1.4266,1.4135,1.4084,1.403,1.4079,1.3843,1.363,1.3389,1.3564,1.3783,1.4065,1.4353,1.4577,1.4784,1.4919,1.5204,1.5426,1.5709,1.6132,1.6272,1.6403,1.6542,0.9609,0.9586,0.9902,1.006,1.009,1.0379,1.0469,1.056,1.0605,1.0819,1.0916,1.0916,1.0997,1.1176,1.117,1.117,1.117,1.1176,1.1354,1.144,1.1435,1.1343,1.1257,1.1602,1.1774,1.186,1.2283,1.2625,1.2881,1.3137,1.3313,1.3568,1.3913,1.425,1.4496,1.4657,1.4915,1.5257,1.534,1.5257,1.5023,1.508,1.4971,1.4576,1.4569,1.4713,1.4935,1.5213,1.5355,1.5133,1.5204,1.5196,1.5196,1.5133,1.5062,1.4974,1.4982,1.4982,1.4903,1.4982,1.4991,1.4991,1.4919,1.4919,1.4721,1.4569,1.4425,1.4289,1.4137,1.3992,1.3985,1.3912,1.3848,1.3717,1.3492,1.3119,1.2973,1.29,1.2942,1.279,1.281,1.2954,1.3016,1.3126,1.3194,1.3318,1.3606,1.4016,1.4223,1.4561,1.4867,1.4931,1.4922,1.4859,1.4884,1.4847,1.4864,1.5027,1.4858,1.4659,1.4332,1.4015,1.4225,1.4353,1.4784,1.4999,1.5141,1.5275,1.5638,1.6061,1.6202,1.6473,1.676,1.6899,1.7028,1.0274,1.0095,1.0398,1.0454,1.0464,1.0682,1.0824,1.0819,1.0906,1.0997,1.1089,1.1089,1.1267,1.144,1.1435,1.1521,1.1607,1.1607,1.1693,1.1785,1.1785,1.1693,1.1693,1.2037,1.2203,1.2375,1.2711,1.296,1.3222,1.3398,1.3652,1.3913,1.4159,1.4489,1.4831,1.5075,1.5235,1.5499,1.565,1.567,1.5296,1.5482,1.5241,1.4864,1.4776,1.4919,1.5292,1.5513,1.5576,1.5426,1.5426,1.5426,1.5417,1.5355,1.5267,1.518,1.5196,1.5196,1.5196,1.5196,1.5196,1.5196,1.5196,1.5133,1.4999,1.4919,1.4848,1.4713,1.4633,1.4561,1.4561,1.4497,1.4361,1.4217,1.4072,1.3783,1.3419,1.3346,1.3419,1.3346,1.3339,1.3404,1.3404,1.3477,1.3557,1.3631,1.3977,1.4351,1.4622,1.4917,1.5222,1.5395,1.5558,1.5666,1.5713,1.5682,1.5701,1.5858,1.5912,1.571,1.5404,1.4896,1.488,1.5086,1.5292,1.5426,1.57,1.5912,1.6263,1.6612,1.6751,1.6959,1.7245,1.7451,1.7579,1.0825,1.0733,1.0733,1.0733,1.0809,1.0911,1.1094,1.1094,1.1262,1.1348,1.144,1.1354,1.1527,1.1699,1.1699,1.1871,1.1952,1.1952,1.1952,1.2037,1.2123,1.2118,1.2123,1.2289,1.2448,1.2625,1.296,1.3137,1.3307,1.3568,1.3828,1.3997,1.4405,1.4741,1.4999,1.5325,1.5575,1.565,1.5982,1.5898,1.5529,1.5613,1.5423,1.5065,1.5054,1.5275,1.5655,1.5797,1.5797,1.5568,1.5718,1.5726,1.5726,1.5576,1.5497,1.5417,1.5346,1.5355,1.5443,1.5355,1.5275,1.5275,1.5275,1.5275,1.5204,1.5204,1.5204,1.5133,1.5196,1.5125,1.5062,1.5007,1.4864,1.4641,1.4633,1.4353,1.3928,1.379,1.3863,1.3863,1.3992,1.4065,1.4137,1.4137,1.4065,1.387,1.4258,1.4509,1.4866,1.5257,1.5636,1.5955,1.6241,1.639,1.6495,1.6569,1.6637,1.67,1.684,1.6716,1.6521,1.6173,1.5977,1.5893,1.5859,1.6123,1.6542,1.6751,1.6959,1.7235,1.7442,1.7725,1.8008,1.8066,1.8192,1.0966,1.0921,1.1089,1.1176,1.117,1.1262,1.1354,1.1527,1.1613,1.1699,1.1785,1.1871,1.1871,1.1957,1.1957,1.1952,1.2043,1.2043,1.2123,1.2283,1.2454,1.2534,1.254,1.254,1.2448,1.2619,1.2881,1.3137,1.3228,1.3561,1.373,1.3906,1.4314,1.4566,1.4817,1.5159,1.534,1.5506,1.5741,1.5736,1.5467,1.5289,1.5273,1.5033,1.5284,1.5497,1.5797,1.5929,1.6061,1.6061,1.5929,1.5876,1.5797,1.5797,1.5726,1.5718,1.5718,1.5726,1.5726,1.5726,1.5647,1.5647,1.5647,1.5584,1.5426,1.5426,1.5355,1.5275,1.5196,1.5275,1.5204,1.5204,1.5062,1.5062,1.5062,1.4991,1.4784,1.4497,1.4217,1.4137,1.4137,1.4137,1.4137,1.4209,1.4225,1.4183,1.4359,1.4703,1.5095,1.5514,1.5953,1.6445,1.6766,1.7017,1.7212,1.7375,1.7535,1.7658,1.7778,1.7782,1.7565,1.7347,1.7072,1.675,1.6342,1.6682,1.7097,1.7304,1.7442,1.7794,1.8134,1.8269,1.8472,1.8607,1.8818,1.1176,1.1181,1.1354,1.1527,1.1527,1.1613,1.1693,1.1871,1.1871,1.1866,1.1952,1.1957,1.2037,1.2203,1.2203,1.2203,1.2289,1.2375,1.2369,1.254,1.2705,1.279,1.2881,1.2796,1.2705,1.2796,1.2966,1.3143,1.3398,1.3561,1.3815,1.3984,1.4314,1.4573,1.4908,1.5159,1.5333,1.5582,1.5741,1.5863,1.5896,1.5482,1.5372,1.5411,1.553,1.5718,1.5797,1.6,1.6132,1.6132,1.614,1.607,1.6,1.6,1.5991,1.5824,1.5991,1.6,1.6,1.607,1.5991,1.6,1.6,1.6,1.585,1.5859,1.5709,1.5638,1.5568,1.5434,1.5355,1.5355,1.5355,1.5204,1.5196,1.5196,1.5196,1.4919,1.4705,1.4633,1.4633,1.4633,1.4633,1.4561,1.4561,1.4729,1.4737,1.5073,1.5478,1.5902,1.6313,1.674,1.7209,1.7553,1.7811,1.8112,1.8345,1.8585,1.8864,1.8806,1.8683,1.8369,1.8128,1.7719,1.7204,1.7254,1.7588,1.7725,1.793,1.8202,1.8472,1.8674,1.8875,1.9075,1.9274,1.144,1.144,1.1613,1.1791,1.1785,1.1871,1.2043,1.2032,1.2037,1.2123,1.2123,1.2123,1.2283,1.2363,1.2448,1.2534,1.2705,1.279,1.2875,1.2881,1.2881,1.2966,1.3137,1.3137,1.3137,1.3137,1.3222,1.3398,1.3652,1.3822,1.4068,1.4314,1.4482,1.4741,1.5082,1.5325,1.5484,1.565,1.5906,1.6059,1.6207,1.5843,1.5732,1.5715,1.5752,1.5797,1.5867,1.607,1.6202,1.6202,1.6342,1.6412,1.6412,1.6272,1.6184,1.5922,1.6105,1.6281,1.6368,1.636,1.6272,1.6272,1.6272,1.6272,1.6202,1.6132,1.6061,1.607,1.5929,1.5788,1.5647,1.5638,1.5568,1.5488,1.5409,1.5346,1.5346,1.5346,1.5338,1.5125,1.4982,1.4991,1.5062,1.4991,1.5125,1.5204,1.5284,1.5358,1.5769,1.611,1.653,1.6767,1.7132,1.7683,1.8048,1.8656,1.8975,1.9292,1.9659,1.9724,1.9602,1.9456,1.9072,1.8495,1.817,1.8134,1.8183,1.8337,1.8539,1.8674,1.8942,1.9274,1.9407,1.9539,1.9736,1.1866,1.1866,1.1957,1.1957,1.1952,1.1952,1.21,1.2283,1.2339,1.2454,1.2522,1.2625,1.2619,1.2619,1.2619,1.279,1.2966,1.3137,1.3222,1.3228,1.3228,1.3313,1.3313,1.3392,1.3313,1.3398,1.3483,1.3652,1.373,1.4068,1.423,1.4398,1.4741,1.4999,1.5166,1.5409,1.5567,1.5688,1.5843,1.5825,1.5707,1.5721,1.5733,1.5811,1.5814,1.5938,1.607,1.6202,1.6342,1.6542,1.67,1.6769,1.676,1.6551,1.6342,1.6263,1.6263,1.6508,1.6684,1.6517,1.6351,1.6272,1.6342,1.6342,1.6342,1.6272,1.6272,1.6272,1.6211,1.6211,1.6132,1.6061,1.6132,1.6061,1.6061,1.5991,1.6061,1.5982,1.5771,1.5417,1.5346,1.5267,1.5417,1.5417,1.5488,1.5488,1.5568,1.5638,1.5837,1.6148,1.6478,1.6684,1.6923,1.7591,1.8175,1.8916,1.9511,1.9775,2.0079,2.0469,2.037,2.0351,2.0072,1.9615,1.9154,1.8942,1.8985,1.9101,1.9152,1.9274,1.9539,1.9802,1.9933,2.0009,2.0194,1.1957,1.2043,1.2118,1.2122,1.2018,1.2091,1.2176,1.2165,1.2272,1.2506,1.2716,1.2808,1.296,1.3052,1.3052,1.3137,1.3222,1.3313,1.3398,1.3398,1.3398,1.3483,1.3568,1.3561,1.3652,1.3737,1.3828,1.3822,1.373,1.3899,1.423,1.4398,1.4657,1.4831,1.509,1.5249,1.5567,1.5659,1.5567,1.5385,1.5234,1.5412,1.5635,1.5899,1.5955,1.607,1.6211,1.6403,1.6542,1.6751,1.6968,1.7107,1.7116,1.7047,1.6839,1.663,1.663,1.6709,1.6885,1.6718,1.6621,1.663,1.663,1.6621,1.6551,1.6542,1.6412,1.6342,1.6272,1.6272,1.6272,1.6342,1.6272,1.6272,1.6272,1.6342,1.6272,1.6272,1.6061,1.5771,1.5842,1.5842,1.5842,1.5842,1.5842,1.5842,1.585,1.5912,1.6053,1.6351,1.6723,1.7099,1.746,1.8035,1.8685,1.9278,1.9899,2.0227,2.0566,2.0951,2.1191,2.122,2.1145,2.0948,2.0488,2.0017,1.9635,1.9613,1.982,1.9889,2.0074,2.0205,2.0335,2.0464,2.0658,1.2095,1.2049,1.2292,1.2218,1.2011,1.2234,1.2119,1.2073,1.2225,1.248,1.2694,1.2918,1.3128,1.3322,1.3366,1.3483,1.3476,1.3483,1.3568,1.3574,1.3568,1.3652,1.3737,1.3822,1.3913,1.3997,1.4004,1.3997,1.3913,1.3899,1.4153,1.4398,1.4482,1.4741,1.509,1.5333,1.5477,1.5465,1.5395,1.5113,1.5085,1.5235,1.5672,1.614,1.6167,1.6132,1.6272,1.6473,1.6682,1.6899,1.7107,1.7235,1.7461,1.7461,1.7323,1.7047,1.7056,1.7047,1.7047,1.7056,1.7047,1.7056,1.6978,1.6978,1.6899,1.6751,1.6612,1.6482,1.6412,1.6491,1.6482,1.6412,1.6412,1.6421,1.6421,1.6412,1.6482,1.6482,1.6482,1.6412,1.6482,1.6412,1.6333,1.6263,1.6193,1.6333,1.6412,1.6542,1.6612,1.689,1.7232,1.7713,1.8209,1.8768,1.9267,1.9644,2.0133,2.0517,2.0998,2.1411,2.1751,2.2018,2.2029,2.1991,2.168,2.1203,2.0698,2.0243,2.0402,2.0532,2.0509,2.0593,2.0862,2.099,2.1053,1.2487,1.2284,1.2278,1.2128,1.1986,1.2123,1.2191,1.2148,1.2338,1.2529,1.2548,1.2896,1.3035,1.3182,1.3458,1.3626,1.3737,1.3828,1.3913,1.3913,1.3913,1.3997,1.3997,1.4082,1.4082,1.4166,1.4166,1.4088,1.4082,1.4237,1.4398,1.4657,1.4915,1.5151,1.5274,1.5418,1.5584,1.5549,1.5466,1.5216,1.5106,1.5262,1.5655,1.6008,1.6149,1.6202,1.6342,1.6542,1.6751,1.6968,1.7107,1.7314,1.747,1.7461,1.7461,1.747,1.7401,1.7392,1.7401,1.7401,1.7332,1.7332,1.7392,1.7323,1.7176,1.7038,1.6899,1.683,1.6839,1.6848,1.6839,1.683,1.6839,1.6839,1.6839,1.6839,1.6839,1.6839,1.6839,1.6899,1.6899,1.683,1.6682,1.6682,1.6612,1.683,1.6968,1.7028,1.7166,1.7373,1.7647,1.8123,1.8457,1.9002,1.9503,1.9899,2.042,2.0782,2.1314,2.1839,2.22,2.2595,2.2947,2.2871,2.2573,2.2246,2.1652,2.133,2.1194,2.1144,2.1141,2.1296,2.1498,2.1572,2.1458,1.2671,1.2465,1.24,1.2258,1.2029,1.2089,1.2073,1.1979,1.2176,1.2323,1.2537,1.2782,1.3076,1.3307,1.3539,1.3761,1.3873,1.4082,1.4088,1.4088,1.4088,1.4166,1.4243,1.4328,1.4328,1.4412,1.4412,1.4489,1.4489,1.4482,1.4573,1.4915,1.5068,1.5126,1.5278,1.5375,1.5423,1.5458,1.5349,1.5224,1.5193,1.5267,1.563,1.6211,1.6202,1.6342,1.6551,1.6691,1.6899,1.7185,1.7323,1.7529,1.7745,1.7813,1.7813,1.7813,1.7803,1.7764,1.7793,1.7627,1.7539,1.747,1.747,1.7461,1.7392,1.7323,1.7263,1.7263,1.7263,1.7263,1.7194,1.7254,1.7254,1.7194,1.7194,1.7194,1.7185,1.7263,1.7263,1.7323,1.7401,1.737,1.7348,1.7394,1.7348,1.7245,1.7382,1.7501,1.7647,1.7852,1.8124,1.8444,1.8751,1.9,1.9551,2.0006,2.0739,2.1195,2.1688,2.2164,2.2665,2.3125,2.3412,2.3666,2.353,2.3092,2.2594,2.232,2.218,2.2024,2.1864,2.1963,2.1985,2.1733,2.1753,1.2694,1.2507,1.246,1.222,1.2043,1.2037,1.1992,1.1832,1.2017,1.2259,1.249,1.2726,1.3101,1.3433,1.3539,1.3781,1.4045,1.4126,1.4243,1.425,1.425,1.4328,1.4405,1.4482,1.4573,1.4824,1.4748,1.4824,1.4873,1.4823,1.4878,1.5151,1.5119,1.5249,1.5212,1.5223,1.52,1.5265,1.5229,1.5203,1.5254,1.5346,1.5709,1.6132,1.6342,1.6551,1.6839,1.6968,1.7176,1.7401,1.7529,1.7666,1.7872,1.794,1.794,1.794,1.794,1.7959,1.792,1.7773,1.7676,1.7608,1.7529,1.7598,1.7529,1.7529,1.7461,1.747,1.747,1.7461,1.747,1.747,1.747,1.7392,1.7461,1.7539,1.7548,1.7577,1.7655,1.7714,1.7841,1.8183,1.8162,1.829,1.8133,1.7861,1.7794,1.794,1.8173,1.8484,1.8667,1.9024,1.9256,1.95,1.9975,2.0477,2.1064,2.1631,2.2127,2.2573,2.3056,2.352,2.3875,2.4043,2.4261,2.4234,2.3851,2.3489,2.3138,2.2854,2.2592,2.2474,2.236,2.2159,2.2222,1.2441,1.2357,1.2261,1.2018,1.1751,1.1961,1.2029,1.2003,1.2183,1.2284,1.2412,1.2645,1.2953,1.3227,1.3521,1.3743,1.3995,1.4268,1.442,1.4538,1.4657,1.4657,1.4734,1.4817,1.4908,1.5082,1.5115,1.5267,1.5389,1.5205,1.5234,1.5321,1.522,1.5373,1.5329,1.5133,1.5126,1.5205,1.5195,1.5328,1.5522,1.5647,1.5929,1.6272,1.6473,1.6682,1.6908,1.7107,1.7245,1.7539,1.7588,1.7725,1.794,1.8008,1.8076,1.8076,1.8076,1.8095,1.8095,1.8027,1.7949,1.794,1.7794,1.7725,1.7716,1.7598,1.7539,1.7529,1.7598,1.7577,1.7558,1.748,1.7712,1.7856,1.7992,1.8052,1.8074,1.7919,1.7997,1.8125,1.837,1.8696,1.9123,1.9224,1.9074,1.8735,1.8932,1.901,1.9182,1.9396,1.9494,1.9663,1.9886,2.0191,2.0739,2.1224,2.176,2.2302,2.2838,2.3067,2.3367,2.3761,2.4394,2.455,2.4754,2.4921,2.5063,2.4551,2.4053,2.3649,2.3406,2.3346,2.3236,2.3107,2.3159,1.2872,1.2709,1.2628,1.2412,1.2077,1.215,1.215,1.2224,1.2305,1.2372,1.2459,1.2662,1.2872,1.3208,1.3331,1.3595,1.386,1.4232,1.4419,1.4703,1.4781,1.5054,1.5235,1.5304,1.5492,1.5613,1.5494,1.5449,1.5551,1.5423,1.5347,1.537,1.5215,1.5118,1.508,1.5083,1.5104,1.5195,1.5303,1.5505,1.5655,1.5859,1.614,1.6473,1.6691,1.6899,1.7107,1.7245,1.7451,1.7588,1.7706,1.7852,1.8008,1.8144,1.8221,1.8221,1.8289,1.8289,1.8299,1.8154,1.8008,1.7998,1.793,1.7862,1.792,1.7813,1.7813,1.7813,1.7861,1.7967,1.817,1.8209,1.8286,1.855,1.8679,1.8701,1.8713,1.8655,1.8854,1.9143,1.9223,1.9393,1.9837,2.0215,1.995,1.9737,1.9955,2.0159,2.0191,2.0354,2.0493,2.0606,2.0796,2.1152,2.171,2.2071,2.2389,2.296,2.356,2.3793,2.399,2.4543,2.4969,2.5111,2.5265,2.537,2.5451,2.5341,2.4969,2.4534,2.4371,2.4293,2.4169,2.4005,2.4119,1.3089,1.2907,1.29,1.2753,1.2526,1.2452,1.2452,1.2445,1.2452,1.2526,1.2673,1.2686,1.2931,1.3194,1.3424,1.362,1.3959,1.4295,1.4504,1.4816,1.5072,1.5405,1.5591,1.5658,1.571,1.594,1.571,1.5518,1.5645,1.5482,1.5441,1.5378,1.5192,1.5095,1.5122,1.5057,1.5141,1.5355,1.5568,1.578,1.5929,1.6211,1.6421,1.676,1.6968,1.7107,1.7314,1.7529,1.7666,1.7794,1.792,1.8066,1.8134,1.8279,1.8357,1.8424,1.8502,1.858,1.859,1.8434,1.8144,1.8212,1.8212,1.8144,1.8154,1.8252,1.8409,1.8409,1.8537,1.8636,1.8951,1.9051,1.909,1.9258,1.936,1.9402,1.9625,1.9656,1.995,2.0319,2.0442,2.0824,2.0937,2.1385,2.1047,2.0786,2.0555,2.0872,2.1149,2.1344,2.1526,2.1731,2.1879,2.2298,2.2811,2.2949,2.3202,2.3781,2.4319,2.4531,2.485,2.5276,2.5382,2.5394,2.5535,2.5758,2.5791,2.573,2.5571,2.535,2.5173,2.4969,2.4858,2.4666,2.483,1.2987,1.29,1.2966,1.29,1.2893,1.29,1.29,1.2826,1.282,1.29,1.2973,1.2973,1.3053,1.33,1.3568,1.3834,1.417,1.4535,1.4777,1.4922,1.5264,1.5473,1.5583,1.5671,1.5743,1.5833,1.567,1.5551,1.5682,1.549,1.5428,1.5397,1.5341,1.534,1.5463,1.5466,1.5584,1.5797,1.6,1.6132,1.6342,1.663,1.6839,1.6978,1.7254,1.7451,1.7598,1.7803,1.794,1.8066,1.8269,1.8347,1.8414,1.8482,1.8559,1.8637,1.8559,1.8647,1.8745,1.858,1.8522,1.8454,1.8474,1.8544,1.8622,1.8833,1.9123,1.9074,1.9364,1.9686,1.9817,1.9837,1.9897,2.0101,2.0151,2.0346,2.0604,2.072,2.1021,2.1586,2.2206,2.2618,2.2606,2.2541,2.2223,2.1876,2.1458,2.1522,2.2004,2.2394,2.2705,2.2878,2.304,2.3329,2.3723,2.3758,2.4061,2.4637,2.5016,2.5228,2.538,2.5581,2.5676,2.5676,2.5816,2.6107,2.6188,2.6201,2.6108,2.5959,2.5654,2.5431,2.5423,2.549,2.5645,1.3557,1.3702,1.3695,1.3695,1.3622,1.3119,1.29,1.29,1.3046,1.3273,1.3499,1.3499,1.363,1.3755,1.3865,1.4035,1.4235,1.4501,1.4736,1.501,1.5327,1.5514,1.5631,1.5709,1.5787,1.5854,1.5691,1.549,1.5699,1.5536,1.5363,1.532,1.5526,1.566,1.564,1.5681,1.5797,1.614,1.6342,1.6551,1.67,1.6968,1.7176,1.7254,1.752,1.7725,1.7803,1.8066,1.8202,1.8289,1.8502,1.86,1.861,1.8667,1.8735,1.8792,1.8771,1.9116,1.9291,1.9315,1.9104,1.8907,1.8841,1.8982,1.9042,1.9384,1.9565,1.9737,1.9981,2.0204,2.0449,2.051,2.0706,2.1182,2.1401,2.1673,2.1907,2.1912,2.2114,2.2873,2.3506,2.3632,2.37,2.3641,2.3379,2.3257,2.2932,2.2921,2.3319,2.3635,2.3964,2.4107,2.4272,2.4413,2.4578,2.4566,2.4788,2.5238,2.5652,2.5873,2.5968,2.6037,2.6107,2.6176,2.6314,2.6452,2.6465,2.6546,2.6671,2.6531,2.6261,2.6118,2.6118,2.6304,2.6553,1.4145,1.4281,1.4281,1.4281,1.4201,1.355,1.3331,1.3339,1.3557,1.3783,1.4008,1.408,1.4145,1.4353,1.4353,1.4489,1.4521,1.4702,1.4836,1.503,1.5356,1.5551,1.5651,1.5718,1.5726,1.578,1.5634,1.5414,1.5486,1.548,1.553,1.5743,1.585,1.6008,1.6017,1.607,1.614,1.6412,1.6542,1.6751,1.7028,1.7245,1.7451,1.7588,1.7794,1.7998,1.8134,1.8337,1.8549,1.8657,1.8816,1.8907,1.8995,1.9175,1.9216,1.9305,1.9325,1.9637,1.9903,1.9986,1.9712,1.9351,1.9514,1.9615,1.9727,2.0053,2.0298,2.0472,2.0481,2.0864,2.1269,2.1342,2.153,2.2004,2.2218,2.2463,2.2892,2.2885,2.3371,2.4157,2.4777,2.4792,2.479,2.468,2.4511,2.4538,2.4487,2.4476,2.4418,2.4562,2.4778,2.4826,2.5028,2.5075,2.5192,2.5286,2.5521,2.5968,2.6119,2.6258,2.6396,2.6452,2.6602,2.6683,2.6739,2.6739,2.6807,2.6875,2.6875,2.6943,2.6867,2.6786,2.6807,2.6943,2.7024,1.4497,1.4641,1.4641,1.4641,1.4569,1.4274,1.4129,1.4129,1.4281,1.4425,1.4425,1.4569,1.4713,1.4864,1.4864,1.4927,1.5062,1.5095,1.5111,1.5256,1.5389,1.5544,1.5585,1.5577,1.5659,1.5625,1.5541,1.5471,1.53,1.5655,1.5929,1.614,1.6272,1.6412,1.6412,1.6482,1.6551,1.6682,1.6899,1.7107,1.7314,1.751,1.7647,1.7852,1.8056,1.8202,1.8424,1.8677,1.8832,1.91,1.9404,1.9627,1.9903,2.0182,2.0144,2.0104,1.9961,2.0165,2.0339,2.0441,2.0524,2.038,2.0421,2.0493,2.0565,2.0772,2.1073,2.1365,2.1544,2.1913,2.2274,2.2242,2.2307,2.2478,2.2628,2.3015,2.359,2.405,2.4667,2.538,2.6057,2.629,2.6184,2.6012,2.5651,2.5439,2.5336,2.5195,2.5123,2.4969,2.5123,2.5265,2.5394,2.5594,2.5746,2.5886,2.6107,2.6327,2.6452,2.6589,2.6726,2.6794,2.6807,2.6888,2.6956,2.7024,2.7079,2.7079,2.7079,2.7079,2.7201,2.7134,2.7079,2.7079,2.7146,1.4856,1.4991,1.4991,1.5062,1.5062,1.507,1.4919,1.4713,1.4721,1.4856,1.4991,1.4991,1.5133,1.5133,1.5141,1.5204,1.5204,1.5196,1.5204,1.527,1.5416,1.5361,1.5369,1.5466,1.553,1.5648,1.5715,1.5709,1.5929,1.614,1.614,1.6281,1.663,1.6769,1.6908,1.7047,1.7038,1.7107,1.7185,1.7382,1.751,1.7647,1.7852,1.8056,1.8319,1.8454,1.8697,1.9097,1.9325,1.9576,1.9937,2.0224,2.0265,2.0358,2.0318,2.0329,2.0462,2.074,2.0845,2.0917,2.1084,2.1386,2.1533,2.1387,2.1387,2.1481,2.1849,2.2062,2.2168,2.236,2.2628,2.2703,2.2777,2.2927,2.3174,2.3698,2.4216,2.4926,2.5577,2.6439,2.7151,2.7325,2.7266,2.7049,2.6657,2.6308,2.6082,2.5887,2.5739,2.5572,2.5535,2.5606,2.5816,2.5955,2.6151,2.6289,2.6521,2.6739,2.6794,2.6794,2.6863,2.6943,2.7024,2.7092,2.7146,2.7281,2.7335,2.7335,2.7335,2.7335,2.7403,2.7335,2.7281,2.7335,2.7335,1.5497,1.563,1.5621,1.563,1.563,1.578,1.5638,1.5434,1.5434,1.5426,1.5559,1.5638,1.563,1.563,1.563,1.57,1.57,1.5709,1.57,1.57,1.563,1.5726,1.5638,1.563,1.5797,1.5929,1.6,1.6061,1.6342,1.6491,1.656,1.6691,1.7047,1.7116,1.7185,1.7392,1.7442,1.7442,1.752,1.7588,1.7725,1.7852,1.8124,1.8319,1.8534,1.8859,1.9134,1.9581,1.9926,2.0089,2.0452,2.069,2.0762,2.0845,2.0979,2.1041,2.1156,2.1355,2.1501,2.1532,2.1784,2.2092,2.2252,2.2093,2.2009,2.2115,2.2307,2.2446,2.2531,2.2628,2.2777,2.3012,2.3161,2.3383,2.3843,2.4329,2.4955,2.5675,2.6551,2.7462,2.7867,2.8012,2.8035,2.7873,2.7617,2.7213,2.683,2.6565,2.6317,2.598,2.5955,2.6025,2.6233,2.6452,2.6577,2.6714,2.6794,2.6943,2.7011,2.7079,2.7146,2.7214,2.7281,2.7281,2.7348,2.7403,2.7536,2.759,2.7577,2.7656,2.7669,2.7669,2.7669,2.759,2.7656,1.6202,1.6272,1.6272,1.6272,1.6342,1.6342,1.6342,1.6342,1.6272,1.6132,1.6132,1.6211,1.6202,1.6132,1.6132,1.6132,1.6132,1.6132,1.6132,1.6272,1.6132,1.6132,1.6132,1.6272,1.6202,1.6272,1.6412,1.6491,1.656,1.6769,1.7038,1.7235,1.7392,1.7461,1.7461,1.7725,1.7784,1.7696,1.7774,1.7852,1.794,1.8076,1.8397,1.8564,1.9041,1.9553,1.9725,2.0031,2.0483,2.0627,2.0855,2.1135,2.128,2.152,2.1631,2.1759,2.1761,2.1858,2.1964,2.1975,2.2157,2.2381,2.2478,2.2585,2.2638,2.2478,2.2542,2.2777,2.2852,2.3001,2.3161,2.3224,2.3372,2.3801,2.4209,2.4842,2.5574,2.6372,2.7328,2.8119,2.8395,2.8548,2.8724,2.8558,2.8353,2.794,2.7601,2.7314,2.6943,2.6565,2.644,2.644,2.6645,2.6794,2.6863,2.693,2.7011,2.7146,2.7214,2.7281,2.7281,2.7403,2.7536,2.7536,2.7536,2.7603,2.7669,2.7723,2.7789,2.7855,2.7934,2.8013,2.8,2.7987,2.7921,1.6272,1.6272,1.6272,1.6403,1.6542,1.6691,1.683,1.6959,1.7116,1.676,1.6351,1.6272,1.6351,1.6421,1.6412,1.6412,1.6342,1.6491,1.6342,1.6342,1.6412,1.6482,1.6342,1.6482,1.6551,1.6691,1.676,1.6908,1.7047,1.7254,1.7323,1.7451,1.7588,1.7725,1.7725,1.792,1.8056,1.794,1.8183,1.8291,1.8262,1.8705,1.9062,1.9322,1.9726,2.0113,2.0267,2.0617,2.0876,2.1031,2.1414,2.1665,2.1878,2.1983,2.209,2.2252,2.2252,2.2252,2.2327,2.2402,2.2553,2.2767,2.2927,2.3075,2.3075,2.2777,2.2777,2.3001,2.3235,2.3309,2.3457,2.353,2.3734,2.4147,2.462,2.5414,2.6153,2.7132,2.8136,2.8493,2.8803,2.9028,2.9225,2.922,2.9087,2.8725,2.8346,2.802,2.7621,2.7306,2.6901,2.693,2.7053,2.7134,2.7201,2.7201,2.7268,2.7335,2.7403,2.7469,2.7469,2.7603,2.7723,2.7789,2.7868,2.7802,2.7881,2.7947,2.8,2.8066,2.8118,2.8262,2.8392,2.83,2.8183,1.683,1.683,1.6839,1.6899,1.7038,1.7116,1.7245,1.7323,1.747,1.7254,1.6899,1.6839,1.6839,1.6839,1.683,1.676,1.676,1.6839,1.6908,1.6839,1.6769,1.6899,1.683,1.676,1.6968,1.7116,1.7185,1.7263,1.7539,1.7598,1.7588,1.7657,1.7774,1.7978,1.7978,1.8202,1.8329,1.8164,1.8624,1.8901,1.8903,1.9203,1.9525,1.9808,2.0227,2.0607,2.0813,2.1145,2.1426,2.1584,2.1889,2.2048,2.2145,2.2252,2.2338,2.2488,2.2553,2.2628,2.2703,2.2852,2.2927,2.315,2.3298,2.3446,2.3593,2.3372,2.3224,2.3446,2.3383,2.353,2.3824,2.3897,2.4356,2.4807,2.5431,2.6183,2.7055,2.8089,2.873,2.8991,2.9197,2.9353,2.9574,2.9716,2.9542,2.9225,2.889,2.8439,2.8156,2.7806,2.7491,2.7348,2.7403,2.7403,2.7403,2.7403,2.7469,2.7536,2.7656,2.7736,2.7736,2.7868,2.7921,2.8,2.8,2.8013,2.8079,2.821,2.8276,2.8327,2.8392,2.8509,2.8573,2.8688,2.8638,1.747,1.7539,1.7461,1.7539,1.7539,1.7529,1.7529,1.7529,1.7608,1.7608,1.7539,1.7529,1.7539,1.7539,1.7461,1.7461,1.7392,1.7254,1.7401,1.7401,1.7392,1.7323,1.7323,1.7392,1.7392,1.7461,1.7529,1.7598,1.7745,1.7794,1.7852,1.7852,1.8056,1.8337,1.8347,1.8444,1.8514,1.8606,1.9013,1.9646,1.9727,1.9768,1.9992,2.0442,2.0865,2.1176,2.1342,2.1582,2.2004,2.209,2.2295,2.2392,2.2553,2.2553,2.2703,2.2852,2.2938,2.3075,2.3224,2.3298,2.3446,2.3593,2.3666,2.3813,2.3959,2.3959,2.3886,2.3886,2.3813,2.3897,2.4127,2.4403,2.4888,2.5413,2.6127,2.6795,2.7866,2.8773,2.9069,2.9394,2.9574,2.9664,2.9831,3.0075,2.9961,2.9625,2.9233,2.8763,2.8373,2.8033,2.7748,2.7616,2.7669,2.7669,2.7603,2.7603,2.7736,2.7736,2.7868,2.7934,2.8,2.8052,2.8118,2.8131,2.8131,2.8276,2.8327,2.8392,2.8522,2.8651,2.8716,2.878,2.883,2.8958,2.9035,1.7588,1.7461,1.7461,1.7598,1.7647,1.7638,1.7725,1.7881,1.7881,1.7881,1.7881,1.7872,1.7735,1.7461,1.7461,1.7529,1.7598,1.7529,1.7529,1.7461,1.7529,1.7529,1.7529,1.7666,1.7588,1.7657,1.7862,1.7998,1.8008,1.8134,1.8202,1.8269,1.8337,1.8482,1.8482,1.861,1.8741,1.8874,1.9565,2.0336,2.1271,2.1167,2.0813,2.1145,2.1595,2.1826,2.2017,2.2124,2.2241,2.2402,2.2563,2.2703,2.2852,2.3001,2.315,2.3298,2.3372,2.353,2.3666,2.3751,2.3897,2.4043,2.4189,2.4334,2.4478,2.4634,2.4622,2.4671,2.4611,2.449,2.4646,2.4706,2.505,2.572,2.6407,2.7221,2.8182,2.8867,2.9307,2.9589,2.9793,2.9883,3.0139,3.0305,3.0444,3.0041,2.9587,2.9151,2.9005,2.8554,2.7947,2.7947,2.7947,2.7868,2.7802,2.7868,2.7947,2.8013,2.8066,2.8131,2.8197,2.8183,2.8249,2.8314,2.8457,2.8522,2.8587,2.8638,2.878,2.8908,2.8972,2.9035,2.9162,2.9226,2.9338]},{"header":{"parameterUnit":"m.s-1","parameterCategory":1,"la1":31.0,"la2":29.5877,"lo1":-88.7671,"lo2":-86.6584,"dy":0.0162,"dx":0.0185,"nx":115,"ny":88,"refTime":"2023-08-16T00:00:00:Z","depth":0,"parameterNumber":3,"parameterNumberName":"V-component_of_WINDS"},"data":[0.0,0.0,0.0,0.0,0.0,0.0,0.0,0.0,0.0,0.0,0.0,0.0,0.0,0.0,0.0,0.0,0.0,0.0,0.0,0.0,0.0,0.0,0.0,0.0,0.0,0.0,0.0,0.0,0.0,0.0,0.0,0.0,0.0,0.0,0.0,0.0,0.0,0.0,0.0,0.0,0.0,0.0,0.0,0.0,0.0,0.0,0.0,0.0,0.0,0.0,0.0,0.0,0.0,0.0,0.0,0.0,0.0,0.0,0.0,0.0,0.0,0.0,0.0,0.0,0.0,0.0,0.0,0.0,0.0,0.0,0.0,0.0,0.0,0.0,0.0,0.0,0.0,0.0,0.0,0.0,0.0,0.0,0.0,0.0,0.0,0.0,0.0,0.0,0.0,0.0,0.0,0.0,0.0,0.0,0.0,0.0,0.0,0.0,0.0,0.0,0.0,0.0,0.0,0.0,0.0,0.0,0.0,0.0,0.0,0.0,0.0,0.0,0.0,0.0,0.0,0.0,0.0,0.0,0.0,0.0,0.0,0.0,0.0,0.0,0.0,0.0,0.0,0.0,0.0,0.0,0.0,0.0,0.0,0.0,0.0,0.0,0.0,0.0,0.0,0.0,0.0,0.0,0.0,0.0,0.0,0.0,0.0,0.0,0.0,0.0,0.0,0.0,0.0,0.0,0.0,0.0,0.0,0.0,0.0,0.0,0.0,0.0,0.0,0.0,0.0,0.0,0.0,0.0,0.0,0.0,0.0,0.0,0.0,0.0,0.0,0.0,0.0,0.0,0.0,0.0,0.0,0.0,0.0,0.0,0.0,0.0,0.0,0.0,0.0,0.0,0.0,0.0,0.0,0.0,0.0,0.0,0.0,0.0,0.0,0.0,0.0,0.0,0.0,0.0,0.0,0.0,0.0,0.0,0.0,0.0,0.0,0.0,0.0,0.0,0.0,0.0,0.0,0.0,0.0,0.0,0.0,0.0,0.0,0.0,0.0,0.0,0.0,0.0,0.0,0.0,0.0,0.0,0.0,0.0,0.0,0.0,0.0,0.0,0.0,0.0,0.0,0.0,0.0,0.0,0.0,0.0,0.0,0.0,0.0,0.0,0.0,0.0,0.0,0.0,0.0,0.0,0.0,0.0,0.0,0.0,0.0,0.0,0.0,0.0,0.0,0.0,0.0,0.0,0.0,0.0,0.0,0.0,0.0,0.0,0.0,0.0,0.0,0.0,0.0,0.0,0.0,0.0,0.0,0.0,0.0,0.0,0.0,0.0,0.0,0.0,0.0,0.0,0.0,0.0,0.0,0.0,0.0,0.0,0.0,0.0,0.0,0.0,0.0,0.0,0.0,0.0,0.0,0.0,0.0,0.0,0.0,0.0,0.0,0.0,0.0,0.0,0.0,0.0,0.0,0.0,0.0,0.0,0.0,0.0,0.0,0.0,0.0,0.0,0.0,0.0,0.0,0.0,0.0,0.0,0.0,0.0,0.0,0.0,0.0,0.0,0.0,0.0,0.0,0.0,0.0,0.0,0.0,0.0,0.0,0.0,0.0,0.0,0.0,0.0,0.0,0.0,0.0,0.0,0.0,0.0,0.0,0.0,0.0,0.0,0.0,0.0,0.0,0.0,0.0,0.0,0.0,0.0,0.0,0.0,0.0,0.0,0.0,0.0,0.0,0.0,0.0,0.0,0.0,0.0,0.0,0.0,0.0,0.0,0.0,0.0,0.0,0.0,0.0,0.0,0.0,0.0,0.0,0.0,0.0,0.0,0.0,0.0,0.0,0.0,0.0,0.0,0.0,0.0,0.0,0.0,0.0,0.0,0.0,0.0,0.0,0.0,0.0,0.0,0.0,0.0,0.0,0.0,0.0,0.0,0.0,0.0,0.0,0.0,0.0,0.0,0.0,0.0,0.0,0.0,0.0,0.0,0.0,0.0,0.0,0.0,0.0,0.0,0.0,0.0,0.0,0.0,0.0,0.0,0.0,0.0,0.0,0.0,0.0,0.0,0.0,0.0,0.0,0.0,0.0,0.0,0.0,0.0,0.0,0.0,0.0,0.0,0.0,0.0,0.0,0.0,0.0,0.0,0.0,0.0,0.0,0.0,0.0,0.0,0.0,0.0,0.0,0.0,0.0,0.0,0.0,0.0,0.0,0.0,0.0,0.0,0.0,0.0,0.0,0.0,0.0,0.0,0.0,0.0,0.0,0.0,0.0,0.0,0.0,0.0,0.0,0.0,0.0,0.0,0.0,0.0,0.0,0.0,0.0,0.0,0.0,0.0,0.0,0.0,0.0,0.0,0.0,0.0,0.0,0.0,0.0,0.0,0.0,0.0,0.0,0.0,0.0,0.0,0.0,0.0,0.0,0.0,0.0,0.0,0.0,0.0,0.0,0.0,0.0,0.0,0.0,0.0,0.0,0.0,0.0,0.0,0.0,0.0,0.0,0.0,0.0,0.0,0.0,0.0,0.0,0.0,0.0,0.0,0.0,0.0,0.0,0.0,0.0,0.0,0.0,0.0,0.0,0.0,0.0,0.0,0.0,0.0,0.0,0.0,0.0,0.0,0.0,0.0,0.0,0.0,0.0,0.0,0.0,0.0,0.0,0.0,0.0,0.0,0.0,0.0,0.0,0.0,0.0,0.0,0.0,0.0,0.0,0.0,0.0,0.0,0.0,0.0,0.0,0.0,0.0,0.0,0.0,0.0,0.0,0.0,0.0,0.0,0.0,0.0,0.0,0.0,0.0,0.0,0.0,0.0,0.0,0.0,0.0,0.0,0.0,0.0,0.0,0.0,0.0,0.0,0.0,0.0,0.0,0.0,0.0,0.0,0.0,0.0,0.0,0.0,0.0,0.0,0.0,0.0,0.0,0.0,0.0,0.0,0.0,0.0,0.0,0.0,0.0,0.0,0.0,0.0,0.0,0.0,0.0,0.0,0.0,0.0,0.0,0.0,0.0,0.0,0.0,0.0,0.0,0.0,0.0,0.0,0.0,0.0,0.0,0.0,0.0,0.0,0.0,0.0,0.0,0.0,0.0,0.0,0.0,0.0,0.0,0.0,0.0,0.0,0.0,0.0,0.0,0.0,0.0,0.0,0.0,0.0,0.0,0.0,0.0,0.0,0.0,0.0,0.0,0.0,0.0,0.0,0.0,0.0,0.0,0.0,0.0,0.0,0.0,0.0,0.0,0.0,0.0,0.0,0.0,0.0,0.0,0.0,0.0,0.0,0.0,0.0,0.0,0.0,0.0,0.0,0.0,0.0,0.0,0.0,0.0,0.0,0.0,0.0,0.0,0.0,0.0,0.0,0.0,0.0,0.0,0.0,0.0,0.0,0.0,0.0,0.0,0.0,0.0,0.0,0.0,0.0,0.0,0.0,0.0,0.0,0.0,0.0,0.0,0.0,0.0,0.0,0.0,0.0,0.0,0.0,0.0,0.0,0.0,0.0,0.0,0.0,0.0,0.0,0.0,0.0,0.0,0.0,0.0,0.0,0.0,0.0,0.0,0.0,0.0,0.0,0.0,0.0,0.0,0.0,0.0,0.0,0.0,0.0,0.0,0.0,0.0,0.0,0.0,0.0,0.0,0.0,0.0,0.0,0.0,0.0,0.0,0.0,0.0,0.0,0.0,0.0,0.0,0.0,0.0,0.0,0.0,0.0,0.0,0.0,0.0,0.0,0.0,0.0,0.0,0.0,0.0,0.0,0.0,0.0,0.0,0.0,0.0,0.0,0.0,0.0,0.0,0.0,0.0,0.0,0.0,0.0,0.0,0.0,0.0,0.0,0.0,0.0,0.0,0.0,0.0,0.0,0.0,0.0,0.0,0.0,0.0,0.0,0.0,0.0,0.0,0.0,0.0,0.0,0.0,0.0,0.0,0.0,0.0,0.0,0.0,0.0,0.0,0.0,0.0,0.0,0.0,0.0,0.0,0.0,0.0,0.0,0.0,0.0,0.0,0.0,0.0,0.0,0.0,0.0,0.0,0.0,0.0,0.0,0.0,0.0,0.0,0.0,0.0,0.0,0.0,0.0,0.0,0.0,0.0,0.0,0.0,0.0,0.0,0.0,0.0,0.0,0.0,0.0,0.0,0.0,0.0,0.0,0.0,0.0,0.0,0.0,0.0,0.0,0.0,0.0,0.0,0.0,0.0,0.0,0.0,0.0,0.0,0.0,0.0,0.0,0.0,0.0,0.0,0.0,0.0,0.0,0.0,0.0,0.0,0.0,0.0,0.0,0.0,0.0,0.0,0.0,0.0,0.0,0.0,0.0,-2.5505,0.0,0.0,0.0,0.0,0.0,0.0,0.0,0.0,0.0,0.0,0.0,0.0,0.0,0.0,0.0,0.0,0.0,0.0,0.0,0.0,0.0,0.0,0.0,0.0,0.0,0.0,0.0,0.0,0.0,0.0,0.0,0.0,0.0,0.0,0.0,0.0,0.0,0.0,0.0,0.0,0.0,0.0,0.0,0.0,0.0,0.0,0.0,0.0,0.0,0.0,0.0,0.0,0.0,0.0,0.0,0.0,0.0,0.0,0.0,0.0,0.0,0.0,0.0,0.0,0.0,0.0,0.0,0.0,0.0,0.0,0.0,0.0,0.0,0.0,0.0,0.0,0.0,0.0,0.0,0.0,0.0,0.0,0.0,0.0,0.0,0.0,0.0,0.0,0.0,0.0,0.0,0.0,0.0,0.0,0.0,0.0,0.0,0.0,0.0,0.0,0.0,0.0,0.0,0.0,0.0,0.0,0.0,0.0,0.0,0.0,-2.5466,-2.551,-2.5512,-2.5506,-2.555,0.0,0.0,0.0,0.0,0.0,0.0,0.0,0.0,0.0,0.0,0.0,0.0,0.0,0.0,0.0,0.0,0.0,0.0,0.0,0.0,0.0,0.0,0.0,0.0,0.0,0.0,0.0,0.0,0.0,0.0,0.0,0.0,0.0,0.0,0.0,0.0,0.0,0.0,0.0,0.0,0.0,0.0,0.0,0.0,0.0,0.0,0.0,0.0,0.0,0.0,0.0,0.0,0.0,0.0,0.0,0.0,0.0,0.0,0.0,0.0,0.0,0.0,0.0,0.0,0.0,0.0,0.0,0.0,0.0,0.0,0.0,0.0,0.0,0.0,0.0,0.0,0.0,0.0,0.0,0.0,0.0,0.0,0.0,0.0,0.0,0.0,0.0,0.0,0.0,0.0,0.0,0.0,0.0,0.0,0.0,0.0,0.0,0.0,0.0,0.0,0.0,0.0,0.0,0.0,0.0,0.0,0.0,0.0,0.0,0.0,0.0,0.0,-2.5521,-2.5549,-2.5604,0.0,0.0,0.0,0.0,0.0,0.0,0.0,0.0,0.0,0.0,0.0,0.0,0.0,0.0,0.0,0.0,0.0,0.0,0.0,0.0,0.0,0.0,0.0,0.0,0.0,0.0,0.0,0.0,0.0,0.0,0.0,0.0,0.0,0.0,0.0,0.0,0.0,0.0,0.0,0.0,0.0,0.0,0.0,0.0,0.0,0.0,0.0,0.0,0.0,0.0,0.0,0.0,0.0,0.0,0.0,0.0,0.0,0.0,0.0,0.0,0.0,0.0,0.0,0.0,0.0,0.0,0.0,0.0,0.0,0.0,0.0,0.0,0.0,0.0,0.0,0.0,0.0,0.0,0.0,0.0,0.0,0.0,0.0,0.0,0.0,0.0,0.0,0.0,0.0,0.0,0.0,0.0,0.0,0.0,0.0,0.0,0.0,0.0,0.0,0.0,0.0,0.0,0.0,0.0,0.0,0.0,0.0,0.0,0.0,0.0,-2.5595,-2.5586,-2.5571,0.0,-2.5605,0.0,0.0,0.0,0.0,0.0,0.0,0.0,0.0,0.0,0.0,0.0,0.0,0.0,0.0,0.0,0.0,0.0,0.0,0.0,0.0,0.0,0.0,0.0,0.0,0.0,0.0,0.0,0.0,0.0,0.0,0.0,0.0,0.0,0.0,0.0,0.0,0.0,0.0,0.0,0.0,0.0,0.0,0.0,0.0,0.0,0.0,0.0,0.0,0.0,0.0,0.0,0.0,0.0,0.0,0.0,0.0,0.0,0.0,0.0,0.0,0.0,0.0,0.0,0.0,0.0,0.0,0.0,0.0,0.0,0.0,0.0,0.0,0.0,0.0,0.0,0.0,0.0,0.0,0.0,0.0,0.0,0.0,0.0,0.0,0.0,0.0,0.0,0.0,0.0,0.0,0.0,0.0,0.0,0.0,0.0,0.0,0.0,0.0,0.0,0.0,0.0,0.0,0.0,0.0,0.0,0.0,0.0,0.0,0.0,0.0,-2.5615,-2.5668,-2.5652,-2.5652,0.0,0.0,0.0,0.0,0.0,0.0,0.0,0.0,0.0,0.0,0.0,0.0,0.0,0.0,0.0,0.0,0.0,0.0,0.0,0.0,0.0,0.0,0.0,0.0,0.0,0.0,0.0,0.0,0.0,0.0,0.0,0.0,0.0,0.0,0.0,0.0,0.0,0.0,0.0,0.0,0.0,0.0,0.0,0.0,0.0,0.0,0.0,0.0,0.0,0.0,0.0,0.0,0.0,0.0,0.0,0.0,0.0,0.0,0.0,0.0,0.0,0.0,0.0,0.0,0.0,0.0,0.0,0.0,0.0,0.0,0.0,0.0,0.0,0.0,0.0,0.0,0.0,0.0,0.0,0.0,0.0,0.0,0.0,0.0,0.0,0.0,0.0,0.0,0.0,0.0,0.0,0.0,0.0,0.0,0.0,0.0,0.0,0.0,0.0,0.0,0.0,0.0,0.0,0.0,0.0,0.0,0.0,0.0,0.0,0.0,-2.5618,-2.5667,-2.5693,-2.5693,-2.569,-2.569,0.0,0.0,0.0,0.0,0.0,0.0,0.0,0.0,0.0,0.0,0.0,0.0,0.0,0.0,0.0,0.0,0.0,0.0,0.0,0.0,0.0,0.0,0.0,0.0,0.0,0.0,0.0,0.0,0.0,0.0,0.0,0.0,0.0,0.0,0.0,0.0,0.0,0.0,0.0,0.0,0.0,0.0,0.0,0.0,0.0,0.0,0.0,0.0,0.0,0.0,0.0,0.0,0.0,0.0,0.0,0.0,0.0,0.0,0.0,0.0,0.0,0.0,0.0,0.0,0.0,0.0,0.0,0.0,0.0,0.0,0.0,0.0,0.0,0.0,0.0,0.0,0.0,0.0,0.0,0.0,0.0,0.0,0.0,0.0,0.0,0.0,0.0,0.0,0.0,0.0,0.0,0.0,0.0,0.0,0.0,0.0,0.0,0.0,0.0,0.0,0.0,0.0,0.0,0.0,0.0,0.0,0.0,0.0,-2.561,-2.5668,-2.5699,-2.5705,-2.5701,-2.5693,0.0,0.0,0.0,0.0,0.0,0.0,0.0,0.0,0.0,0.0,0.0,0.0,0.0,0.0,0.0,0.0,0.0,0.0,0.0,0.0,0.0,0.0,0.0,0.0,0.0,0.0,0.0,0.0,0.0,0.0,0.0,0.0,0.0,0.0,0.0,0.0,0.0,0.0,0.0,0.0,0.0,0.0,0.0,0.0,0.0,0.0,0.0,0.0,0.0,0.0,0.0,0.0,0.0,0.0,0.0,0.0,0.0,0.0,0.0,0.0,0.0,0.0,0.0,0.0,0.0,0.0,0.0,0.0,0.0,0.0,0.0,0.0,0.0,0.0,0.0,0.0,0.0,0.0,0.0,0.0,0.0,0.0,0.0,0.0,0.0,0.0,0.0,0.0,0.0,0.0,0.0,0.0,0.0,0.0,0.0,0.0,0.0,0.0,0.0,0.0,0.0,0.0,0.0,0.0,0.0,0.0,0.0,0.0,0.0,-2.5671,-2.5694,-2.5698,-2.5696,-2.5689,-2.5703,0.0,0.0,0.0,0.0,0.0,0.0,0.0,0.0,0.0,0.0,0.0,0.0,0.0,0.0,0.0,0.0,0.0,0.0,0.0,0.0,0.0,0.0,0.0,0.0,0.0,0.0,0.0,0.0,0.0,0.0,0.0,0.0,0.0,0.0,0.0,0.0,0.0,0.0,0.0,0.0,0.0,0.0,0.0,0.0,0.0,0.0,0.0,0.0,0.0,0.0,0.0,0.0,0.0,0.0,0.0,0.0,0.0,0.0,0.0,0.0,0.0,0.0,0.0,0.0,0.0,0.0,0.0,0.0,0.0,0.0,0.0,0.0,0.0,0.0,0.0,0.0,0.0,0.0,0.0,0.0,0.0,0.0,0.0,0.0,0.0,0.0,0.0,0.0,0.0,0.0,0.0,0.0,0.0,0.0,0.0,0.0,0.0,0.0,0.0,0.0,0.0,0.0,0.0,0.0,0.0,0.0,0.0,0.0,0.0,-2.5694,0.0,-2.5689,-2.5696,-2.5691,-2.5687,0.0,0.0,0.0,0.0,0.0,0.0,0.0,0.0,0.0,0.0,0.0,0.0,0.0,0.0,0.0,0.0,0.0,0.0,0.0,0.0,0.0,0.0,0.0,0.0,0.0,0.0,0.0,0.0,0.0,0.0,0.0,0.0,0.0,0.0,0.0,0.0,0.0,0.0,0.0,0.0,0.0,0.0,0.0,0.0,0.0,0.0,0.0,0.0,0.0,0.0,0.0,0.0,0.0,0.0,0.0,0.0,0.0,0.0,0.0,0.0,0.0,0.0,0.0,0.0,0.0,0.0,0.0,0.0,0.0,0.0,0.0,0.0,0.0,0.0,0.0,0.0,0.0,0.0,0.0,0.0,0.0,0.0,0.0,0.0,0.0,0.0,0.0,0.0,0.0,0.0,0.0,0.0,0.0,0.0,0.0,0.0,0.0,0.0,0.0,0.0,0.0,0.0,0.0,0.0,0.0,0.0,0.0,0.0,-2.5694,-2.5693,-2.5696,-2.5698,-2.5707,-2.5687,-2.5691,0.0,0.0,0.0,0.0,0.0,0.0,0.0,0.0,0.0,0.0,0.0,0.0,0.0,0.0,0.0,0.0,0.0,0.0,0.0,0.0,0.0,0.0,0.0,0.0,0.0,0.0,0.0,0.0,0.0,0.0,0.0,0.0,0.0,0.0,0.0,0.0,0.0,0.0,0.0,0.0,0.0,0.0,0.0,0.0,0.0,0.0,0.0,0.0,0.0,0.0,0.0,0.0,0.0,0.0,0.0,0.0,0.0,0.0,0.0,0.0,0.0,0.0,0.0,0.0,0.0,0.0,0.0,0.0,0.0,0.0,0.0,0.0,0.0,0.0,0.0,0.0,0.0,0.0,0.0,0.0,0.0,0.0,0.0,0.0,0.0,0.0,0.0,0.0,0.0,0.0,0.0,0.0,0.0,0.0,0.0,0.0,0.0,0.0,0.0,0.0,0.0,0.0,0.0,0.0,0.0,0.0,0.0,0.0,0.0,-2.5696,-2.5693,-2.569,-2.569,-2.5707,-2.5693,0.0,0.0,0.0,0.0,0.0,0.0,0.0,0.0,0.0,0.0,0.0,0.0,0.0,0.0,0.0,0.0,0.0,0.0,0.0,0.0,0.0,0.0,0.0,0.0,0.0,0.0,0.0,0.0,0.0,0.0,0.0,0.0,0.0,0.0,0.0,0.0,0.0,0.0,0.0,0.0,0.0,0.0,0.0,0.0,0.0,0.0,0.0,0.0,0.0,0.0,0.0,0.0,0.0,0.0,0.0,0.0,0.0,0.0,0.0,0.0,0.0,0.0,0.0,0.0,0.0,0.0,0.0,0.0,0.0,0.0,0.0,0.0,0.0,0.0,0.0,0.0,0.0,0.0,0.0,0.0,0.0,0.0,0.0,0.0,0.0,0.0,0.0,0.0,0.0,0.0,0.0,0.0,0.0,0.0,0.0,0.0,0.0,0.0,0.0,0.0,0.0,0.0,0.0,0.0,0.0,0.0,0.0,0.0,0.0,-2.5693,-2.569,-2.5707,-2.5697,-2.5698,-2.5687,-2.5703,0.0,0.0,0.0,0.0,0.0,0.0,0.0,0.0,0.0,0.0,0.0,0.0,0.0,0.0,0.0,0.0,0.0,0.0,0.0,0.0,0.0,0.0,0.0,0.0,0.0,0.0,0.0,0.0,0.0,0.0,0.0,0.0,0.0,0.0,0.0,0.0,0.0,0.0,0.0,0.0,0.0,0.0,0.0,0.0,0.0,0.0,0.0,0.0,0.0,0.0,0.0,0.0,0.0,0.0,0.0,0.0,0.0,0.0,0.0,0.0,0.0,0.0,0.0,0.0,0.0,0.0,0.0,0.0,0.0,0.0,0.0,0.0,0.0,0.0,0.0,0.0,0.0,0.0,0.0,0.0,0.0,0.0,0.0,0.0,0.0,0.0,0.0,0.0,0.0,0.0,0.0,0.0,0.0,0.0,0.0,0.0,0.0,0.0,0.0,0.0,0.0,0.0,0.0,0.0,0.0,0.0,0.0,0.0,-2.569,-2.5687,-2.5704,-2.5697,-2.5704,-2.569,0.0,0.0,0.0,0.0,0.0,0.0,0.0,0.0,0.0,0.0,0.0,0.0,0.0,0.0,0.0,0.0,0.0,0.0,0.0,0.0,0.0,0.0,0.0,0.0,0.0,0.0,0.0,0.0,0.0,0.0,0.0,0.0,0.0,0.0,0.0,0.0,0.0,0.0,0.0,0.0,0.0,0.0,0.0,0.0,0.0,0.0,0.0,0.0,0.0,0.0,0.0,0.0,0.0,0.0,0.0,0.0,0.0,0.0,0.0,0.0,0.0,0.0,0.0,0.0,0.0,0.0,0.0,0.0,0.0,0.0,0.0,0.0,0.0,0.0,0.0,0.0,0.0,0.0,0.0,0.0,0.0,0.0,0.0,0.0,0.0,0.0,0.0,0.0,0.0,0.0,0.0,0.0,0.0,0.0,0.0,0.0,0.0,0.0,0.0,0.0,0.0,0.0,0.0,0.0,0.0,0.0,0.0,0.0,0.0,-2.5697,-2.5691,-2.5707,-2.5703,-2.5694,-2.5701,0.0,0.0,0.0,0.0,0.0,0.0,0.0,0.0,0.0,0.0,0.0,0.0,0.0,0.0,0.0,0.0,0.0,0.0,0.0,0.0,0.0,0.0,0.0,0.0,0.0,0.0,0.0,0.0,0.0,0.0,0.0,0.0,0.0,0.0,0.0,0.0,0.0,0.0,0.0,0.0,0.0,0.0,0.0,0.0,0.0,0.0,0.0,0.0,0.0,0.0,0.0,0.0,0.0,0.0,0.0,0.0,0.0,0.0,0.0,0.0,0.0,0.0,0.0,0.0,0.0,0.0,0.0,0.0,0.0,0.0,0.0,0.0,0.0,0.0,0.0,0.0,0.0,0.0,0.0,0.0,0.0,0.0,0.0,0.0,0.0,0.0,0.0,0.0,0.0,0.0,0.0,0.0,0.0,0.0,0.0,0.0,0.0,0.0,0.0,0.0,0.0,0.0,0.0,0.0,0.0,0.0,0.0,0.0,-2.569,-2.5701,-2.5691,-2.5703,-2.5699,-2.5703,-2.5691,0.0,0.0,0.0,0.0,0.0,0.0,0.0,0.0,0.0,0.0,0.0,0.0,0.0,0.0,0.0,0.0,0.0,0.0,0.0,0.0,0.0,0.0,0.0,0.0,0.0,0.0,0.0,0.0,0.0,0.0,0.0,0.0,0.0,0.0,0.0,0.0,0.0,0.0,0.0,0.0,0.0,0.0,0.0,0.0,0.0,0.0,0.0,0.0,0.0,0.0,0.0,0.0,0.0,0.0,0.0,0.0,0.0,0.0,0.0,0.0,0.0,0.0,0.0,0.0,0.0,0.0,0.0,0.0,0.0,0.0,0.0,0.0,0.0,0.0,0.0,0.0,0.0,0.0,0.0,0.0,0.0,0.0,0.0,0.0,0.0,0.0,0.0,0.0,0.0,0.0,0.0,0.0,0.0,0.0,0.0,0.0,0.0,0.0,0.0,0.0,0.0,0.0,0.0,0.0,0.0,0.0,0.0,0.0,-2.5696,-2.569,-2.5697,-2.5687,-2.5699,-2.5699,-2.5691,0.0,0.0,0.0,0.0,0.0,0.0,0.0,0.0,0.0,0.0,0.0,0.0,0.0,0.0,0.0,0.0,0.0,0.0,0.0,0.0,0.0,0.0,0.0,0.0,0.0,0.0,0.0,0.0,0.0,0.0,0.0,0.0,0.0,0.0,0.0,0.0,0.0,0.0,0.0,0.0,0.0,0.0,0.0,0.0,0.0,0.0,0.0,0.0,0.0,0.0,0.0,0.0,0.0,0.0,0.0,0.0,0.0,0.0,0.0,0.0,0.0,0.0,0.0,0.0,0.0,0.0,0.0,0.0,0.0,0.0,0.0,0.0,0.0,0.0,0.0,0.0,0.0,0.0,0.0,0.0,0.0,0.0,0.0,0.0,0.0,0.0,0.0,0.0,0.0,0.0,0.0,0.0,0.0,0.0,0.0,0.0,0.0,0.0,0.0,0.0,0.0,0.0,0.0,0.0,0.0,0.0,0.0,0.0,-2.5696,-2.569,-2.5697,-2.5687,-2.5699,-2.5699,-2.5703,0.0,0.0,0.0,0.0,0.0,0.0,0.0,0.0,0.0,0.0,0.0,0.0,0.0,0.0,0.0,0.0,0.0,0.0,0.0,0.0,0.0,0.0,0.0,0.0,0.0,0.0,0.0,0.0,0.0,0.0,0.0,0.0,0.0,0.0,0.0,0.0,0.0,0.0,0.0,0.0,0.0,0.0,0.0,0.0,0.0,0.0,0.0,0.0,-2.6636,0.0,0.0,0.0,0.0,0.0,0.0,0.0,0.0,0.0,0.0,0.0,0.0,0.0,0.0,0.0,0.0,0.0,0.0,0.0,0.0,0.0,0.0,0.0,0.0,0.0,0.0,0.0,0.0,0.0,0.0,0.0,0.0,0.0,0.0,0.0,0.0,0.0,0.0,0.0,0.0,0.0,0.0,0.0,0.0,0.0,0.0,0.0,0.0,0.0,0.0,0.0,0.0,0.0,0.0,0.0,0.0,0.0,0.0,0.0,-2.5707,-2.5701,-2.5691,-2.5703,-2.5699,-2.5699,-2.5703,0.0,0.0,0.0,0.0,0.0,0.0,0.0,0.0,0.0,0.0,0.0,0.0,0.0,0.0,0.0,0.0,0.0,0.0,0.0,0.0,0.0,0.0,0.0,0.0,0.0,0.0,0.0,0.0,0.0,0.0,0.0,0.0,0.0,0.0,0.0,0.0,0.0,0.0,0.0,0.0,0.0,0.0,0.0,0.0,0.0,0.0,0.0,0.0,0.0,0.0,0.0,0.0,0.0,0.0,0.0,0.0,0.0,0.0,0.0,0.0,0.0,0.0,0.0,0.0,0.0,0.0,0.0,0.0,0.0,0.0,0.0,0.0,0.0,0.0,0.0,0.0,0.0,0.0,0.0,0.0,0.0,0.0,0.0,0.0,0.0,0.0,0.0,0.0,0.0,0.0,0.0,0.0,0.0,0.0,0.0,0.0,0.0,0.0,0.0,0.0,0.0,0.0,0.0,0.0,0.0,0.0,0.0,-2.5701,-2.5694,-2.5694,-2.5703,-2.5699,-2.5699,-2.5699,-2.5703,-2.5691,0.0,0.0,0.0,0.0,0.0,0.0,0.0,0.0,0.0,0.0,0.0,0.0,0.0,0.0,0.0,0.0,0.0,0.0,0.0,0.0,0.0,0.0,0.0,0.0,0.0,0.0,0.0,0.0,0.0,0.0,0.0,0.0,0.0,0.0,0.0,0.0,0.0,0.0,-2.5518,-2.557,0.0,0.0,0.0,0.0,0.0,0.0,0.0,0.0,-2.8456,0.0,0.0,0.0,0.0,0.0,0.0,0.0,0.0,0.0,0.0,0.0,0.0,0.0,0.0,0.0,0.0,0.0,0.0,0.0,0.0,0.0,0.0,0.0,0.0,0.0,0.0,0.0,0.0,0.0,0.0,0.0,0.0,0.0,0.0,0.0,0.0,0.0,0.0,0.0,0.0,0.0,0.0,0.0,0.0,0.0,0.0,0.0,0.0,0.0,0.0,0.0,0.0,0.0,0.0,0.0,0.0,-2.5698,-2.569,-2.5704,-2.5694,-2.5691,-2.5707,-2.5699,-2.5699,-2.5699,-2.5703,0.0,0.0,0.0,0.0,0.0,0.0,0.0,0.0,0.0,0.0,0.0,0.0,0.0,0.0,0.0,0.0,0.0,0.0,0.0,0.0,0.0,0.0,0.0,0.0,0.0,0.0,0.0,0.0,0.0,0.0,0.0,0.0,0.0,0.0,0.0,0.0,0.0,0.0,0.0,-2.5596,-2.5609,0.0,0.0,0.0,0.0,0.0,0.0,0.0,0.0,-3.0294,0.0,0.0,0.0,0.0,0.0,0.0,0.0,0.0,0.0,0.0,0.0,0.0,0.0,0.0,0.0,0.0,0.0,0.0,0.0,0.0,0.0,0.0,0.0,0.0,0.0,0.0,0.0,0.0,0.0,0.0,0.0,0.0,0.0,0.0,0.0,0.0,0.0,0.0,0.0,0.0,0.0,0.0,0.0,0.0,0.0,0.0,0.0,0.0,0.0,0.0,0.0,0.0,0.0,0.0,0.0,-2.5707,-2.5697,-2.5691,-2.5707,-2.5703,-2.5703,-2.5699,-2.5699,-2.5699,0.0,0.0,0.0,0.0,0.0,0.0,0.0,0.0,0.0,0.0,0.0,0.0,0.0,0.0,0.0,0.0,0.0,0.0,0.0,0.0,0.0,0.0,0.0,0.0,0.0,0.0,0.0,0.0,0.0,0.0,0.0,0.0,0.0,0.0,0.0,0.0,0.0,0.0,0.0,0.0,-2.5609,-2.5615,-2.5607,0.0,0.0,0.0,0.0,0.0,0.0,-3.0438,-3.0697,0.0,0.0,0.0,0.0,0.0,0.0,0.0,0.0,0.0,0.0,0.0,0.0,0.0,0.0,0.0,0.0,0.0,0.0,0.0,0.0,0.0,0.0,0.0,0.0,0.0,0.0,0.0,0.0,0.0,0.0,0.0,0.0,0.0,0.0,0.0,0.0,0.0,0.0,0.0,0.0,0.0,0.0,0.0,0.0,0.0,0.0,0.0,0.0,0.0,0.0,0.0,0.0,0.0,0.0,0.0,-2.5691,-2.5703,-2.5699,-2.5699,-2.5699,-2.5699,-2.5699,-2.5699,-2.5699,0.0,0.0,0.0,0.0,0.0,0.0,0.0,0.0,0.0,0.0,0.0,0.0,0.0,0.0,0.0,0.0,0.0,0.0,0.0,0.0,0.0,0.0,0.0,0.0,0.0,0.0,0.0,0.0,0.0,0.0,0.0,0.0,0.0,0.0,0.0,0.0,0.0,0.0,0.0,0.0,0.0,-2.6131,-2.6112,-2.7476,0.0,0.0,0.0,0.0,-3.0737,-3.0724,0.0,0.0,0.0,0.0,0.0,0.0,0.0,0.0,0.0,0.0,0.0,0.0,0.0,0.0,0.0,0.0,0.0,0.0,0.0,0.0,0.0,0.0,0.0,0.0,0.0,0.0,0.0,0.0,0.0,0.0,0.0,0.0,0.0,0.0,0.0,0.0,0.0,0.0,0.0,0.0,0.0,0.0,0.0,0.0,0.0,0.0,0.0,0.0,0.0,0.0,0.0,0.0,0.0,0.0,0.0,0.0,-2.5691,-2.5703,-2.5699,-2.5699,-2.5699,-2.5699,-2.5699,-2.5699,-2.5675,0.0,0.0,0.0,0.0,0.0,0.0,0.0,0.0,0.0,0.0,0.0,0.0,0.0,0.0,0.0,0.0,0.0,0.0,0.0,0.0,0.0,0.0,0.0,0.0,0.0,0.0,0.0,0.0,0.0,0.0,0.0,0.0,0.0,0.0,0.0,0.0,0.0,0.0,0.0,0.0,0.0,-2.7898,-2.791,-2.8732,-2.936,0.0,0.0,-3.0794,-3.0794,-3.0794,0.0,0.0,0.0,0.0,0.0,0.0,0.0,0.0,0.0,0.0,0.0,0.0,0.0,0.0,0.0,0.0,0.0,0.0,0.0,0.0,0.0,0.0,0.0,0.0,0.0,0.0,0.0,0.0,0.0,0.0,0.0,0.0,0.0,0.0,0.0,0.0,0.0,0.0,0.0,0.0,0.0,0.0,0.0,0.0,0.0,0.0,0.0,0.0,0.0,0.0,0.0,0.0,0.0,0.0,0.0,-2.5701,-2.5707,-2.5699,-2.5699,-2.5699,-2.5699,-2.5675,-2.5632,-2.5632,-2.5628,0.0,0.0,0.0,0.0,0.0,0.0,0.0,0.0,0.0,0.0,0.0,0.0,0.0,0.0,0.0,0.0,0.0,0.0,0.0,0.0,0.0,0.0,0.0,0.0,0.0,0.0,0.0,0.0,0.0,0.0,0.0,0.0,0.0,0.0,0.0,0.0,0.0,0.0,0.0,0.0,0.0,0.0,-2.8924,-2.9658,0.0,0.0,0.0,-3.1304,-3.0817,0.0,0.0,0.0,0.0,0.0,0.0,0.0,0.0,0.0,0.0,0.0,0.0,0.0,0.0,0.0,0.0,0.0,0.0,0.0,0.0,0.0,0.0,0.0,0.0,0.0,0.0,0.0,0.0,0.0,0.0,0.0,0.0,0.0,0.0,0.0,0.0,0.0,0.0,0.0,0.0,0.0,0.0,0.0,0.0,0.0,0.0,0.0,0.0,0.0,0.0,0.0,0.0,0.0,0.0,0.0,0.0,0.0,-2.5699,-2.5695,-2.5675,-2.5675,-2.5671,-2.5648,-2.5595,-2.56,0.0,0.0,0.0,0.0,0.0,0.0,0.0,0.0,0.0,0.0,0.0,0.0,0.0,0.0,0.0,0.0,0.0,0.0,0.0,0.0,0.0,0.0,0.0,0.0,0.0,0.0,0.0,-2.5393,0.0,0.0,0.0,0.0,0.0,0.0,0.0,0.0,0.0,0.0,0.0,0.0,0.0,0.0,-3.0067,-2.9844,-3.05,-3.0778,0.0,0.0,-3.1791,-3.1162,-3.1816,-3.2138,0.0,0.0,0.0,0.0,0.0,0.0,0.0,0.0,0.0,0.0,0.0,0.0,0.0,0.0,0.0,0.0,0.0,0.0,0.0,0.0,0.0,0.0,0.0,0.0,0.0,0.0,0.0,0.0,0.0,0.0,0.0,0.0,0.0,0.0,0.0,0.0,0.0,0.0,0.0,0.0,0.0,0.0,0.0,0.0,0.0,0.0,0.0,0.0,0.0,0.0,0.0,0.0,0.0,0.0,-2.571,-2.5699,-2.5632,-2.5624,-2.5609,-2.5595,-2.5605,-2.5604,-2.56,-2.5595,0.0,0.0,0.0,0.0,0.0,0.0,0.0,0.0,0.0,0.0,0.0,0.0,0.0,0.0,0.0,0.0,0.0,0.0,0.0,0.0,0.0,0.0,0.0,0.0,0.0,0.0,0.0,0.0,0.0,0.0,0.0,0.0,0.0,0.0,0.0,0.0,0.0,0.0,0.0,0.0,0.0,-3.1615,-3.0742,-3.1412,-3.1695,0.0,-3.1486,-3.208,-3.2012,-3.2752,-3.303,-3.2162,0.0,0.0,0.0,0.0,0.0,0.0,0.0,0.0,0.0,0.0,0.0,0.0,0.0,0.0,0.0,0.0,0.0,0.0,0.0,0.0,0.0,0.0,0.0,0.0,0.0,0.0,0.0,0.0,0.0,0.0,0.0,0.0,0.0,0.0,0.0,0.0,0.0,0.0,0.0,0.0,0.0,0.0,0.0,0.0,0.0,0.0,0.0,0.0,0.0,0.0,0.0,0.0,0.0,-2.5937,-2.6446,-2.6403,-2.6671,-2.7157,-2.6675,-2.6387,-2.6396,-2.5846,-2.5537,0.0,0.0,0.0,0.0,0.0,0.0,0.0,0.0,0.0,0.0,0.0,0.0,0.0,0.0,0.0,0.0,0.0,0.0,0.0,0.0,0.0,0.0,0.0,0.0,0.0,0.0,0.0,0.0,-2.6525,-2.5994,-2.5517,0.0,0.0,0.0,0.0,0.0,0.0,0.0,0.0,0.0,0.0,-3.2711,-3.2336,-3.26,0.0,0.0,-3.1992,-3.2718,-3.2192,-3.3239,-3.3868,-3.303,-3.2893,0.0,0.0,0.0,0.0,0.0,0.0,0.0,0.0,0.0,0.0,0.0,0.0,0.0,0.0,0.0,0.0,0.0,0.0,0.0,0.0,0.0,0.0,0.0,0.0,0.0,0.0,0.0,0.0,0.0,0.0,0.0,0.0,0.0,0.0,0.0,0.0,0.0,0.0,0.0,0.0,0.0,0.0,0.0,0.0,0.0,0.0,0.0,0.0,0.0,0.0,0.0,0.0,-2.6727,-2.7274,-2.7303,-2.7576,-2.8159,-2.7573,-2.7264,-2.7226,-2.6625,-2.6146,0.0,0.0,0.0,0.0,0.0,0.0,0.0,0.0,0.0,0.0,0.0,0.0,0.0,0.0,0.0,0.0,0.0,0.0,0.0,0.0,0.0,0.0,0.0,0.0,0.0,0.0,0.0,0.0,-2.745,-2.6869,-2.6339,0.0,0.0,0.0,0.0,0.0,0.0,0.0,0.0,0.0,0.0,-3.3587,-3.3334,-3.3535,-3.3214,-3.1778,-3.2835,-3.3575,-3.2952,-3.4057,-3.4706,-3.3907,0.0,0.0,0.0,0.0,0.0,0.0,0.0,0.0,0.0,0.0,0.0,0.0,0.0,0.0,0.0,0.0,0.0,0.0,0.0,0.0,0.0,0.0,0.0,0.0,0.0,0.0,0.0,-2.8203,0.0,0.0,-2.6915,0.0,0.0,0.0,0.0,0.0,0.0,0.0,0.0,0.0,0.0,0.0,0.0,0.0,0.0,0.0,0.0,0.0,0.0,0.0,0.0,0.0,0.0,-2.814,-2.8175,-2.8168,-2.8176,-2.8143,-2.8106,-2.8055,-2.7985,-2.8024,-2.7629,-2.6808,0.0,0.0,0.0,0.0,0.0,0.0,0.0,0.0,0.0,0.0,0.0,0.0,0.0,0.0,0.0,0.0,0.0,0.0,0.0,0.0,0.0,0.0,0.0,0.0,0.0,0.0,-2.7933,-2.7943,-2.7997,0.0,0.0,0.0,0.0,0.0,0.0,0.0,0.0,0.0,0.0,-3.3498,-3.4269,-3.3451,-3.4077,-3.4301,-3.3439,-3.4067,-3.4633,-3.4506,-3.5265,-3.5602,0.0,0.0,0.0,0.0,0.0,0.0,0.0,0.0,0.0,0.0,0.0,0.0,0.0,0.0,0.0,0.0,0.0,0.0,0.0,0.0,0.0,0.0,0.0,0.0,0.0,0.0,0.0,-2.8848,-2.8298,0.0,0.0,0.0,0.0,0.0,0.0,0.0,0.0,0.0,0.0,0.0,-2.8107,-2.8139,0.0,0.0,0.0,0.0,0.0,0.0,0.0,0.0,0.0,0.0,0.0,0.0,-2.8457,-2.896,-2.8981,-2.9266,-2.9791,-2.9232,-2.8896,-2.8866,-2.8324,-2.7898,-2.7628,0.0,0.0,0.0,0.0,0.0,0.0,0.0,0.0,0.0,0.0,0.0,0.0,0.0,0.0,0.0,0.0,0.0,0.0,0.0,0.0,0.0,0.0,0.0,0.0,0.0,-2.883,0.0,0.0,0.0,0.0,0.0,0.0,0.0,0.0,0.0,0.0,0.0,-3.2129,-3.3543,-3.4231,-3.4483,-3.4198,-3.4417,-3.4335,0.0,0.0,0.0,0.0,0.0,0.0,0.0,0.0,0.0,0.0,0.0,0.0,0.0,0.0,-3.5507,-3.4404,-3.3741,-3.3322,-3.3331,0.0,0.0,0.0,0.0,0.0,0.0,0.0,0.0,0.0,0.0,0.0,0.0,0.0,0.0,-3.0155,0.0,-2.9008,0.0,0.0,0.0,0.0,0.0,0.0,0.0,0.0,-2.9574,-2.9501,-2.8965,-2.8973,-2.8973,0.0,-2.9006,-2.9026,0.0,0.0,0.0,0.0,0.0,0.0,0.0,0.0,-2.9466,-3.0257,-2.9984,-3.0086,-3.061,-3.0075,-2.9743,-2.9728,-2.8907,-2.8463,-2.8452,-2.8135,-2.7961,0.0,0.0,0.0,0.0,0.0,0.0,0.0,0.0,0.0,0.0,0.0,0.0,0.0,0.0,0.0,0.0,0.0,0.0,0.0,0.0,0.0,0.0,0.0,-2.9709,0.0,0.0,0.0,0.0,0.0,0.0,0.0,0.0,0.0,-3.122,-3.2207,-3.3323,-3.445,-3.4847,-3.5061,-3.5055,0.0,0.0,0.0,0.0,0.0,0.0,0.0,-3.6098,-3.6644,-3.6761,-3.693,-3.7435,-3.7525,-3.7311,-3.6786,0.0,0.0,-3.5254,-3.4612,-3.4191,-3.4205,-3.4659,-3.5061,-3.5068,-3.5042,-3.5061,0.0,0.0,0.0,0.0,0.0,0.0,0.0,0.0,-3.2185,-3.2139,0.0,-3.0459,0.0,0.0,0.0,0.0,-2.9588,-3.0464,0.0,0.0,-3.0737,-3.0709,-3.0681,-3.0699,-3.0679,-3.0679,-3.0687,-3.0687,-3.061,-2.9084,0.0,0.0,0.0,0.0,0.0,0.0,-3.1195,-3.1945,-3.115,-3.066,-3.066,-3.0621,-3.0623,-3.0578,-2.9777,-2.9342,-2.9294,-2.8492,-2.8,-2.7981,-2.8028,0.0,0.0,0.0,0.0,0.0,0.0,0.0,0.0,0.0,0.0,0.0,0.0,0.0,0.0,0.0,0.0,0.0,0.0,0.0,0.0,-3.0027,0.0,0.0,0.0,0.0,0.0,0.0,0.0,0.0,0.0,0.0,-3.2123,-3.3524,-3.4618,-3.4625,0.0,0.0,0.0,0.0,-3.5869,-3.5869,-3.5889,-3.5889,-3.5869,-3.5889,-3.5922,-3.595,0.0,0.0,-3.6002,-3.5954,-3.5986,-3.593,-3.6008,-3.5917,-3.5878,-3.582,-3.5801,-3.582,-3.5813,-3.5878,-3.5878,-3.5794,-3.5813,-3.4402,0.0,0.0,0.0,0.0,-3.5149,-3.4766,-3.3958,-3.3958,-3.3623,-3.2989,-3.2537,0.0,0.0,0.0,0.0,0.0,0.0,-3.307,-3.2507,-3.3054,-3.3025,-3.2462,-3.2443,-3.2471,-3.2452,-3.2471,-3.2452,-3.2432,-3.1919,-3.1402,-3.087,0.0,0.0,0.0,0.0,-3.2613,-3.2818,-3.255,-3.2124,-3.1529,-3.1476,-3.1168,-3.0549,-3.0288,-3.0132,-3.0072,-2.983,-2.9696,-2.9696,-2.9147,0.0,0.0,0.0,0.0,0.0,0.0,0.0,0.0,0.0,0.0,0.0,0.0,0.0,0.0,0.0,0.0,0.0,0.0,0.0,-3.0034,-3.0293,-3.0449,0.0,0.0,0.0,0.0,0.0,0.0,0.0,0.0,0.0,-3.3854,-3.4275,-3.4812,0.0,0.0,-3.5885,-3.5885,-3.5891,-3.5889,-3.5889,-3.5889,0.0,-3.5889,-3.5883,-3.608,-3.6664,-3.7284,-3.7669,-3.7605,-3.7597,-3.7394,-3.6802,-3.6686,-3.6492,-3.589,-3.5799,-3.5826,-3.5782,-3.5754,-3.5773,-3.5773,-3.5754,-3.5773,-3.6562,-3.6933,-3.5918,-3.5485,-3.552,-3.5854,-3.5506,-3.4698,-3.4702,-3.4386,-3.3862,-3.3512,-3.3541,-3.3852,-3.3841,0.0,0.0,0.0,-3.4031,-3.3206,-3.3674,-3.3626,-3.319,-3.3171,-3.3151,-3.318,-3.3151,-3.3151,-3.3171,-3.3122,-3.3045,-3.2879,0.0,0.0,-3.3662,-3.3343,-3.3334,-3.3635,-3.3277,-3.2861,-3.2387,-3.196,-3.1347,-3.051,-3.0425,-3.0406,-3.0364,-3.0371,-3.0359,-3.034,-2.989,-2.9644,0.0,0.0,0.0,0.0,0.0,0.0,0.0,0.0,0.0,0.0,0.0,-2.8001,-2.847,0.0,0.0,0.0,-2.9708,-3.0015,-3.0821,-3.0948,0.0,0.0,0.0,0.0,0.0,0.0,0.0,-3.3689,-3.426,-3.4734,-3.5018,-3.5076,-3.5263,-3.5741,-3.583,-3.5864,-3.5864,0.0,-3.5883,-3.5883,-3.5883,-3.5883,-3.5883,-3.5885,-3.606,-3.6518,-3.7012,-3.7316,-3.7269,-3.7269,-3.7085,-3.6629,-3.6484,-3.6309,-3.5756,-3.5679,-3.5718,-3.5708,-3.5708,-3.5708,-3.5708,-3.5708,-3.5708,-3.8441,-3.8177,-3.5786,-3.4881,-3.5073,-3.5782,-3.5685,-3.5006,-3.5006,-3.4954,-3.4845,-3.4047,-3.4146,-3.4885,-3.489,0.0,-3.3732,-3.4466,-3.4371,-3.3489,-3.3422,-3.3353,-3.3314,-3.3325,-3.3295,-3.3314,-3.3295,-3.3295,-3.3314,-3.3314,-3.374,-3.4543,-3.378,-3.3829,-3.4604,-3.3829,-3.3781,-3.4565,-3.3819,-3.3332,-3.3199,-3.2211,-3.1303,-3.0522,-3.0356,-3.0304,-3.0304,-3.0305,-3.0312,-3.0312,-3.0299,-3.0304,-3.0285,0.0,0.0,0.0,0.0,0.0,0.0,0.0,0.0,0.0,0.0,0.0,0.0,0.0,0.0,0.0,-3.0505,0.0,-3.1623,-3.1819,0.0,0.0,0.0,-3.2822,-3.2152,-3.2815,-3.3627,-3.4492,0.0,0.0,-3.5702,-3.5791,-3.5791,-3.5791,-3.5795,-3.5803,-3.5803,-3.5859,-3.5885,-3.5885,-3.5885,-3.5885,-3.5879,-3.5885,-3.5877,-3.5877,-3.5793,-3.5872,-3.5825,-3.5796,-3.5718,-3.5728,-3.5699,-3.5698,-3.5626,-3.5626,-3.5618,-3.5659,-3.5689,-3.5689,-3.5689,-3.5689,-3.5698,-3.7226,-3.6563,-3.589,-3.6372,-3.7557,-3.7103,-3.7171,-3.7595,-3.7539,-3.7521,-3.7481,-3.7265,-3.728,-3.7432,-3.7404,-3.7317,-3.7143,-3.7258,-3.6869,-3.6114,-3.6024,-3.5665,-3.5085,-3.5085,-3.5065,-3.5085,-3.5024,-3.5013,-3.5013,-3.501,-3.5434,-3.6269,-3.6033,-3.6045,-3.6295,-3.6102,-3.6091,-3.63,-3.6115,-3.5333,-3.3955,-3.2428,-3.1531,-3.1306,-3.0657,-3.0305,-3.0305,-3.0292,-3.0312,-3.0312,-3.0247,-3.0215,-3.0215,-3.0036,0.0,0.0,0.0,0.0,0.0,0.0,0.0,0.0,0.0,-2.9555,-3.0172,0.0,-3.116,0.0,-3.0999,-3.148,-3.1691,-3.2328,0.0,0.0,-3.2956,-3.3287,-3.3742,-3.4041,-3.4533,-3.5377,-3.5519,-3.5585,-3.5779,-3.5791,-3.5791,-3.5799,-3.5795,-3.5803,-3.5803,-3.5852,-3.5885,-3.5885,-3.5885,-3.5878,-3.5826,-3.5815,-3.5801,-3.5747,-3.5737,-3.5708,-3.5698,-3.5658,-3.5618,-3.5615,-3.5612,-3.562,-3.5596,-3.5616,-3.5608,-3.562,-3.5639,-3.5639,-3.562,-3.5639,-3.562,-3.7537,-3.7064,-3.6657,-3.7248,-3.841,-3.7533,-3.7436,-3.7891,-3.824,-3.8393,-3.8397,-3.8363,-3.8336,-3.8307,-3.8267,-3.8063,-3.7723,-3.7641,-3.7154,-3.64,-3.6358,-3.6095,-3.567,-3.5651,-3.5651,-3.567,-3.5608,-3.5628,-3.5616,-3.5623,-3.5835,-3.6311,-3.6279,-3.6472,-3.6837,-3.6856,-3.6863,-3.6851,-3.6479,-3.5605,-3.4246,-3.3202,-3.2297,-3.1541,-3.1026,-3.0567,-3.0218,-3.0218,-3.018,-3.0152,-3.0109,-3.006,-3.0075,-3.006,-3.0098,0.0,0.0,0.0,0.0,0.0,0.0,0.0,0.0,0.0,0.0,0.0,-3.2081,-3.1564,-3.1948,-3.2403,-3.2762,-3.3272,-3.3577,-3.3589,-3.3981,-3.4302,-3.439,-3.4768,-3.5234,-3.5689,-3.5775,-3.5801,-3.5801,-3.5791,-3.5791,-3.5801,-3.5791,-3.5799,-3.5799,-3.5823,-3.585,-3.5862,-3.5842,-3.5834,-3.5771,-3.5745,-3.5718,-3.5659,-3.5649,-3.5658,-3.5665,-3.5643,-3.562,-3.5608,-3.5572,-3.5547,-3.5554,-3.5528,-3.5495,-3.5482,-3.5463,-3.5476,-3.5547,-3.5528,-3.5515,-3.8608,-3.8396,-3.7657,-3.7766,-3.8338,-3.7704,-3.7362,-3.7304,-3.8058,-3.8382,-3.8384,-3.8316,-3.8296,-3.8285,-3.8225,-3.7815,-3.7157,-3.7093,-3.6586,-3.5774,-3.5758,-3.5688,-3.5623,-3.5623,-3.5623,-3.5604,-3.5591,-3.5591,-3.5591,-3.5579,-3.5637,-3.5746,-3.5746,-3.6158,-3.691,-3.6839,-3.68,-3.6762,-3.5925,-3.5067,-3.4189,-3.3941,-3.3039,-3.1454,-3.1213,-3.0798,-3.011,-3.0072,-3.0038,-2.9991,-2.9905,-2.9872,-2.9891,-2.9876,-2.9952,0.0,-3.0776,0.0,0.0,0.0,0.0,0.0,0.0,0.0,0.0,-3.2998,-3.3005,-3.3064,-3.3064,-3.3365,-3.4135,-3.4364,-3.4465,-3.45,-3.5198,-3.5394,-3.4709,-3.5252,-3.5707,-3.5707,-3.5747,-3.5775,-3.5775,-3.5773,-3.5782,-3.5784,-3.5775,-3.5775,-3.5775,-3.5773,-3.5782,-3.5784,-3.5785,-3.5766,-3.5699,-3.5689,-3.5669,-3.5626,-3.5615,-3.5574,-3.5584,-3.5591,-3.5579,-3.5579,-3.5502,-3.5476,-3.5474,-3.5432,-3.5383,-3.5315,-3.53,-3.5311,-3.5435,-3.5411,-3.5383,-3.9111,-3.8396,-3.8241,-3.8227,-3.8374,-3.8899,-3.8734,-3.8092,-3.8239,-3.8316,-3.8315,-3.8304,-3.8272,-3.8214,-3.8214,-3.8092,-3.7887,-3.7881,-3.7398,-3.6569,-3.6588,-3.6228,-3.5642,-3.5623,-3.5623,-3.5591,-3.5547,-3.5515,-3.5515,-3.5528,-3.5894,-3.6537,-3.651,-3.6939,-3.7676,0.0,0.0,0.0,-3.5797,-3.4936,-3.4056,-3.3264,-3.2327,-3.1263,-3.0544,0.0,-2.9945,-2.9924,-2.9924,-2.9929,-2.9859,0.0,0.0,0.0,0.0,0.0,0.0,0.0,0.0,0.0,0.0,0.0,-3.3657,-3.3407,-3.3024,-3.2954,-3.3211,-3.3872,-3.3949,-3.4007,-3.4193,-3.4911,-3.5353,-3.5353,-3.5574,-3.5626,-3.5472,-3.562,-3.5707,-3.5707,-3.5718,-3.5718,-3.5728,-3.5718,-3.5718,-3.5728,-3.5718,-3.5708,-3.5728,-3.5728,-3.5718,-3.5708,-3.5679,-3.5648,-3.5618,-3.5604,-3.562,-3.5616,-3.5616,-3.5584,-3.5528,-3.5509,-3.5488,-3.5455,-3.5374,-3.5326,-3.533,-3.5339,-3.5308,-3.5293,-3.5207,-3.519,-3.5324,-3.5304,-3.5308,-3.8813,-3.8352,-3.8355,-3.8307,0.0,-3.8731,-3.8673,-3.8324,-3.9157,-3.9522,-3.9456,-3.905,-3.8832,-3.8762,-3.8344,-3.7887,-3.7469,-3.7423,-3.6947,-3.6177,-3.6177,-3.5945,-3.556,-3.556,-3.556,-3.556,-3.5528,-3.5495,-3.5495,-3.5488,-3.5718,-3.6084,-3.6075,-3.6272,-3.6642,-3.6197,-3.5967,-3.6008,-3.5511,-3.4837,-3.4044,-3.3832,-3.3102,-3.1838,-3.1692,0.0,0.0,0.0,0.0,0.0,0.0,0.0,0.0,-3.0187,0.0,-3.1428,-3.186,-3.2315,-3.2902,-3.3337,-3.3864,-3.4492,-3.4614,-3.45,-3.4159,-3.412,-3.4279,-3.4702,-3.474,-3.474,-3.476,-3.5232,-3.556,-3.5541,-3.5604,-3.5659,-3.5639,-3.5651,-3.5643,-3.5673,-3.5657,-3.5648,-3.5648,-3.5639,-3.5639,-3.5648,-3.5658,-3.5639,-3.5646,-3.5678,-3.5698,-3.5667,-3.5635,-3.5612,-3.562,-3.5616,-3.5579,-3.5573,-3.556,-3.5515,-3.5416,-3.5407,-3.5379,-3.5345,-3.5285,-3.5254,-3.5219,-3.5226,-3.5196,-3.5196,-3.5143,-3.5072,-3.5089,-3.5162,-3.5179,-3.8801,-3.8753,-3.8732,-3.8701,-3.8628,-3.8648,-3.8624,-3.8709,0.0,0.0,0.0,-3.947,-3.9148,-3.9122,-3.84,-3.7679,-3.7043,-3.6944,-3.6584,-3.5949,-3.593,-3.5949,-3.5949,-3.5916,-3.5935,-3.5935,-3.5921,-3.594,-3.5921,-3.5921,-3.5873,-3.5825,-3.5671,-3.5488,-3.5289,-3.5209,-3.519,-3.5219,-3.519,-3.4792,-3.3996,-3.4431,-3.3923,-3.2353,-3.2882,-3.2539,-3.1204,-3.1109,-3.0731,-3.0016,-2.992,-3.0178,-3.0831,-3.0863,-3.1254,-3.212,-3.2791,-3.329,-3.3592,-3.4252,-3.479,-3.5039,-3.5179,-3.5258,-3.53,-3.53,-3.5315,-3.5315,-3.5315,-3.5315,-3.5315,-3.5412,-3.5493,-3.5493,-3.5554,-3.5572,-3.5591,-3.5623,-3.5623,-3.5623,-3.5628,-3.562,-3.562,-3.5612,-3.5585,-3.5601,-3.5593,-3.5574,-3.5565,-3.5631,-3.5665,-3.5631,-3.5584,-3.5598,-3.5579,-3.5534,-3.5509,-3.5474,-3.546,-3.5412,-3.5315,-3.5266,-3.5285,-3.5254,-3.5226,-3.5193,-3.5176,-3.5145,-3.5075,-3.5075,-3.5057,-3.5001,-3.4946,-3.4964,-3.502,-4.0507,-4.0444,-4.0432,-4.0397,-4.0346,-4.0346,-4.0301,-4.0171,-3.9078,-3.8524,-3.8466,-3.835,-3.826,-3.8199,-3.8064,-3.7935,-3.7829,-3.7815,-3.7738,-3.7661,-3.7642,-3.7642,-3.7642,-3.7598,-3.7563,-3.7548,-3.7571,-3.7574,-3.7555,-3.7555,-3.7543,-3.736,-3.6725,-3.5949,-3.5202,-3.5056,-3.5001,-3.4964,-3.5053,-3.4653,-3.3787,-3.3826,-3.3299,-3.2122,-3.2233,-3.2133,-3.1784,-3.1763,-3.1685,-3.1507,-3.1422,-3.1432,-3.1478,-3.1478,-3.1876,-3.2771,-3.2976,-3.3422,-3.4292,-3.4505,-3.4689,-3.485,-3.4964,-3.5108,-3.5277,-3.5304,-3.5315,-3.5315,-3.53,-3.5315,-3.5315,-3.5345,-3.5427,-3.5493,-3.5528,-3.5528,-3.5572,-3.5611,-3.5611,-3.5591,-3.5623,-3.5604,-3.5604,-3.5604,-3.5553,-3.5528,-3.5515,-3.5496,-3.547,-3.5528,-3.5604,-3.5591,-3.556,-3.552,-3.5488,-3.5427,-3.5345,-3.533,-3.533,-3.532,-3.5223,-3.5207,-3.5209,-3.5145,-3.5108,-3.511,-3.511,-3.5075,-3.502,-3.4964,-3.4946,-3.4888,-3.481,-3.481,-3.4829,-4.08,-4.0739,-4.0739,-4.0694,-4.0654,-4.0646,-4.0598,-4.0472,-3.9726,-3.9432,-3.9408,-3.897,-3.871,-3.8608,-3.8151,-3.7963,-3.7951,-3.7932,-3.7947,-3.7947,-3.7932,-3.7932,-3.7951,-3.7897,-3.7901,-3.7901,-3.7904,-3.7888,-3.7836,-3.7836,-3.7802,-3.7675,-3.724,-3.6595,-3.576,-3.5628,-3.5362,-3.4868,-3.4889,-3.4491,-3.3639,-3.3958,-3.3648,-3.2692,-3.3019,-3.2966,-3.247,-3.2405,-3.2154,-3.1705,-3.1681,-3.1843,-3.2225,-3.2262,-3.2637,-3.3488,-3.3562,-3.3783,-3.4298,-3.4473,-3.4602,-3.467,-3.4791,-3.4927,-3.5,-3.5141,-3.5245,-3.5245,-3.5223,-3.5239,-3.5254,-3.5304,-3.5354,-3.5369,-3.5393,-3.5435,-3.5482,-3.5482,-3.5515,-3.5528,-3.5495,-3.5495,-3.5482,-3.5449,-3.5435,-3.5388,-3.5407,-3.5379,-3.534,-3.5379,-3.5427,-3.5468,-3.5441,-3.5379,-3.5379,-3.533,-3.53,-3.5254,-3.5219,-3.5207,-3.5179,-3.5126,-3.5127,-3.511,-3.5075,-3.502,-3.5001,-3.4964,-3.4927,-3.4888,-3.4849,-3.4827,-3.4727,-3.4645,-3.4623,-4.0739,-4.072,-4.0687,-4.0626,-4.0545,-4.0558,-4.0527,-4.0438,-4.0194,-4.0268,-4.0427,-3.9838,-3.9519,-3.9394,-3.8767,-3.8479,-3.846,-3.8479,-3.846,-3.8479,-3.8463,-3.8479,-3.8479,-3.8443,-3.8443,-3.8443,-3.8429,-3.8393,-3.8341,-3.8341,-3.8154,-3.789,-3.7793,-3.7297,-3.6443,-3.636,-3.588,-3.5087,-3.4988,-3.4553,-3.3765,-3.4202,-3.411,-3.3515,-3.3887,-3.387,-3.3167,-3.3075,-3.2754,-3.2182,-3.2084,-3.2379,-3.2969,-3.3025,-3.3301,-3.3899,-3.3972,-3.4049,-3.4197,-3.4358,-3.4473,-3.4539,-3.4666,-3.4728,-3.4752,-3.4964,-3.5111,-3.5147,-3.5162,-3.5176,-3.5176,-3.5229,-3.5245,-3.5261,-3.5273,-3.5285,-3.5335,-3.535,-3.5398,-3.5432,-3.5398,-3.5398,-3.5364,-3.533,-3.5281,-3.5285,-3.5258,-3.5242,-3.5239,-3.5209,-3.5226,-3.5273,-3.527,-3.5254,-3.5254,-3.5239,-3.5207,-3.5141,-3.5124,-3.5089,-3.5038,-3.502,-3.5001,-3.5002,-3.4946,-3.4889,-3.485,-3.483,-3.4788,-3.4747,-3.4687,-3.4663,-3.4517,-3.4427,-3.4404,-4.07,-4.0687,-4.0651,-4.0539,-4.0403,-4.0392,-4.0375,-4.0243,-3.9572,-3.9668,-4.0279,-4.0319,-4.0243,-4.0281,-4.013,-4.0072,-4.0072,-4.0166,-4.0111,-4.0091,-4.0185,-4.0149,-4.0072,-4.0057,-4.0077,-4.002,-3.9947,-3.9834,-3.9815,-3.9814,-3.941,-3.8702,-3.8523,-3.804,-3.7216,-3.7051,-3.6569,-3.5735,-3.5533,-3.508,-3.4371,-3.4371,-3.4279,-3.4031,-3.4068,-3.4037,-3.385,-3.3836,-3.3773,-3.3692,-3.3584,-3.3613,-3.3687,-3.3705,-3.3768,-3.3895,-3.3913,-3.3998,-3.4173,-3.4221,-3.4293,-3.4404,-3.4495,-3.4539,-3.4539,-3.4728,-3.4888,-3.4983,-3.5075,-3.511,-3.511,-3.5148,-3.5221,-3.5255,-3.5274,-3.5157,-3.534,-3.5258,-3.5312,-3.5327,-3.5515,-3.5335,-3.5492,-3.5435,-3.5327,-3.534,-3.5198,-3.5127,-3.5108,-3.511,-3.5092,-3.5073,-3.5089,-3.5105,-3.5108,-3.5075,-3.5019,-3.4945,-3.4926,-3.4889,-3.4889,-3.4831,-3.4812,-3.481,-3.4749,-3.4728,-3.4687,-3.4645,-3.4604,-3.4558,-3.4495,-3.4386,-3.4269,-3.4197,-3.4216,-4.0598,-4.0583,-4.0523,-4.0134,-3.9682,-3.9632,-3.9346,-3.8812,-3.847,-3.8472,-3.8778,-3.8797,-3.935,-4.0325,-4.0345,-4.0327,-4.0346,-4.0346,-4.0346,-4.0327,-4.0366,-4.0346,-4.0346,-4.0309,-4.0291,-4.0234,-4.0196,-4.0157,-4.0077,-3.9975,-3.9721,-3.9372,-3.9282,-3.8776,-3.7934,-3.7788,-3.7079,-3.5725,-3.5572,-3.5089,-3.4284,-3.4173,-3.4099,-3.3998,-3.3972,-3.3921,-3.3815,-3.3807,-3.378,-3.3726,-3.368,-3.3671,-3.3671,-3.3726,-3.3753,-3.378,-3.386,-3.3921,-3.4023,-3.4049,-3.4148,-3.425,-3.4293,-3.434,-3.445,-3.4539,-3.4666,-3.471,-3.4908,-3.5038,-3.5077,-3.5493,-3.5797,-3.5872,-3.6252,-3.6556,-3.661,-3.6627,-3.6682,-3.67,-3.668,-3.6623,-3.6585,-3.6205,-3.5923,-3.5774,-3.5454,-3.5115,-3.502,-3.4983,-3.4965,-3.4907,-3.4908,-3.4927,-3.4945,-3.4964,-3.4889,-3.4851,-3.4849,-3.481,-3.4769,-3.471,-3.4668,-3.4626,-3.4626,-3.4602,-3.458,-3.4495,-3.4454,-3.4386,-3.4293,-3.4197,-3.4099,-3.4023,-3.4023,-3.9811,-3.9781,-3.9717,-3.9303,-3.8733,-3.8718,-3.8357,-3.7783,-3.7464,-3.7465,-3.7675,-3.7677,-3.8497,-3.9775,-3.9909,-3.9929,-3.9948,-4.0177,-4.0253,-4.0253,-4.0234,-4.0273,-4.0234,-4.0234,-4.0196,-4.0157,-4.0118,-4.0057,-3.9911,-3.9804,-3.9717,-3.9712,-3.9656,-3.9258,-3.8596,-3.8471,-3.7723,-3.6329,-3.5892,-3.5251,-3.4389,-3.4023,-3.3887,-3.3887,-3.3842,-3.3807,-3.3698,-3.3689,-3.3643,-3.3587,-3.3605,-3.3605,-3.3605,-3.3643,-3.3671,-3.3698,-3.3788,-3.3868,-3.3895,-3.3965,-3.4023,-3.4124,-3.4148,-3.4197,-3.4269,-3.4363,-3.4427,-3.445,-3.4689,-3.4907,-3.5325,-3.5837,-3.6274,-3.6558,-3.7166,-3.7508,-3.7471,-3.7509,-3.7471,-3.7585,-3.7395,-3.7528,-3.7452,-3.6958,-3.6558,-3.6444,-3.5988,-3.54,-3.5228,-3.5169,-3.509,-3.4783,-3.4727,-3.4749,-3.4831,-3.4831,-3.4792,-3.4732,-3.4689,-3.4666,-3.4623,-3.458,-3.4517,-3.4495,-3.4517,-3.4473,-3.4381,-3.4316,-3.4269,-3.4154,-3.4074,-3.3972,-3.3913,-3.3834,-3.378,-3.802,-3.8043,-3.7945,-3.7917,-3.7787,-3.775,-3.7731,-3.7483,-3.6838,-3.6916,-3.7564,-3.7623,-3.808,-3.888,-3.907,-3.905,-3.9147,-3.9853,-4.0176,-4.0118,-4.0117,-4.0117,-4.0117,-4.0117,-4.0077,-4.0017,-3.9954,-3.9867,-3.9735,-3.9665,-3.9575,-3.9508,-3.9471,-3.9305,-3.9107,-3.9026,-3.8591,-3.7562,-3.6721,-3.5836,-3.4935,-3.4073,-3.3735,-3.378,-3.3753,-3.3698,-3.3671,-3.3633,-3.3605,-3.3605,-3.3577,-3.3577,-3.3587,-3.3587,-3.3633,-3.3671,-3.3698,-3.3778,-3.3868,-3.3895,-3.3921,-3.3998,-3.3998,-3.4023,-3.403,-3.4148,-3.424,-3.4203,-3.4427,-3.4824,-3.5625,-3.588,-3.6319,-3.6979,-3.7263,-3.7357,-3.7357,-3.7553,-3.7345,-3.7442,-3.7616,-3.7673,-3.7522,-3.7268,-3.7165,-3.7125,-3.6961,-3.6577,-3.596,-3.5788,-3.5465,-3.4858,-3.4611,-3.4558,-3.4666,-3.4647,-3.4583,-3.4539,-3.4476,-3.4427,-3.4409,-3.4386,-3.4363,-3.4335,-3.4311,-3.4264,-3.4148,-3.4074,-3.3998,-3.3921,-3.3842,-3.378,-3.3671,-3.3577,-3.3491,-3.7814,-3.7761,-3.7747,-3.7406,-3.6877,-3.6877,-3.6571,-3.606,-3.627,-3.65,-3.6862,-3.7357,-3.7776,-3.8061,-3.8633,-3.9166,-3.968,-4.0003,-4.0137,-4.0117,-4.0096,-4.0096,-4.0096,-4.0096,-4.0036,-3.9933,-3.9911,-3.9823,-3.9647,-3.9575,-3.9483,-3.9427,-3.9324,-3.9237,-3.9129,-3.9092,-3.859,-3.7755,-3.7224,-3.6384,-3.5052,-3.4535,-3.4095,-3.3623,-3.3577,-3.3549,-3.3509,-3.3452,-3.3364,-3.3316,-3.3268,-3.3268,-3.3298,-3.3368,-3.3444,-3.3502,-3.3542,-3.3579,-3.3643,-3.3652,-3.3753,-3.386,-3.3868,-3.3913,-3.3998,-3.4049,-3.4074,-3.4099,-3.4173,-3.4641,-3.5366,-3.5735,-3.5982,-3.6381,-3.7325,-3.7909,-3.812,-3.8486,-3.8829,-3.8829,-3.8807,-3.8803,-3.8554,-3.824,-3.7915,-3.784,-3.738,-3.6921,-3.6672,-3.6578,-3.6232,-3.5469,-3.5184,-3.4997,-3.4381,-3.4386,-3.4386,-3.434,-3.4293,-3.4245,-3.4221,-3.4173,-3.4148,-3.4148,-3.4142,-3.4067,-3.3972,-3.3887,-3.3807,-3.3671,-3.3615,-3.353,-3.3422,-3.3364,-3.3274,-3.6929,-3.6875,-3.6875,-3.6516,-3.6042,-3.6251,-3.6042,-3.5606,-3.6349,-3.6692,-3.6844,-3.7585,-3.7946,-3.8079,-3.8782,-3.9447,-3.9998,-4.0057,-4.0057,-4.0036,-4.0036,-4.0036,-4.0017,-4.0036,-3.9954,-3.9845,-3.98,-3.9708,-3.9588,-3.9496,-3.9401,-3.9343,-3.921,-3.912,-3.9017,-3.8979,-3.8567,-3.7952,-3.7576,-3.6662,-3.5385,-3.4836,-3.4268,-3.3567,-3.3375,-3.3375,-3.3382,-3.3292,-3.3214,-3.3117,-3.3104,-3.3104,-3.3117,-3.3178,-3.3268,-3.3382,-3.3426,-3.3465,-3.3462,-3.3509,-3.3577,-3.3698,-3.3716,-3.3753,-3.3842,-3.3895,-3.3921,-3.3965,-3.4016,-3.4326,-3.4809,-3.5112,-3.546,-3.6007,-3.7141,-3.7821,-3.7882,-3.8338,-3.8761,-3.8949,-3.8963,-3.9145,-3.9377,-3.894,-3.8671,-3.8596,-3.8028,-3.7642,-3.7331,-3.7231,-3.6945,-3.6061,-3.5609,-3.5231,-3.4686,-3.447,-3.4277,-3.4197,-3.4154,-3.408,-3.4049,-3.3998,-3.3972,-3.3965,-3.3939,-3.386,-3.378,-3.3716,-3.3605,-3.3481,-3.3375,-3.3298,-3.3244,-3.317,-3.306,-3.524,-3.5262,-3.5131,-3.534,-3.5435,-3.612,-3.6348,-3.6425,-3.7148,-3.7508,-3.7602,-3.836,-3.8719,-3.885,-3.9437,-3.9851,-3.9892,-3.9954,-3.9954,-3.9911,-3.9911,-3.993,-3.9889,-3.9889,-3.9804,-3.9689,-3.9631,-3.9552,-3.9495,-3.9399,-3.9328,-3.9183,-3.9064,-3.895,-3.891,-3.8803,-3.8676,-3.8328,-3.7698,-3.6825,-3.5901,-3.5077,-3.4238,-3.3418,-3.3165,-3.3165,-3.3262,-3.3183,-3.3086,-3.3086,-3.3104,-3.3104,-3.3104,-3.3091,-3.3158,-3.3262,-3.3298,-3.334,-3.3382,-3.3393,-3.3404,-3.3491,-3.3491,-3.3567,-3.3615,-3.3671,-3.3726,-3.378,-3.3842,-3.395,-3.4046,-3.4127,-3.471,-3.6259,-3.6596,-3.6726,-3.6745,-3.6807,-3.7156,-3.7897,-3.8084,-3.8458,-3.9037,-3.8883,-3.8643,-3.8643,-3.8552,-3.8201,-3.7534,-3.7396,-3.7276,-3.65,-3.5697,-3.508,-3.4813,-3.4573,-3.4275,-3.4023,-3.4005,-3.3954,-3.3928,-3.3895,-3.3842,-3.3842,-3.3753,-3.3698,-3.3605,-3.352,-3.3404,-3.3304,-3.3196,-3.3086,-3.3011,-3.2902,-3.2787,-3.5131,-3.5169,-3.572,-3.5912,-3.6008,-3.6768,-3.7091,-3.7166,-3.7962,-3.8281,-3.8409,-3.9129,-3.9425,-3.9441,-3.9664,-3.9758,-3.9758,-3.9781,-3.9823,-3.9804,-3.9781,-3.9777,-3.9758,-3.9758,-3.967,-3.957,-3.9483,-3.938,-3.9256,-3.9202,-3.9101,-3.9007,-3.8892,-3.8822,-3.878,-3.8652,-3.851,-3.8364,-3.8118,-3.7257,-3.5915,-3.5403,-3.4533,-3.3252,-3.3011,-3.2979,-3.3028,-3.2979,-3.2961,-3.2979,-3.2979,-3.2979,-3.2979,-3.2948,-3.2997,-3.3028,-3.3073,-3.3073,-3.3122,-3.3165,-3.3226,-3.3334,-3.3382,-3.3411,-3.3452,-3.352,-3.3577,-3.3605,-3.3643,-3.3698,-3.3726,-3.3726,-3.4109,-3.477,-3.5403,-3.5799,-3.5836,-3.6303,-3.6768,-3.6983,-3.7058,-3.7206,-3.7339,-3.7396,-3.7433,-3.7433,-3.7359,-3.7155,-3.6924,-3.6998,-3.6389,-3.556,-3.511,-3.511,-3.4917,-3.4697,-3.4376,-3.4054,-3.3925,-3.3834,-3.3788,-3.3734,-3.3707,-3.3652,-3.3559,-3.3491,-3.3375,-3.3286,-3.3165,-3.3073,-3.2979,-3.2866,-3.2737,-3.2639,-3.2506,-3.5723,-3.5989,-3.6502,-3.6711,-3.6805,-3.7562,-3.7883,-3.7976,-3.871,-3.9047,-3.9116,-3.9532,-3.9717,-3.9712,-3.9708,-3.9708,-3.9708,-3.9703,-3.9727,-3.9754,-3.9712,-3.9708,-3.9708,-3.9623,-3.9575,-3.9502,-3.9432,-3.9301,-3.9129,-3.9082,-3.9064,-3.895,-3.8822,-3.875,-3.8707,-3.8546,-3.8401,-3.8322,-3.8219,-3.741,-3.6045,-3.5555,-3.4702,-3.3279,-3.2948,-3.2902,-3.2852,-3.282,-3.2802,-3.2852,-3.282,-3.277,-3.277,-3.282,-3.287,-3.2852,-3.2916,-3.2979,-3.2997,-3.3011,-3.3073,-3.3152,-3.3201,-3.3214,-3.3256,-3.3345,-3.3375,-3.3422,-3.3481,-3.3491,-3.3538,-3.352,-3.3605,-3.3753,-3.4347,-3.4766,-3.4911,-3.5288,-3.5777,-3.5935,-3.6056,-3.6113,-3.6344,-3.6408,-3.638,-3.637,-3.6581,-3.6707,-3.6762,-3.7019,-3.649,-3.6168,-3.6138,-3.5901,-3.5221,-3.4845,-3.448,-3.4162,-3.3899,-3.3752,-3.3643,-3.3549,-3.3491,-3.3357,-3.3286,-3.3196,-3.3104,-3.2961,-3.2866,-3.2802,-3.2722,-3.2539,-3.2404,-3.2335,-3.2197,-3.6767,-3.7371,-3.7447,-3.7466,-3.7559,-3.8312,-3.8669,-3.8761,-3.9339,-3.9637,-3.9651,-3.967,-3.9689,-3.9689,-3.9684,-3.9684,-3.9708,-3.9698,-3.9693,-3.9674,-3.9679,-3.9684,-3.9684,-3.957,-3.9496,-3.9496,-3.9406,-3.9301,-3.9156,-3.9101,-3.9045,-3.895,-3.8792,-3.8689,-3.8627,-3.8483,-3.8368,-3.8271,-3.8204,-3.7341,-3.5792,-3.5555,-3.4688,-3.3086,-3.2948,-3.2884,-3.2805,-3.269,-3.2657,-3.274,-3.2672,-3.2639,-3.2621,-3.2722,-3.2773,-3.2787,-3.2834,-3.2866,-3.2884,-3.2884,-3.2884,-3.2948,-3.2997,-3.3028,-3.3073,-3.3086,-3.3165,-3.3262,-3.3292,-3.3322,-3.3382,-3.3364,-3.3393,-3.3422,-3.3715,-3.3899,-3.3879,-3.3944,-3.4366,-3.4917,-3.5055,-3.5183,-3.5836,-3.5899,-3.5917,-3.6046,-3.6457,-3.6655,-3.6796,-3.69,-3.7904,-3.7562,-3.6557,-3.6217,-3.5429,-3.5302,-3.4945,-3.463,-3.4262,-3.3948,-3.356,-3.3364,-3.3274,-3.3135,-3.3011,-3.2934,-3.282,-3.2737,-3.2606,-3.2523,-3.2387,-3.2179,-3.2108,-3.202,-3.1948,-3.7156,-3.7404,-3.7948,-3.821,-3.8323,-3.9075,-3.9415,-3.941,-3.958,-3.9684,-3.9698,-3.9698,-3.9656,-3.9626,-3.9607,-3.9607,-3.9607,-3.9626,-3.9596,-3.9571,-3.9552,-3.9558,-3.9583,-3.9483,-3.9432,-3.9406,-3.9256,-3.9147,-3.9064,-3.8979,-3.8939,-3.8851,-3.875,-3.8627,-3.8515,-3.8433,-3.8354,-3.8241,-3.8207,-3.7293,-3.5825,-3.5526,-3.4637,-3.3126,-3.2916,-3.2852,-3.2773,-3.2623,-3.2557,-3.2639,-3.2606,-3.2588,-3.2588,-3.2639,-3.2672,-3.2669,-3.2687,-3.2687,-3.2702,-3.2687,-3.2705,-3.2705,-3.2737,-3.2737,-3.287,-3.2916,-3.2979,-3.306,-3.3104,-3.3165,-3.3147,-3.3178,-3.3226,-3.3322,-3.3393,-3.352,-3.3577,-3.3605,-3.3715,-3.3981,-3.4036,-3.4191,-3.4355,-3.4418,-3.4371,-3.447,-3.4987,-3.5581,-3.5877,-3.6268,-3.7029,-3.6497,-3.5804,-3.5872,-3.5714,-3.5624,-3.5447,-3.5187,-3.4792,-3.4325,-3.3764,-3.3219,-3.3109,-3.3011,-3.282,-3.2722,-3.2657,-3.2573,-3.2422,-3.2214,-3.2144,-3.1984,-3.1856,-3.1783,-3.1691,-3.8011,-3.8342,-3.8807,-3.9014,-3.9052,-3.9519,-3.9703,-3.9684,-3.9661,-3.9656,-3.965,-3.965,-3.962,-3.9571,-3.9552,-3.9527,-3.9502,-3.9502,-3.9476,-3.9469,-3.9469,-3.9476,-3.9476,-3.9373,-3.9301,-3.9248,-3.912,-3.9017,-3.895,-3.891,-3.8822,-3.875,-3.864,-3.8496,-3.8387,-3.8271,-3.8186,-3.8122,-3.8018,-3.7142,-3.5603,-3.5395,-3.4434,-3.3191,-3.2802,-3.2737,-3.2608,-3.2525,-3.2473,-3.2523,-3.2523,-3.2523,-3.2506,-3.2557,-3.2555,-3.2553,-3.2588,-3.2588,-3.2588,-3.2588,-3.2588,-3.2588,-3.2588,-3.2639,-3.2722,-3.2737,-3.277,-3.2852,-3.2866,-3.2898,-3.2898,-3.2948,-3.3028,-3.3091,-3.3152,-3.3274,-3.3422,-3.3452,-3.3422,-3.3452,-3.3433,-3.3386,-3.3386,-3.3357,-3.3345,-3.3526,-3.4165,-3.4645,-3.5083,-3.5573,-3.608,-3.6049,-3.6213,-3.6464,-3.6572,-3.65,-3.6109,-3.5827,-3.5118,-3.4673,-3.3997,-3.3262,-3.2841,-3.2725,-3.2608,-3.2523,-3.237,-3.2266,-3.2091,-3.1912,-3.1839,-3.1728,-3.1596,-3.1483,-3.1389,-3.9034,-3.9708,-3.9708,-3.9708,-3.9647,-3.9679,-3.9669,-3.9669,-3.9602,-3.9577,-3.9571,-3.9596,-3.9546,-3.9495,-3.9495,-3.9444,-3.9399,-3.9399,-3.9399,-3.9373,-3.9346,-3.9328,-3.9346,-3.9275,-3.9183,-3.9147,-3.9017,-3.8979,-3.8921,-3.8851,-3.878,-3.8719,-3.8528,-3.8401,-3.8322,-3.8171,-3.807,-3.8018,-3.788,-3.7003,-3.5715,-3.5273,-3.4438,-3.3057,-3.2654,-3.2573,-3.2457,-3.2388,-3.2388,-3.2456,-3.2405,-3.2422,-3.2422,-3.2473,-3.2489,-3.2506,-3.2539,-3.2557,-3.2558,-3.2557,-3.2573,-3.2573,-3.2573,-3.2573,-3.2606,-3.2606,-3.2606,-3.2639,-3.2588,-3.2621,-3.2672,-3.274,-3.2805,-3.2884,-3.2866,-3.3011,-3.3214,-3.3292,-3.3262,-3.3262,-3.3165,-3.3135,-3.3104,-3.3104,-3.3135,-3.328,-3.3795,-3.4389,-3.5022,-3.5726,-3.6393,-3.6914,-3.7131,-3.7471,-3.7488,-3.7434,-3.6933,-3.6433,-3.5506,-3.4851,-3.4251,-3.353,-3.2757,-3.2406,-3.2336,-3.2161,-3.1948,-3.1839,-3.1728,-3.1579,-3.1466,-3.1329,-3.119,-3.1134,-3.1038,-3.9543,-3.9717,-3.965,-3.9626,-3.9607,-3.9602,-3.9596,-3.9546,-3.952,-3.9495,-3.9469,-3.9444,-3.9444,-3.9418,-3.9418,-3.9399,-3.9391,-3.9391,-3.9346,-3.9256,-3.9202,-3.9156,-3.9175,-3.9175,-3.9183,-3.9129,-3.9064,-3.8979,-3.8968,-3.8833,-3.8773,-3.8732,-3.8541,-3.8446,-3.835,-3.8238,-3.8207,-3.814,-3.8002,-3.7072,-3.5785,-3.5372,-3.4505,-3.2986,-3.259,-3.2489,-3.2388,-3.2301,-3.2214,-3.2214,-3.2301,-3.2371,-3.2388,-3.2388,-3.2422,-3.2405,-3.2405,-3.2422,-3.2422,-3.2422,-3.2439,-3.2439,-3.2439,-3.2491,-3.2523,-3.2523,-3.2557,-3.2573,-3.2588,-3.2573,-3.2606,-3.2606,-3.2672,-3.2672,-3.2672,-3.2705,-3.282,-3.2948,-3.3091,-3.3104,-3.3104,-3.3104,-3.3104,-3.3073,-3.3109,-3.3212,-3.3625,-3.4221,-3.4924,-3.5679,-3.6255,-3.672,-3.7004,-3.7126,-3.7337,-3.7261,-3.697,-3.6608,-3.5854,-3.5087,-3.4474,-3.3862,-3.3147,-3.2522,-3.2073,-3.1875,-3.1654,-3.1542,-3.1466,-3.1291,-3.1095,-3.1015,-3.0895,-3.0814,-3.0708,-3.9626,-3.9645,-3.9596,-3.9546,-3.9546,-3.952,-3.9476,-3.9444,-3.9444,-3.9425,-3.9399,-3.9418,-3.9373,-3.9301,-3.9301,-3.9301,-3.9275,-3.9248,-3.9229,-3.9175,-3.9101,-3.9073,-3.9064,-3.9092,-3.9101,-3.9092,-3.9036,-3.8997,-3.891,-3.8833,-3.8743,-3.8683,-3.8541,-3.8465,-3.8336,-3.8238,-3.8189,-3.8088,-3.8002,-3.7145,-3.5703,-3.5395,-3.4526,-3.3048,-3.256,-3.2405,-3.2388,-3.2267,-3.2179,-3.2179,-3.2196,-3.2232,-3.2267,-3.2267,-3.2249,-3.2266,-3.2249,-3.2267,-3.2267,-3.2232,-3.2249,-3.2267,-3.2267,-3.2267,-3.2318,-3.2336,-3.2387,-3.2422,-3.2456,-3.2541,-3.2557,-3.2557,-3.2557,-3.2606,-3.2588,-3.2588,-3.2588,-3.2737,-3.2834,-3.2866,-3.2866,-3.2866,-3.2866,-3.2898,-3.2898,-3.2888,-3.2905,-3.3461,-3.3964,-3.4693,-3.5386,-3.5898,-3.6282,-3.6594,-3.6925,-3.693,-3.6794,-3.6475,-3.6046,-3.537,-3.4771,-3.4186,-3.3562,-3.2805,-3.2018,-3.1614,-3.1406,-3.1329,-3.1213,-3.1055,-3.0895,-3.0773,-3.0651,-3.0526,-3.0401,-3.9571,-3.9571,-3.952,-3.9488,-3.9469,-3.9444,-3.9391,-3.9354,-3.9373,-3.9346,-3.9346,-3.9346,-3.9256,-3.921,-3.9183,-3.9156,-3.9101,-3.9073,-3.9045,-3.9064,-3.9064,-3.9036,-3.8979,-3.8979,-3.8979,-3.8979,-3.895,-3.891,-3.8822,-3.8762,-3.8652,-3.8541,-3.8478,-3.8401,-3.8289,-3.8171,-3.8086,-3.8018,-3.77,-3.6933,-3.5563,-3.517,-3.4126,-3.2948,-3.2475,-3.2388,-3.2354,-3.2232,-3.2144,-3.2144,-3.2073,-3.2037,-3.2037,-3.2108,-3.2109,-3.2109,-3.2127,-3.2126,-3.2125,-3.2107,-3.2108,-3.2108,-3.2108,-3.2108,-3.2144,-3.2179,-3.2214,-3.2232,-3.2301,-3.2371,-3.2439,-3.2422,-3.2456,-3.2472,-3.2488,-3.2539,-3.2539,-3.2539,-3.2521,-3.2621,-3.2687,-3.2705,-3.2672,-3.2705,-3.2621,-3.2606,-3.259,-3.2749,-3.3247,-3.3776,-3.4463,-3.4956,-3.5322,-3.5857,-3.6199,-3.6615,-3.6451,-3.6284,-3.602,-3.5583,-3.5002,-3.4389,-3.3709,-3.2689,-3.1953,-3.1568,-3.1179,-3.0975,-3.0855,-3.0773,-3.0609,-3.0401,-3.0316,-3.0231,-3.0103,-3.9425,-3.9425,-3.9418,-3.9418,-3.9399,-3.9399,-3.9272,-3.9256,-3.9136,-3.9202,-3.9119,-3.9147,-3.9129,-3.9129,-3.9129,-3.9073,-3.9036,-3.8979,-3.895,-3.8968,-3.8968,-3.8939,-3.8939,-3.8892,-3.8939,-3.891,-3.8881,-3.8822,-3.8773,-3.8652,-3.8572,-3.851,-3.8401,-3.8322,-3.8256,-3.8138,-3.8052,-3.7875,-3.7324,-3.6396,-3.5488,-3.4497,-3.3739,-3.2598,-3.2423,-3.2319,-3.2232,-3.2144,-3.2073,-3.1948,-3.191,-3.1873,-3.1856,-3.1965,-3.2073,-3.2091,-3.2091,-3.2053,-3.205,-3.2071,-3.209,-3.2108,-3.2073,-3.2073,-3.2073,-3.2108,-3.2108,-3.2108,-3.2161,-3.2161,-3.2179,-3.2214,-3.2179,-3.2214,-3.2214,-3.2249,-3.2214,-3.2232,-3.2335,-3.2506,-3.2539,-3.2555,-3.2506,-3.2506,-3.2472,-3.2472,-3.2456,-3.2422,-3.2651,-3.3108,-3.3599,-3.4019,-3.4316,-3.4899,-3.5479,-3.5953,-3.6122,-3.6045,-3.5854,-3.5633,-3.5104,-3.4549,-3.3738,-3.2806,-3.2035,-3.1524,-3.1133,-3.0717,-3.0501,-3.0401,-3.0231,-3.006,-2.9973,-2.9946,-2.9798,-3.9418,-3.9391,-3.9328,-3.904,-3.8704,-3.8641,-3.8327,-3.8003,-3.8338,-3.8488,-3.8563,-3.8841,-3.9017,-3.9007,-3.9007,-3.8979,-3.895,-3.8939,-3.891,-3.891,-3.891,-3.8881,-3.8851,-3.8833,-3.8822,-3.8792,-3.878,-3.8762,-3.8773,-3.8713,-3.8572,-3.851,-3.8433,-3.8387,-3.8307,-3.8223,-3.8052,-3.7803,-3.7122,-3.6245,-3.5247,-3.4015,-3.2964,-3.2599,-3.2354,-3.2232,-3.2161,-3.202,-3.1948,-3.1839,-3.1746,-3.1671,-3.1688,-3.1726,-3.1837,-3.1946,-3.1946,-3.1927,-3.1923,-3.1944,-3.1929,-3.1946,-3.1946,-3.1929,-3.1965,-3.1948,-3.2037,-3.2073,-3.2108,-3.2108,-3.2108,-3.2073,-3.2108,-3.2108,-3.2108,-3.2073,-3.2108,-3.2108,-3.2214,-3.2335,-3.2301,-3.2301,-3.2301,-3.2301,-3.2301,-3.2301,-3.2318,-3.2266,-3.2197,-3.244,-3.2821,-3.3199,-3.354,-3.4098,-3.4593,-3.4959,-3.5351,-3.5389,-3.5442,-3.5215,-3.5094,-3.4459,-3.3839,-3.304,-3.2314,-3.1572,-3.112,-3.0787,-3.0375,-3.0049,-2.9902,-2.9814,-2.9726,-2.9637,-2.9502,-3.9253,-3.9104,-3.8987,-3.8457,-3.7806,-3.7652,-3.7299,-3.6883,-3.7347,-3.7571,-3.7664,-3.8331,-3.8672,-3.8689,-3.8818,-3.8881,-3.8862,-3.8881,-3.8851,-3.887,-3.8851,-3.8822,-3.8792,-3.8762,-3.875,-3.8719,-3.8738,-3.8719,-3.875,-3.8713,-3.8621,-3.851,-3.8478,-3.8401,-3.8307,-3.8189,-3.8068,-3.7566,-3.694,-3.6041,-3.4694,-3.343,-3.2492,-3.2371,-3.2249,-3.2179,-3.2108,-3.1984,-3.1875,-3.1783,-3.1671,-3.1579,-3.15,-3.15,-3.1576,-3.1726,-3.1743,-3.1726,-3.1726,-3.1743,-3.1726,-3.1743,-3.1763,-3.1763,-3.1783,-3.1839,-3.1912,-3.2001,-3.2037,-3.2018,-3.2001,-3.2037,-3.2037,-3.2054,-3.2054,-3.2037,-3.2001,-3.2001,-3.2001,-3.2037,-3.2001,-3.2037,-3.2055,-3.2091,-3.2126,-3.2055,-3.2037,-3.1948,-3.1912,-3.1765,-3.207,-3.2454,-3.2849,-3.3342,-3.371,-3.3854,-3.4179,-3.4315,-3.4435,-3.4432,-3.4473,-3.4396,-3.3761,-3.3225,-3.2447,-3.1732,-3.1271,-3.0729,-3.0247,-2.9875,-2.9701,-2.9547,-2.9382,-2.9291,-2.9245,-3.872,-3.8088,-3.8069,-3.7604,-3.6891,-3.6764,-3.67,-3.657,-3.6609,-3.6648,-3.6703,-3.7451,-3.7858,-3.8014,-3.8538,-3.8748,-3.8792,-3.878,-3.875,-3.875,-3.875,-3.8719,-3.8719,-3.8689,-3.8689,-3.8658,-3.8658,-3.8707,-3.8689,-3.859,-3.851,-3.8433,-3.8354,-3.8219,-3.8044,-3.7923,-3.7623,-3.6854,-3.5998,-3.4786,-3.3339,-3.273,-3.2457,-3.2284,-3.2214,-3.2144,-3.2073,-3.1948,-3.1839,-3.1746,-3.1671,-3.1559,-3.1517,-3.15,-3.15,-3.1517,-3.1555,-3.1538,-3.1555,-3.1555,-3.1593,-3.1593,-3.1538,-3.1576,-3.1634,-3.1709,-3.1783,-3.1819,-3.1837,-3.1854,-3.1837,-3.1819,-3.1837,-3.1837,-3.1837,-3.1837,-3.1837,-3.1837,-3.1837,-3.1783,-3.1783,-3.1819,-3.1875,-3.1875,-3.1912,-3.1819,-3.1746,-3.1691,-3.1617,-3.1504,-3.1351,-3.171,-3.1968,-3.242,-3.2782,-3.2954,-3.3323,-3.3421,-3.3617,-3.3791,-3.4023,-3.4137,-3.402,-3.3433,-3.269,-3.1919,-3.1356,-3.0747,-3.0128,-2.978,-2.9639,-2.9311,-2.892,-2.8889,-2.8998,-3.8146,-3.7802,-3.733,-3.6636,-3.5951,-3.5869,-3.5565,-3.5288,-3.5613,-3.5789,-3.5901,-3.6602,-3.7182,-3.7577,-3.7971,-3.8327,-3.864,-3.8689,-3.8707,-3.8707,-3.8707,-3.8658,-3.8609,-3.8578,-3.8578,-3.8546,-3.8546,-3.8496,-3.8496,-3.8478,-3.8465,-3.8354,-3.8252,-3.7914,-3.7579,-3.735,-3.678,-3.598,-3.5091,-3.3993,-3.2956,-3.2555,-3.2404,-3.2161,-3.2144,-3.2073,-3.1965,-3.1893,-3.1783,-3.1651,-3.1576,-3.1462,-3.1363,-3.1325,-3.1325,-3.1325,-3.1308,-3.1397,-3.1448,-3.1475,-3.1479,-3.1517,-3.1517,-3.15,-3.1538,-3.1576,-3.1631,-3.1631,-3.1631,-3.1631,-3.1668,-3.1614,-3.1614,-3.1668,-3.1668,-3.1668,-3.1651,-3.1631,-3.1631,-3.1576,-3.1555,-3.1661,-3.1785,-3.1871,-3.1785,-3.1596,-3.1521,-3.1411,-3.1351,-3.1235,-3.1078,-3.1002,-3.1206,-3.1466,-3.1748,-3.2017,-3.271,-3.2952,-3.3237,-3.3486,-3.3761,-3.3804,-3.3748,-3.3642,-3.3141,-3.2374,-3.1529,-3.1005,-3.0528,-3.0037,-2.9548,-2.9279,-2.9043,-2.8841,-2.8998,-3.7128,-3.7109,-3.6444,-3.5742,-3.4977,-3.4958,-3.4581,-3.412,-3.4655,-3.486,-3.5027,-3.569,-3.6489,-3.7158,-3.7452,-3.7863,-3.8328,-3.8548,-3.8609,-3.8627,-3.8627,-3.8578,-3.8528,-3.8478,-3.8465,-3.8368,-3.8419,-3.8368,-3.8245,-3.8118,-3.8012,-3.8219,-3.7896,-3.7507,-3.6952,-3.6525,-3.6026,-3.5106,-3.4204,-3.3359,-3.2712,-3.2539,-3.2387,-3.2179,-3.2073,-3.1965,-3.1837,-3.1746,-3.1634,-3.1555,-3.1462,-3.1385,-3.1269,-3.123,-3.123,-3.123,-3.123,-3.1263,-3.1353,-3.1414,-3.1402,-3.144,-3.1462,-3.1423,-3.1462,-3.1462,-3.15,-3.1517,-3.1517,-3.15,-3.1517,-3.1517,-3.1517,-3.1538,-3.15,-3.1479,-3.1496,-3.1547,-3.1526,-3.147,-3.1533,-3.1653,-3.1777,-3.1839,-3.1726,-3.1409,-3.1291,-3.123,-3.1162,-3.1069,-3.0914,-3.0742,-3.0667,-3.0905,-3.1205,-3.1532,-3.2128,-3.2526,-3.2805,-3.2998,-3.3235,-3.3435,-3.3471,-3.3398,-3.324,-3.2751,-3.1941,-3.1455,-3.0986,-3.0467,-2.998,-2.9555,-2.9273,-2.9009,-2.896,-3.5376,-3.5385,-3.5356,-3.4903,-3.4127,-3.4013,-3.3968,-3.3895,-3.3934,-3.3981,-3.41,-3.4743,-3.5587,-3.634,-3.6897,-3.7253,-3.743,-3.8162,-3.8314,-3.8373,-3.8433,-3.8433,-3.8382,-3.835,-3.8336,-3.8289,-3.8129,-3.8026,-3.7851,-3.7166,-3.7471,-3.792,-3.7202,-3.6886,-3.6332,-3.5652,-3.4996,-3.4151,-3.3341,-3.2871,-3.2542,-3.2439,-3.2301,-3.2108,-3.1984,-3.1875,-3.18,-3.1671,-3.1596,-3.1479,-3.1406,-3.1329,-3.123,-3.119,-3.1151,-3.1151,-3.1151,-3.1185,-3.1185,-3.1224,-3.1247,-3.123,-3.1291,-3.1329,-3.1312,-3.1423,-3.1479,-3.1462,-3.1423,-3.1547,-3.1513,-3.1534,-3.1628,-3.1884,-3.1964,-3.1907,-3.1783,-3.1511,-3.1489,-3.1393,-3.15,-3.1739,-3.1985,-3.2152,-3.206,-3.1806,-3.1508,-3.1483,-3.1149,-3.104,-3.0747,-3.057,-3.0332,-3.0505,-3.0891,-3.1318,-3.1661,-3.1999,-3.2315,-3.2488,-3.2609,-3.2855,-3.3118,-3.3027,-3.285,-3.2625,-3.2369,-3.1851,-3.1347,-3.082,-3.0366,-3.0017,-2.9607,-2.9311,-2.9245,-3.4659,-3.422,-3.4229,-3.41,-3.3868,-3.3842,-3.3842,-3.3815,-3.3807,-3.3762,-3.3771,-3.4092,-3.4659,-3.5326,-3.5656,-3.612,-3.6583,-3.732,-3.7562,-3.7808,-3.8008,-3.8216,-3.8186,-3.8117,-3.8104,-3.7928,-3.7639,-3.7298,-3.7086,-3.6335,-3.6155,-3.6209,-3.6062,-3.5616,-3.5101,-3.4482,-3.3725,-3.3341,-3.2818,-3.2507,-3.2457,-3.2336,-3.2196,-3.1984,-3.1893,-3.1783,-3.1671,-3.1596,-3.1483,-3.1406,-3.1295,-3.1235,-3.119,-3.1112,-3.1089,-3.1089,-3.1049,-3.1049,-3.1066,-3.1128,-3.119,-3.1173,-3.1213,-3.1252,-3.1196,-3.1325,-3.1325,-3.1325,-3.1409,-3.1596,-3.1953,-3.2021,-3.2156,-3.2456,-3.2517,-3.2391,-3.2249,-3.1989,-3.2008,-3.2177,-3.1993,-3.1959,-3.2214,-3.2508,-3.2397,-3.2207,-3.1934,-3.1644,-3.1391,-3.1193,-3.0961,-3.0839,-3.0687,-3.0776,-3.115,-3.123,-3.1244,-3.1602,-3.1986,-3.2154,-3.2421,-3.2422,-3.2687,-3.2578,-3.2484,-3.2327,-3.2139,-3.2002,-3.1673,-3.1121,-3.0777,-3.054,-3.0114,-2.9644,-2.9652,-3.4097,-3.3623,-3.3605,-3.3661,-3.3726,-3.3753,-3.3753,-3.3734,-3.3753,-3.3726,-3.3671,-3.3707,-3.3907,-3.4371,-3.4743,-3.5023,-3.5666,-3.629,-3.6585,-3.6902,-3.7305,-3.7654,-3.7641,-3.7571,-3.7464,-3.7325,-3.6786,-3.6337,-3.6197,-3.5395,-3.5093,-3.495,-3.4733,-3.4306,-3.4166,-3.3232,-3.2657,-3.2557,-3.2456,-3.2353,-3.2301,-3.2161,-3.2054,-3.1856,-3.1746,-3.1671,-3.1559,-3.1462,-3.1385,-3.1291,-3.1196,-3.1134,-3.1095,-3.1032,-3.1009,-3.0969,-3.0945,-3.0922,-3.0938,-3.0986,-3.1112,-3.1072,-3.1072,-3.1112,-3.1128,-3.1297,-3.1567,-3.1567,-3.1628,-3.1955,-3.2495,-3.2504,-3.2572,-3.2858,-3.2866,-3.2774,-3.2823,-3.2713,-3.2877,-3.2995,-3.3034,-3.3326,-3.3024,-3.3247,-3.2722,-3.2471,-3.2109,-3.1834,-3.1651,-3.1496,-3.1467,-3.1325,-3.1246,-3.1405,-3.1541,-3.1586,-3.1643,-3.1992,-3.2273,-3.226,-3.2385,-3.2351,-3.2342,-3.2358,-3.2247,-3.2094,-3.1992,-3.1916,-3.1718,-3.1445,-3.1086,-3.0697,-3.0561,-3.0189,-3.0256,-3.3613,-3.3605,-3.3559,-3.3605,-3.3587,-3.3605,-3.3605,-3.3633,-3.3615,-3.3605,-3.3577,-3.3577,-3.3567,-3.3764,-3.4225,-3.4456,-3.4635,-3.5309,-3.5674,-3.5804,-3.6402,-3.6674,-3.6712,-3.6696,-3.6644,-3.6414,-3.5824,-3.5343,-3.5221,-3.4387,-3.4051,-3.3786,-3.3468,-3.3275,-3.3734,-3.2979,-3.2491,-3.2388,-3.2267,-3.2179,-3.2073,-3.1946,-3.1837,-3.1763,-3.1614,-3.1483,-3.1423,-3.1308,-3.123,-3.1134,-3.1015,-3.0992,-3.0952,-3.0912,-3.0888,-3.0864,-3.0888,-3.0881,-3.089,-3.0922,-3.0979,-3.1019,-3.1053,-3.117,-3.1146,-3.1498,-3.1985,-3.206,-3.2387,-3.2763,-3.2981,-3.3014,-3.3115,-3.3289,-3.3372,-3.3528,-3.3623,-3.3483,-3.364,-3.4046,-3.4856,-3.5334,-3.4644,-3.4056,-3.3259,-3.2739,-3.2266,-3.2059,-3.2015,-3.1982,-3.1978,-3.1926,-3.1858,-3.1817,-3.1914,-3.1961,-3.2076,-3.24,-3.2454,-3.229,-3.2195,-3.216,-3.2135,-3.2135,-3.2023,-3.1811,-3.1769,-3.1784,-3.1531,-3.1351,-3.1121,-3.085,-3.0704,-3.0648,-3.0698,-3.3345,-3.3286,-3.3268,-3.3268,-3.3298,-3.352,-3.3605,-3.3605,-3.3549,-3.3481,-3.3411,-3.3411,-3.3316,-3.3412,-3.3473,-3.3677,-3.3741,-3.4371,-3.4717,-3.4727,-3.5462,-3.5679,-3.5735,-3.5701,-3.5666,-3.5401,-3.4832,-3.4387,-3.4249,-3.3507,-3.3135,-3.2854,-3.2735,-3.2649,-3.2789,-3.251,-3.2388,-3.2196,-3.2073,-3.1965,-3.191,-3.1746,-3.1634,-3.1614,-3.1445,-3.1329,-3.1308,-3.1134,-3.1055,-3.1049,-3.0945,-3.0955,-3.0972,-3.0914,-3.0874,-3.0816,-3.0783,-3.0892,-3.1174,-3.1366,-3.1175,-3.1157,-3.1357,-3.1591,-3.1692,-3.2261,-3.2562,-3.2687,-3.2927,-3.3295,-3.3534,-3.3634,-3.3789,-3.423,-3.4416,-3.4684,-3.4721,-3.4394,-3.4381,-3.5053,-3.5852,-3.5535,-3.4972,-3.4398,-3.37,-3.3214,-3.275,-3.2734,-3.2692,-3.2681,-3.2683,-3.2578,-3.2504,-3.2398,-3.2322,-3.216,-3.2014,-3.2158,-3.2104,-3.1951,-3.1925,-3.1868,-3.1811,-3.1754,-3.164,-3.1524,-3.1539,-3.1497,-3.1366,-3.1202,-3.1021,-3.0989,-3.0989,-3.0934,-3.0952,-3.3122,-3.3042,-3.3042,-3.3042,-3.3055,-3.3327,-3.3415,-3.3433,-3.3345,-3.3274,-3.3201,-3.317,-3.3122,-3.3011,-3.3011,-3.293,-3.3001,-3.3412,-3.3716,-3.3758,-3.449,-3.4724,-3.4743,-3.4691,-3.4709,-3.4427,-3.3913,-3.3434,-3.3401,-3.2822,-3.256,-3.2458,-3.2318,-3.2284,-3.2302,-3.2232,-3.2196,-3.2037,-3.1948,-3.1839,-3.1691,-3.1596,-3.1483,-3.1406,-3.1291,-3.1173,-3.1095,-3.0975,-3.0871,-3.0898,-3.1007,-3.1157,-3.1149,-3.1291,-3.1358,-3.1349,-3.1382,-3.158,-3.1851,-3.1984,-3.1855,-3.1733,-3.2,-3.2167,-3.235,-3.2884,-3.3123,-3.3245,-3.3423,-3.3715,-3.4038,-3.4154,-3.4289,-3.4706,-3.4708,-3.4923,-3.525,-3.4905,-3.531,-3.5983,-3.6389,-3.5905,-3.524,-3.46,-3.4048,-3.3619,-3.3244,-3.3228,-3.315,-3.3043,-3.2881,-3.2796,-3.2617,-3.2384,-3.2244,-3.2219,-3.2084,-3.1925,-3.1826,-3.1712,-3.1597,-3.1524,-3.1424,-3.138,-3.1307,-3.1307,-3.1249,-3.119,-3.119,-3.1132,-3.1043,-3.1087,-3.1249,-3.1132,-3.1087,-3.2948,-3.2884,-3.2884,-3.2884,-3.2916,-3.3024,-3.3086,-3.3086,-3.3042,-3.2979,-3.2979,-3.2916,-3.2852,-3.2805,-3.2805,-3.2755,-3.2672,-3.2743,-3.2778,-3.2905,-3.3575,-3.3718,-3.3807,-3.3789,-3.3773,-3.3509,-3.3138,-3.2804,-3.2626,-3.2457,-3.2301,-3.2196,-3.2108,-3.2037,-3.2037,-3.2001,-3.1965,-3.1875,-3.1783,-3.1671,-3.1559,-3.1428,-3.1351,-3.1235,-3.1117,-3.1055,-3.0969,-3.0931,-3.0883,-3.1016,-3.1357,-3.1563,-3.1851,-3.2299,-3.2552,-3.2646,-3.2573,-3.2586,-3.2707,-3.2713,-3.2845,-3.2774,-3.284,-3.2796,-3.2911,-3.3404,-3.3723,-3.3862,-3.398,-3.4231,-3.4464,-3.4414,-3.4349,-3.4448,-3.4349,-3.4772,-3.5305,-3.5655,-3.6228,-3.6757,-3.7214,-3.6858,-3.5875,-3.5153,-3.4351,-3.3606,-3.3168,-3.2834,-3.2741,-3.2687,-3.2594,-3.2484,-3.2358,-3.2176,-3.2079,-3.1966,-3.1811,-3.1655,-3.1524,-3.1409,-3.1292,-3.1234,-3.1249,-3.1205,-3.1146,-3.1087,-3.1014,-3.1014,-3.1014,-3.1014,-3.0881,-3.094,-3.1014,-3.1014,-3.0955,-3.2787,-3.2705,-3.2705,-3.2672,-3.2672,-3.269,-3.2737,-3.2852,-3.287,-3.2787,-3.2705,-3.2705,-3.2639,-3.2639,-3.2657,-3.2606,-3.2606,-3.2588,-3.2606,-3.2747,-3.2873,-3.2942,-3.296,-3.2979,-3.2928,-3.2807,-3.258,-3.2387,-3.2301,-3.2196,-3.2196,-3.2126,-3.1946,-3.1873,-3.18,-3.1726,-3.1709,-3.1671,-3.1651,-3.1521,-3.1428,-3.1351,-3.1235,-3.1117,-3.1099,-3.1019,-3.0965,-3.1316,-3.1382,-3.148,-3.2061,-3.2365,-3.2431,-3.258,-3.2674,-3.2691,-3.2746,-3.2871,-3.3359,-3.3475,-3.3578,-3.3895,-3.3964,-3.3733,-3.3733,-3.3881,-3.4296,-3.4299,-3.43,-3.4431,-3.4349,-3.43,-3.425,-3.4151,-3.4196,-3.4642,-3.5235,-3.5764,-3.6358,-3.6896,-3.737,-3.6927,-3.602,-3.5571,-3.474,-3.3825,-3.3084,-3.2691,-3.2359,-3.2293,-3.2247,-3.2191,-3.2023,-3.191,-3.1724,-3.161,-3.1467,-3.1307,-3.1234,-3.1234,-3.1176,-3.1132,-3.1087,-3.1028,-3.0955,-3.0836,-3.0762,-3.0762,-3.0762,-3.0762,-3.0702,-3.0762,-3.0836,-3.0762,-3.0762,-3.2489,-3.2404,-3.2386,-3.2404,-3.2404,-3.2353,-3.2422,-3.2541,-3.2541,-3.2523,-3.2438,-3.2422,-3.2404,-3.2404,-3.2404,-3.237,-3.237,-3.2387,-3.237,-3.237,-3.2404,-3.2422,-3.2422,-3.2404,-3.2388,-3.2301,-3.2267,-3.2214,-3.2073,-3.2018,-3.1982,-3.1893,-3.1726,-3.1688,-3.1651,-3.1538,-3.1466,-3.1466,-3.1445,-3.1406,-3.1329,-3.1235,-3.1078,-3.1099,-3.1153,-3.1232,-3.1225,-3.1798,-3.2044,-3.215,-3.2729,-3.311,-3.3226,-3.3359,-3.3574,-3.3673,-3.3694,-3.3846,-3.4077,-3.4126,-3.436,-3.4511,-3.4594,-3.4348,-3.4216,-3.4218,-3.4349,-3.4399,-3.4366,-3.4349,-3.425,-3.4117,-3.4016,-3.3864,-3.421,-3.4585,-3.5147,-3.5665,-3.6211,-3.6776,-3.6814,-3.6507,-3.6045,-3.5676,-3.5032,-3.3907,-3.2985,-3.237,-3.2068,-3.194,-3.191,-3.1853,-3.1682,-3.1524,-3.1394,-3.1278,-3.1234,-3.1132,-3.1073,-3.1014,-3.0955,-3.0895,-3.0836,-3.0836,-3.0776,-3.0702,-3.0582,-3.0507,-3.0493,-3.0447,-3.0462,-3.0462,-3.0462,-3.0507,-3.0447,-3.2144,-3.2108,-3.2108,-3.2108,-3.2073,-3.2073,-3.2073,-3.2073,-3.2108,-3.2179,-3.2179,-3.2161,-3.2144,-3.2179,-3.2179,-3.2179,-3.2179,-3.2179,-3.2179,-3.2108,-3.2179,-3.2179,-3.2179,-3.2108,-3.2144,-3.2108,-3.2037,-3.2018,-3.1982,-3.1873,-3.1709,-3.1579,-3.1538,-3.15,-3.15,-3.1329,-3.1274,-3.1278,-3.1257,-3.1235,-3.123,-3.1151,-3.1076,-3.1204,-3.1533,-3.1907,-3.2031,-3.237,-3.2779,-3.3011,-3.3375,-3.3822,-3.4054,-3.4272,-3.4618,-3.4653,-3.449,-3.4475,-3.4477,-3.4493,-3.4446,-3.4464,-3.4448,-3.4284,-3.4202,-3.4284,-3.4382,-3.425,-3.4201,-3.4101,-3.4016,-3.3949,-3.3848,-3.3834,-3.4096,-3.4508,-3.5038,-3.564,-3.6266,-3.6646,-3.6507,-3.6213,-3.595,-3.5582,-3.517,-3.4046,-3.3186,-3.2408,-3.1826,-3.1659,-3.1509,-3.1509,-3.1336,-3.1234,-3.1176,-3.1117,-3.1073,-3.0955,-3.0895,-3.0836,-3.0836,-3.0702,-3.0582,-3.0582,-3.0582,-3.0522,-3.0462,-3.0387,-3.0326,-3.0266,-3.0219,-3.0172,-3.0158,-3.0144,-3.0205,-3.2108,-3.2108,-3.2108,-3.202,-3.1948,-3.1893,-3.1819,-3.1728,-3.1688,-3.1856,-3.209,-3.2108,-3.209,-3.2054,-3.2037,-3.2037,-3.2073,-3.2018,-3.2073,-3.2073,-3.2037,-3.2001,-3.2073,-3.2001,-3.1965,-3.1893,-3.1856,-3.18,-3.1726,-3.1614,-3.1576,-3.1483,-3.1406,-3.1329,-3.1329,-3.1196,-3.1117,-3.123,-3.1179,-3.1207,-3.1314,-3.1597,-3.1725,-3.1842,-3.219,-3.2503,-3.2752,-3.3155,-3.3408,-3.3657,-3.427,-3.4504,-3.4508,-3.4673,-3.4675,-3.4594,-3.4594,-3.4594,-3.4546,-3.4497,-3.4399,-3.4234,-3.4151,-3.405,-3.405,-3.425,-3.425,-3.4101,-3.3965,-3.3915,-3.3813,-3.3761,-3.3738,-3.3852,-3.4042,-3.4502,-3.5023,-3.568,-3.6338,-3.6306,-3.6211,-3.6006,-3.577,-3.5446,-3.4973,-3.4385,-3.3632,-3.2807,-3.1914,-3.1412,-3.122,-3.1117,-3.0984,-3.094,-3.0881,-3.0881,-3.0821,-3.0762,-3.0702,-3.0642,-3.0642,-3.0522,-3.0387,-3.0326,-3.028,-3.0341,-3.0294,-3.0233,-3.0158,-3.0097,-3.0021,-2.9913,-2.9789,-2.9822,-2.996,-3.1819,-3.1819,-3.1837,-3.1783,-3.1709,-3.1688,-3.1596,-3.1576,-3.1517,-3.1614,-3.1783,-3.1837,-3.1837,-3.1837,-3.1819,-3.1856,-3.1856,-3.1837,-3.18,-3.1837,-3.1873,-3.1783,-3.1819,-3.1856,-3.1746,-3.1688,-3.1651,-3.1631,-3.1479,-3.1423,-3.1406,-3.1368,-3.1257,-3.114,-3.114,-3.1055,-3.1116,-3.1461,-3.1304,-3.1457,-3.1616,-3.196,-3.2176,-3.2324,-3.2846,-3.3139,-3.347,-3.3839,-3.4124,-3.4209,-3.4525,-3.4609,-3.4593,-3.4594,-3.4562,-3.4464,-3.4399,-3.4349,-3.43,-3.4201,-3.4151,-3.4,-3.3899,-3.3797,-3.3694,-3.3848,-3.3949,-3.3797,-3.3864,-3.3761,-3.3555,-3.3503,-3.3678,-3.3833,-3.4368,-3.4904,-3.5419,-3.5953,-3.6119,-3.5961,-3.5894,-3.5767,-3.5559,-3.5415,-3.4897,-3.4218,-3.3528,-3.2859,-3.1965,-3.1154,-3.0937,-3.0776,-3.0702,-3.0702,-3.0702,-3.0702,-3.0642,-3.0582,-3.0447,-3.0401,-3.0401,-3.028,-3.0205,-3.0158,-3.0158,-3.0172,-3.0111,-2.9988,-2.9927,-2.9851,-2.9789,-2.9651,-2.9588,-2.9449,-2.9526,-3.1517,-3.1479,-3.15,-3.1479,-3.1479,-3.1462,-3.1462,-3.1462,-3.144,-3.144,-3.1479,-3.1462,-3.1479,-3.1479,-3.15,-3.15,-3.1538,-3.1614,-3.1555,-3.1555,-3.1538,-3.1576,-3.1576,-3.1538,-3.1538,-3.15,-3.1462,-3.1423,-3.1363,-3.1291,-3.1235,-3.1235,-3.1117,-3.0975,-3.0992,-3.1002,-3.112,-3.1587,-3.18,-3.2217,-3.235,-3.2417,-3.2623,-3.3034,-3.3553,-3.3889,-3.4154,-3.4372,-3.4706,-3.4675,-3.4496,-3.448,-3.4399,-3.4399,-3.43,-3.4201,-3.4167,-3.405,-3.3949,-3.3899,-3.3797,-3.3694,-3.3642,-3.3539,-3.3435,-3.3435,-3.3487,-3.3487,-3.3539,-3.3503,-3.3361,-3.3282,-3.3482,-3.3724,-3.4359,-3.5078,-3.5507,-3.6011,-3.5897,-3.5657,-3.5559,-3.5509,-3.5394,-3.5213,-3.4771,-3.408,-3.3333,-3.2654,-3.193,-3.1134,-3.0548,-3.0536,-3.0462,-3.0462,-3.0522,-3.0522,-3.0401,-3.0401,-3.028,-3.0219,-3.0158,-3.0083,-3.0021,-3.0036,-3.0036,-2.9927,-2.9851,-2.9789,-2.9665,-2.954,-2.9477,-2.9415,-2.9338,-2.9212,-2.9162,-3.1406,-3.15,-3.15,-3.1423,-3.1351,-3.1334,-3.1329,-3.1286,-3.1286,-3.1286,-3.1286,-3.1269,-3.1346,-3.15,-3.15,-3.1462,-3.1423,-3.1462,-3.1462,-3.15,-3.1462,-3.1462,-3.1462,-3.1385,-3.1406,-3.1368,-3.1252,-3.1173,-3.119,-3.1095,-3.1055,-3.1015,-3.0975,-3.0912,-3.0912,-3.0972,-3.1189,-3.1724,-3.2083,-3.2387,-3.3228,-3.3387,-3.347,-3.3839,-3.4225,-3.4426,-3.4559,-3.456,-3.4578,-3.4497,-3.4415,-3.43,-3.4201,-3.4101,-3.4,-3.3899,-3.3848,-3.3761,-3.3642,-3.3607,-3.3503,-3.3398,-3.3293,-3.3187,-3.3081,-3.2989,-3.2973,-3.2888,-3.2958,-3.3096,-3.3005,-3.2935,-3.3092,-3.3218,-3.3648,-3.4375,-3.4957,-3.5332,-3.5552,-3.5419,-3.535,-3.5299,-3.5133,-3.5016,-3.4868,-3.4105,-3.315,-3.2518,-3.2072,-3.1161,-3.0233,-3.0233,-3.0233,-3.028,-3.0341,-3.028,-3.0233,-3.0172,-3.0097,-3.0036,-2.9974,-2.996,-2.9898,-2.9837,-2.9727,-2.9665,-2.9602,-2.9526,-2.9415,-2.9289,-2.9226,-2.9162,-2.9035,-2.8972,-2.883]}]]